<?xml version="1.0" encoding="UTF-8" standalone="no" ?>
<gpx xmlns="http://www.topografix.com/GPX/1/1" xmlns:xsi="http://www.w3.org/2001/XMLSchema-instance" xsi:schemaLocation="http://www.topografix.com/GPX/1/1 http://www.topografix.com/GPX/1/1/gpx.xsd" version="1.1" creator="VisuGPX - https://www.visugpx.com">
  <metadata>
    <name>Boucle Sainte-Honorine-La-Guillaume n°6</name>
    <desc><![CDATA[La Petite Héroudière - La Galbranière - l'Être Chauvel]]></desc>
  </metadata>
  <trk>
    <name><![CDATA[Boucle Sainte-Honorine-La-Guillaume n°6]]></name>
    <extensions>
      <line xmlns="http://www.topografix.com/GPX/gpx_style/0/2">
        <color>0000FF</color>
        <width>4</width>
      </line>
    </extensions>
    <trkseg>
      <trkpt lat="48.77875" lon="-0.37643">
        <ele>203.9</ele>
        <time>2025-05-26T14:30:10.000Z</time>
        <extensions>
          <visugpx:TrkExtension xmlns:visugpx="https://www.visugpx.com/editgpx/">
            <visugpx:node>27</visugpx:node>
            </visugpx:TrkExtension>
        </extensions>
      </trkpt>
      <trkpt lat="48.77875" lon="-0.37643">
        <ele>203.9</ele>
        <time>2025-05-26T14:30:10.000Z</time>
      </trkpt>
      <trkpt lat="48.77881" lon="-0.37651">
        <ele>203.7</ele>
        <time>2025-05-26T14:30:14.864Z</time>
      </trkpt>
      <trkpt lat="48.77886" lon="-0.3766">
        <ele>203.3</ele>
        <time>2025-05-26T14:30:19.728Z</time>
      </trkpt>
      <trkpt lat="48.77892" lon="-0.37668">
        <ele>203.1</ele>
        <time>2025-05-26T14:30:24.592Z</time>
      </trkpt>
      <trkpt lat="48.77897" lon="-0.37676">
        <ele>203</ele>
        <time>2025-05-26T14:30:29.456Z</time>
      </trkpt>
      <trkpt lat="48.77903" lon="-0.37684">
        <ele>202.9</ele>
        <time>2025-05-26T14:30:34.320Z</time>
      </trkpt>
      <trkpt lat="48.77908" lon="-0.37693">
        <ele>202.7</ele>
        <time>2025-05-26T14:30:39.184Z</time>
      </trkpt>
      <trkpt lat="48.77914" lon="-0.37701">
        <ele>202.5</ele>
        <time>2025-05-26T14:30:44.048Z</time>
      </trkpt>
      <trkpt lat="48.7792" lon="-0.37709">
        <ele>202.1</ele>
        <time>2025-05-26T14:30:48.912Z</time>
      </trkpt>
      <trkpt lat="48.77925" lon="-0.37717">
        <ele>201.7</ele>
        <time>2025-05-26T14:30:53.776Z</time>
      </trkpt>
      <trkpt lat="48.77931" lon="-0.37726">
        <ele>201.4</ele>
        <time>2025-05-26T14:30:58.640Z</time>
      </trkpt>
      <trkpt lat="48.77936" lon="-0.37734">
        <ele>201.3</ele>
        <time>2025-05-26T14:31:03.505Z</time>
      </trkpt>
      <trkpt lat="48.77942" lon="-0.37742">
        <ele>201.2</ele>
        <time>2025-05-26T14:31:08.370Z</time>
      </trkpt>
      <trkpt lat="48.77947" lon="-0.3775">
        <ele>200.8</ele>
        <time>2025-05-26T14:31:13.235Z</time>
      </trkpt>
      <trkpt lat="48.77953" lon="-0.37759">
        <ele>200.2</ele>
        <time>2025-05-26T14:31:18.100Z</time>
      </trkpt>
      <trkpt lat="48.77958" lon="-0.37767">
        <ele>199.7</ele>
        <time>2025-05-26T14:31:22.965Z</time>
      </trkpt>
      <trkpt lat="48.77964" lon="-0.37775">
        <ele>199.3</ele>
        <time>2025-05-26T14:31:27.830Z</time>
      </trkpt>
      <trkpt lat="48.7797" lon="-0.37784">
        <ele>199.3</ele>
        <time>2025-05-26T14:31:34.051Z</time>
      </trkpt>
      <trkpt lat="48.77976" lon="-0.37794">
        <ele>199.4</ele>
        <time>2025-05-26T14:31:40.272Z</time>
      </trkpt>
      <trkpt lat="48.77981" lon="-0.37803">
        <ele>199.6</ele>
        <time>2025-05-26T14:31:46.494Z</time>
      </trkpt>
      <trkpt lat="48.77987" lon="-0.37812">
        <ele>199.6</ele>
        <time>2025-05-26T14:31:52.716Z</time>
      </trkpt>
      <trkpt lat="48.77993" lon="-0.37821">
        <ele>199.7</ele>
        <time>2025-05-26T14:31:58.938Z</time>
      </trkpt>
      <trkpt lat="48.77999" lon="-0.37831">
        <ele>199.9</ele>
        <time>2025-05-26T14:32:05.160Z</time>
      </trkpt>
      <trkpt lat="48.78004" lon="-0.3784">
        <ele>200.2</ele>
        <time>2025-05-26T14:32:11.382Z</time>
      </trkpt>
      <trkpt lat="48.7801" lon="-0.37849">
        <ele>200.6</ele>
        <time>2025-05-26T14:32:17.604Z</time>
      </trkpt>
      <trkpt lat="48.78014" lon="-0.37855">
        <ele>200.8</ele>
        <time>2025-05-26T14:32:21.918Z</time>
      </trkpt>
      <trkpt lat="48.78018" lon="-0.37861">
        <ele>201</ele>
        <time>2025-05-26T14:32:26.232Z</time>
      </trkpt>
      <trkpt lat="48.78022" lon="-0.37867">
        <ele>201.2</ele>
        <time>2025-05-26T14:32:30.546Z</time>
      </trkpt>
      <trkpt lat="48.78026" lon="-0.37874">
        <ele>201.5</ele>
        <time>2025-05-26T14:32:34.860Z</time>
      </trkpt>
      <trkpt lat="48.7803" lon="-0.3788">
        <ele>201.6</ele>
        <time>2025-05-26T14:32:39.174Z</time>
      </trkpt>
      <trkpt lat="48.78034" lon="-0.37886">
        <ele>201.7</ele>
        <time>2025-05-26T14:32:43.488Z</time>
      </trkpt>
      <trkpt lat="48.78038" lon="-0.37892">
        <ele>201.7</ele>
        <time>2025-05-26T14:32:47.802Z</time>
      </trkpt>
      <trkpt lat="48.78042" lon="-0.37898">
        <ele>201.8</ele>
        <time>2025-05-26T14:32:52.116Z</time>
      </trkpt>
      <trkpt lat="48.78047" lon="-0.37905">
        <ele>201.9</ele>
        <time>2025-05-26T14:32:56.960Z</time>
      </trkpt>
      <trkpt lat="48.78051" lon="-0.37911">
        <ele>202</ele>
        <time>2025-05-26T14:33:01.804Z</time>
      </trkpt>
      <trkpt lat="48.78056" lon="-0.37918">
        <ele>202.1</ele>
        <time>2025-05-26T14:33:06.648Z</time>
      </trkpt>
      <trkpt lat="48.7806" lon="-0.37925">
        <ele>202.6</ele>
        <time>2025-05-26T14:33:11.492Z</time>
      </trkpt>
      <trkpt lat="48.78065" lon="-0.37931">
        <ele>202.9</ele>
        <time>2025-05-26T14:33:16.336Z</time>
      </trkpt>
      <trkpt lat="48.78069" lon="-0.37938">
        <ele>203.2</ele>
        <time>2025-05-26T14:33:21.180Z</time>
      </trkpt>
      <trkpt lat="48.78074" lon="-0.37944">
        <ele>203.3</ele>
        <time>2025-05-26T14:33:26.024Z</time>
      </trkpt>
      <trkpt lat="48.78078" lon="-0.37951">
        <ele>203.4</ele>
        <time>2025-05-26T14:33:30.868Z</time>
      </trkpt>
      <trkpt lat="48.78082" lon="-0.37957">
        <ele>203.5</ele>
        <time>2025-05-26T14:33:35.027Z</time>
      </trkpt>
      <trkpt lat="48.78085" lon="-0.37963">
        <ele>203.8</ele>
        <time>2025-05-26T14:33:39.186Z</time>
      </trkpt>
      <trkpt lat="48.78089" lon="-0.37969">
        <ele>204.3</ele>
        <time>2025-05-26T14:33:43.565Z</time>
      </trkpt>
      <trkpt lat="48.78093" lon="-0.37975">
        <ele>204.7</ele>
        <time>2025-05-26T14:33:47.944Z</time>
      </trkpt>
      <trkpt lat="48.78097" lon="-0.37981">
        <ele>205</ele>
        <time>2025-05-26T14:33:52.323Z</time>
      </trkpt>
      <trkpt lat="48.78101" lon="-0.37987">
        <ele>205.1</ele>
        <time>2025-05-26T14:33:56.702Z</time>
      </trkpt>
      <trkpt lat="48.78104" lon="-0.37993">
        <ele>205.1</ele>
        <time>2025-05-26T14:34:01.081Z</time>
      </trkpt>
      <trkpt lat="48.78108" lon="-0.37999">
        <ele>205</ele>
        <time>2025-05-26T14:34:05.460Z</time>
      </trkpt>
      <trkpt lat="48.78112" lon="-0.38005">
        <ele>205.2</ele>
        <time>2025-05-26T14:34:09.839Z</time>
      </trkpt>
      <trkpt lat="48.78116" lon="-0.38011">
        <ele>205.6</ele>
        <time>2025-05-26T14:34:14.218Z</time>
      </trkpt>
      <trkpt lat="48.7812" lon="-0.38016">
        <ele>205.9</ele>
        <time>2025-05-26T14:34:18.597Z</time>
      </trkpt>
      <trkpt lat="48.78124" lon="-0.38022">
        <ele>206.3</ele>
        <time>2025-05-26T14:34:22.976Z</time>
      </trkpt>
      <trkpt lat="48.78128" lon="-0.38028">
        <ele>206.6</ele>
        <time>2025-05-26T14:34:27.355Z</time>
      </trkpt>
      <trkpt lat="48.78132" lon="-0.38034">
        <ele>206.8</ele>
        <time>2025-05-26T14:34:31.734Z</time>
      </trkpt>
      <trkpt lat="48.78135" lon="-0.3804">
        <ele>206.9</ele>
        <time>2025-05-26T14:34:36.113Z</time>
      </trkpt>
      <trkpt lat="48.78139" lon="-0.38046">
        <ele>207</ele>
        <time>2025-05-26T14:34:40.492Z</time>
      </trkpt>
      <trkpt lat="48.78143" lon="-0.38052">
        <ele>207.1</ele>
        <time>2025-05-26T14:34:44.872Z</time>
      </trkpt>
      <trkpt lat="48.78147" lon="-0.38058">
        <ele>207.4</ele>
        <time>2025-05-26T14:34:49.252Z</time>
      </trkpt>
      <trkpt lat="48.78151" lon="-0.38065">
        <ele>207.6</ele>
        <time>2025-05-26T14:34:54.018Z</time>
      </trkpt>
      <trkpt lat="48.78156" lon="-0.38072">
        <ele>207.8</ele>
        <time>2025-05-26T14:34:58.784Z</time>
      </trkpt>
      <trkpt lat="48.7816" lon="-0.38079">
        <ele>208</ele>
        <time>2025-05-26T14:35:03.550Z</time>
      </trkpt>
      <trkpt lat="48.78164" lon="-0.38087">
        <ele>208.1</ele>
        <time>2025-05-26T14:35:08.316Z</time>
      </trkpt>
      <trkpt lat="48.78168" lon="-0.38094">
        <ele>208.4</ele>
        <time>2025-05-26T14:35:13.083Z</time>
      </trkpt>
      <trkpt lat="48.78173" lon="-0.38101">
        <ele>208.5</ele>
        <time>2025-05-26T14:35:17.850Z</time>
      </trkpt>
      <trkpt lat="48.78177" lon="-0.38108">
        <ele>208.6</ele>
        <time>2025-05-26T14:35:22.617Z</time>
      </trkpt>
      <trkpt lat="48.78181" lon="-0.38115">
        <ele>208.6</ele>
        <time>2025-05-26T14:35:27.384Z</time>
      </trkpt>
      <trkpt lat="48.78184" lon="-0.38122">
        <ele>208.8</ele>
        <time>2025-05-26T14:35:31.458Z</time>
      </trkpt>
      <trkpt lat="48.78188" lon="-0.38129">
        <ele>208.9</ele>
        <time>2025-05-26T14:35:35.532Z</time>
      </trkpt>
      <trkpt lat="48.78191" lon="-0.38135">
        <ele>209</ele>
        <time>2025-05-26T14:35:39.606Z</time>
      </trkpt>
      <trkpt lat="48.78194" lon="-0.38142">
        <ele>209</ele>
        <time>2025-05-26T14:35:43.681Z</time>
      </trkpt>
      <trkpt lat="48.78198" lon="-0.38153">
        <ele>208.8</ele>
        <time>2025-05-26T14:35:48.997Z</time>
      </trkpt>
      <trkpt lat="48.78201" lon="-0.38164">
        <ele>208.7</ele>
        <time>2025-05-26T14:35:54.313Z</time>
      </trkpt>
      <trkpt lat="48.78203" lon="-0.38172">
        <ele>208.8</ele>
        <time>2025-05-26T14:35:58.323Z</time>
      </trkpt>
      <trkpt lat="48.78206" lon="-0.3818">
        <ele>208.9</ele>
        <time>2025-05-26T14:36:02.333Z</time>
      </trkpt>
      <trkpt lat="48.78208" lon="-0.38187">
        <ele>208.9</ele>
        <time>2025-05-26T14:36:06.343Z</time>
      </trkpt>
      <trkpt lat="48.7821" lon="-0.38195">
        <ele>208.9</ele>
        <time>2025-05-26T14:36:10.354Z</time>
      </trkpt>
      <trkpt lat="48.78212" lon="-0.38204">
        <ele>209</ele>
        <time>2025-05-26T14:36:14.826Z</time>
      </trkpt>
      <trkpt lat="48.78213" lon="-0.38212">
        <ele>209.1</ele>
        <time>2025-05-26T14:36:19.298Z</time>
      </trkpt>
      <trkpt lat="48.78215" lon="-0.38221">
        <ele>209.2</ele>
        <time>2025-05-26T14:36:23.770Z</time>
      </trkpt>
      <trkpt lat="48.78217" lon="-0.38229">
        <ele>209.4</ele>
        <time>2025-05-26T14:36:28.242Z</time>
      </trkpt>
      <trkpt lat="48.78218" lon="-0.38238">
        <ele>209.7</ele>
        <time>2025-05-26T14:36:32.714Z</time>
      </trkpt>
      <trkpt lat="48.7822" lon="-0.38246">
        <ele>209.9</ele>
        <time>2025-05-26T14:36:37.186Z</time>
      </trkpt>
      <trkpt lat="48.78222" lon="-0.38255">
        <ele>210.2</ele>
        <time>2025-05-26T14:36:41.659Z</time>
      </trkpt>
      <trkpt lat="48.78224" lon="-0.38264">
        <ele>210.4</ele>
        <time>2025-05-26T14:36:46.132Z</time>
      </trkpt>
      <trkpt lat="48.78225" lon="-0.38272">
        <ele>210.6</ele>
        <time>2025-05-26T14:36:50.605Z</time>
      </trkpt>
      <trkpt lat="48.78227" lon="-0.38281">
        <ele>210.7</ele>
        <time>2025-05-26T14:36:55.078Z</time>
      </trkpt>
      <trkpt lat="48.78229" lon="-0.38289">
        <ele>210.6</ele>
        <time>2025-05-26T14:36:59.551Z</time>
      </trkpt>
      <trkpt lat="48.7823" lon="-0.38298">
        <ele>210.6</ele>
        <time>2025-05-26T14:37:04.024Z</time>
      </trkpt>
      <trkpt lat="48.78232" lon="-0.38306">
        <ele>210.7</ele>
        <time>2025-05-26T14:37:08.497Z</time>
      </trkpt>
      <trkpt lat="48.78234" lon="-0.38315">
        <ele>210.9</ele>
        <time>2025-05-26T14:37:12.970Z</time>
      </trkpt>
      <trkpt lat="48.78235" lon="-0.38323">
        <ele>211.2</ele>
        <time>2025-05-26T14:37:17.443Z</time>
      </trkpt>
      <trkpt lat="48.78237" lon="-0.38332">
        <ele>211.4</ele>
        <time>2025-05-26T14:37:21.916Z</time>
      </trkpt>
      <trkpt lat="48.78241" lon="-0.38344">
        <ele>211.7</ele>
        <time>2025-05-26T14:37:28.843Z</time>
      </trkpt>
      <trkpt lat="48.78244" lon="-0.38355">
        <ele>212</ele>
        <time>2025-05-26T14:37:35.770Z</time>
      </trkpt>
      <trkpt lat="48.78248" lon="-0.38367">
        <ele>212.5</ele>
        <time>2025-05-26T14:37:42.697Z</time>
      </trkpt>
      <trkpt lat="48.78251" lon="-0.38378">
        <ele>213.2</ele>
        <time>2025-05-26T14:37:49.624Z</time>
      </trkpt>
      <trkpt lat="48.78256" lon="-0.38389">
        <ele>213.8</ele>
        <time>2025-05-26T14:37:57.001Z</time>
      </trkpt>
      <trkpt lat="48.78261" lon="-0.384">
        <ele>214.2</ele>
        <time>2025-05-26T14:38:04.378Z</time>
      </trkpt>
      <trkpt lat="48.78264" lon="-0.38405">
        <ele>214.4</ele>
        <time>2025-05-26T14:38:08.369Z</time>
      </trkpt>
      <trkpt lat="48.78268" lon="-0.38411">
        <ele>214.7</ele>
        <time>2025-05-26T14:38:12.361Z</time>
      </trkpt>
      <trkpt lat="48.78271" lon="-0.38416">
        <ele>215</ele>
        <time>2025-05-26T14:38:16.353Z</time>
      </trkpt>
      <trkpt lat="48.78274" lon="-0.38421">
        <ele>215.3</ele>
        <time>2025-05-26T14:38:20.345Z</time>
      </trkpt>
      <trkpt lat="48.78278" lon="-0.38426">
        <ele>215.7</ele>
        <time>2025-05-26T14:38:24.295Z</time>
      </trkpt>
      <trkpt lat="48.78282" lon="-0.38431">
        <ele>215.9</ele>
        <time>2025-05-26T14:38:28.245Z</time>
      </trkpt>
      <trkpt lat="48.78285" lon="-0.38435">
        <ele>216.1</ele>
        <time>2025-05-26T14:38:32.195Z</time>
      </trkpt>
      <trkpt lat="48.78289" lon="-0.3844">
        <ele>216.3</ele>
        <time>2025-05-26T14:38:36.146Z</time>
      </trkpt>
      <trkpt lat="48.78293" lon="-0.38445">
        <ele>216.5</ele>
        <time>2025-05-26T14:38:40.097Z</time>
      </trkpt>
      <trkpt lat="48.78297" lon="-0.3845">
        <ele>216.7</ele>
        <time>2025-05-26T14:38:44.048Z</time>
      </trkpt>
      <trkpt lat="48.783" lon="-0.38454">
        <ele>216.9</ele>
        <time>2025-05-26T14:38:47.999Z</time>
      </trkpt>
      <trkpt lat="48.78304" lon="-0.38459">
        <ele>217.1</ele>
        <time>2025-05-26T14:38:51.950Z</time>
      </trkpt>
      <trkpt lat="48.78309" lon="-0.38465">
        <ele>217.4</ele>
        <time>2025-05-26T14:38:57.193Z</time>
      </trkpt>
      <trkpt lat="48.78314" lon="-0.38472">
        <ele>217.7</ele>
        <time>2025-05-26T14:39:02.436Z</time>
      </trkpt>
      <trkpt lat="48.78319" lon="-0.38478">
        <ele>217.7</ele>
        <time>2025-05-26T14:39:07.679Z</time>
      </trkpt>
      <trkpt lat="48.78324" lon="-0.38484">
        <ele>217.9</ele>
        <time>2025-05-26T14:39:12.922Z</time>
      </trkpt>
      <trkpt lat="48.78329" lon="-0.3849">
        <ele>218.2</ele>
        <time>2025-05-26T14:39:18.166Z</time>
      </trkpt>
      <trkpt lat="48.78334" lon="-0.38497">
        <ele>218.8</ele>
        <time>2025-05-26T14:39:23.410Z</time>
      </trkpt>
      <trkpt lat="48.78339" lon="-0.38503">
        <ele>219.2</ele>
        <time>2025-05-26T14:39:28.654Z</time>
      </trkpt>
      <trkpt lat="48.78344" lon="-0.38509">
        <ele>219.5</ele>
        <time>2025-05-26T14:39:33.898Z</time>
      </trkpt>
      <trkpt lat="48.78349" lon="-0.38515">
        <ele>219.9</ele>
        <time>2025-05-26T14:39:38.000Z</time>
      </trkpt>
      <trkpt lat="48.78353" lon="-0.38521">
        <ele>220.2</ele>
        <time>2025-05-26T14:39:42.102Z</time>
      </trkpt>
      <trkpt lat="48.78358" lon="-0.38526">
        <ele>220.7</ele>
        <time>2025-05-26T14:39:46.204Z</time>
      </trkpt>
      <trkpt lat="48.78363" lon="-0.38532">
        <ele>221.3</ele>
        <time>2025-05-26T14:39:50.306Z</time>
      </trkpt>
      <trkpt lat="48.78368" lon="-0.38538">
        <ele>221.8</ele>
        <time>2025-05-26T14:39:54.408Z</time>
      </trkpt>
      <trkpt lat="48.78372" lon="-0.38544">
        <ele>222.1</ele>
        <time>2025-05-26T14:39:58.510Z</time>
      </trkpt>
      <trkpt lat="48.78377" lon="-0.38549">
        <ele>222.5</ele>
        <time>2025-05-26T14:40:02.612Z</time>
      </trkpt>
      <trkpt lat="48.78382" lon="-0.38555">
        <ele>222.7</ele>
        <time>2025-05-26T14:40:06.714Z</time>
      </trkpt>
      <trkpt lat="48.78387" lon="-0.38561">
        <ele>223.1</ele>
        <time>2025-05-26T14:40:10.816Z</time>
      </trkpt>
      <trkpt lat="48.78391" lon="-0.38567">
        <ele>223.5</ele>
        <time>2025-05-26T14:40:14.918Z</time>
      </trkpt>
      <trkpt lat="48.78396" lon="-0.38572">
        <ele>223.7</ele>
        <time>2025-05-26T14:40:19.021Z</time>
      </trkpt>
      <trkpt lat="48.78401" lon="-0.38578">
        <ele>223.9</ele>
        <time>2025-05-26T14:40:23.124Z</time>
      </trkpt>
      <trkpt lat="48.78405" lon="-0.38584">
        <ele>224</ele>
        <time>2025-05-26T14:40:27.227Z</time>
      </trkpt>
      <trkpt lat="48.7841" lon="-0.3859">
        <ele>224.1</ele>
        <time>2025-05-26T14:40:31.329Z</time>
      </trkpt>
      <trkpt lat="48.78415" lon="-0.38596">
        <ele>224</ele>
        <time>2025-05-26T14:40:35.432Z</time>
      </trkpt>
      <trkpt lat="48.7842" lon="-0.38601">
        <ele>224</ele>
        <time>2025-05-26T14:40:39.535Z</time>
      </trkpt>
      <trkpt lat="48.78424" lon="-0.38607">
        <ele>224</ele>
        <time>2025-05-26T14:40:43.638Z</time>
      </trkpt>
      <trkpt lat="48.78429" lon="-0.38613">
        <ele>224</ele>
        <time>2025-05-26T14:40:47.741Z</time>
      </trkpt>
      <trkpt lat="48.78434" lon="-0.38619">
        <ele>224.1</ele>
        <time>2025-05-26T14:40:51.844Z</time>
      </trkpt>
      <trkpt lat="48.78438" lon="-0.38624">
        <ele>224.1</ele>
        <time>2025-05-26T14:40:55.947Z</time>
      </trkpt>
      <trkpt lat="48.78443" lon="-0.3863">
        <ele>224</ele>
        <time>2025-05-26T14:41:00.050Z</time>
      </trkpt>
      <trkpt lat="48.78448" lon="-0.38636">
        <ele>223.9</ele>
        <time>2025-05-26T14:41:04.153Z</time>
      </trkpt>
      <trkpt lat="48.78453" lon="-0.38642">
        <ele>223.8</ele>
        <time>2025-05-26T14:41:08.256Z</time>
      </trkpt>
      <trkpt lat="48.78457" lon="-0.38647">
        <ele>223.7</ele>
        <time>2025-05-26T14:41:12.359Z</time>
      </trkpt>
      <trkpt lat="48.78462" lon="-0.38653">
        <ele>223.6</ele>
        <time>2025-05-26T14:41:16.462Z</time>
      </trkpt>
      <trkpt lat="48.78467" lon="-0.38659">
        <ele>223.3</ele>
        <time>2025-05-26T14:41:20.565Z</time>
      </trkpt>
      <trkpt lat="48.78471" lon="-0.38665">
        <ele>223.1</ele>
        <time>2025-05-26T14:41:24.668Z</time>
      </trkpt>
      <trkpt lat="48.78476" lon="-0.3867">
        <ele>222.8</ele>
        <time>2025-05-26T14:41:28.771Z</time>
      </trkpt>
      <trkpt lat="48.78481" lon="-0.38676">
        <ele>222.6</ele>
        <time>2025-05-26T14:41:32.873Z</time>
      </trkpt>
      <trkpt lat="48.78486" lon="-0.38682">
        <ele>222.3</ele>
        <time>2025-05-26T14:41:36.976Z</time>
      </trkpt>
      <trkpt lat="48.7849" lon="-0.38688">
        <ele>222</ele>
        <time>2025-05-26T14:41:41.079Z</time>
      </trkpt>
      <trkpt lat="48.78495" lon="-0.38694">
        <ele>221.5</ele>
        <time>2025-05-26T14:41:45.182Z</time>
      </trkpt>
      <trkpt lat="48.785" lon="-0.38699">
        <ele>221.2</ele>
        <time>2025-05-26T14:41:49.285Z</time>
      </trkpt>
      <trkpt lat="48.78504" lon="-0.38705">
        <ele>221.1</ele>
        <time>2025-05-26T14:41:53.388Z</time>
      </trkpt>
      <trkpt lat="48.78509" lon="-0.38711">
        <ele>220.9</ele>
        <time>2025-05-26T14:41:57.491Z</time>
      </trkpt>
      <trkpt lat="48.78514" lon="-0.38717">
        <ele>220.8</ele>
        <time>2025-05-26T14:42:01.594Z</time>
      </trkpt>
      <trkpt lat="48.78519" lon="-0.38722">
        <ele>220.6</ele>
        <time>2025-05-26T14:42:05.697Z</time>
      </trkpt>
      <trkpt lat="48.78523" lon="-0.38728">
        <ele>220.3</ele>
        <time>2025-05-26T14:42:09.800Z</time>
      </trkpt>
      <trkpt lat="48.78528" lon="-0.38734">
        <ele>220</ele>
        <time>2025-05-26T14:42:13.903Z</time>
      </trkpt>
      <trkpt lat="48.78533" lon="-0.3874">
        <ele>219.6</ele>
        <time>2025-05-26T14:42:18.006Z</time>
      </trkpt>
      <trkpt lat="48.78538" lon="-0.38745">
        <ele>219.2</ele>
        <time>2025-05-26T14:42:22.109Z</time>
      </trkpt>
      <trkpt lat="48.78542" lon="-0.38751">
        <ele>219</ele>
        <time>2025-05-26T14:42:26.212Z</time>
      </trkpt>
      <trkpt lat="48.78547" lon="-0.38757">
        <ele>218.9</ele>
        <time>2025-05-26T14:42:30.315Z</time>
      </trkpt>
      <trkpt lat="48.78552" lon="-0.38763">
        <ele>218.7</ele>
        <time>2025-05-26T14:42:34.418Z</time>
      </trkpt>
      <trkpt lat="48.78556" lon="-0.38769">
        <ele>218.6</ele>
        <time>2025-05-26T14:42:38.521Z</time>
      </trkpt>
      <trkpt lat="48.78561" lon="-0.38774">
        <ele>218.2</ele>
        <time>2025-05-26T14:42:42.624Z</time>
      </trkpt>
      <trkpt lat="48.78566" lon="-0.3878">
        <ele>217.9</ele>
        <time>2025-05-26T14:42:46.727Z</time>
      </trkpt>
      <trkpt lat="48.78571" lon="-0.38786">
        <ele>217.7</ele>
        <time>2025-05-26T14:42:50.830Z</time>
      </trkpt>
      <trkpt lat="48.78575" lon="-0.38792">
        <ele>217.6</ele>
        <time>2025-05-26T14:42:54.933Z</time>
      </trkpt>
      <trkpt lat="48.7858" lon="-0.38797">
        <ele>217.6</ele>
        <time>2025-05-26T14:42:59.036Z</time>
      </trkpt>
      <trkpt lat="48.78585" lon="-0.38803">
        <ele>217.6</ele>
        <time>2025-05-26T14:43:03.139Z</time>
      </trkpt>
      <trkpt lat="48.78589" lon="-0.38809">
        <ele>217.4</ele>
        <time>2025-05-26T14:43:07.242Z</time>
      </trkpt>
      <trkpt lat="48.78594" lon="-0.38815">
        <ele>217.1</ele>
        <time>2025-05-26T14:43:11.345Z</time>
      </trkpt>
      <trkpt lat="48.78599" lon="-0.3882">
        <ele>216.9</ele>
        <time>2025-05-26T14:43:15.448Z</time>
      </trkpt>
      <trkpt lat="48.78604" lon="-0.38826">
        <ele>216.9</ele>
        <time>2025-05-26T14:43:19.551Z</time>
      </trkpt>
      <trkpt lat="48.78608" lon="-0.38832">
        <ele>217</ele>
        <time>2025-05-26T14:43:23.654Z</time>
      </trkpt>
      <trkpt lat="48.78613" lon="-0.38838">
        <ele>216.9</ele>
        <time>2025-05-26T14:43:27.757Z</time>
      </trkpt>
      <trkpt lat="48.78618" lon="-0.38843">
        <ele>216.6</ele>
        <time>2025-05-26T14:43:31.860Z</time>
      </trkpt>
      <trkpt lat="48.78622" lon="-0.38849">
        <ele>216.4</ele>
        <time>2025-05-26T14:43:35.963Z</time>
      </trkpt>
      <trkpt lat="48.78627" lon="-0.38855">
        <ele>216.3</ele>
        <time>2025-05-26T14:43:40.066Z</time>
      </trkpt>
      <trkpt lat="48.78632" lon="-0.38861">
        <ele>216.2</ele>
        <time>2025-05-26T14:43:44.169Z</time>
      </trkpt>
      <trkpt lat="48.78637" lon="-0.38867">
        <ele>216.1</ele>
        <time>2025-05-26T14:43:48.272Z</time>
      </trkpt>
      <trkpt lat="48.78641" lon="-0.38872">
        <ele>215.8</ele>
        <time>2025-05-26T14:43:52.375Z</time>
      </trkpt>
      <trkpt lat="48.78646" lon="-0.38878">
        <ele>215.5</ele>
        <time>2025-05-26T14:43:56.478Z</time>
      </trkpt>
      <trkpt lat="48.78653" lon="-0.38884">
        <ele>215</ele>
        <time>2025-05-26T14:44:01.184Z</time>
      </trkpt>
      <trkpt lat="48.78659" lon="-0.38891">
        <ele>214.6</ele>
        <time>2025-05-26T14:44:05.890Z</time>
      </trkpt>
      <trkpt lat="48.78666" lon="-0.38897">
        <ele>214</ele>
        <time>2025-05-26T14:44:10.596Z</time>
      </trkpt>
      <trkpt lat="48.78672" lon="-0.38903">
        <ele>213.8</ele>
        <time>2025-05-26T14:44:15.302Z</time>
      </trkpt>
      <trkpt lat="48.78678" lon="-0.38908">
        <ele>213.6</ele>
        <time>2025-05-26T14:44:19.349Z</time>
      </trkpt>
      <trkpt lat="48.78684" lon="-0.38912">
        <ele>213.4</ele>
        <time>2025-05-26T14:44:23.396Z</time>
      </trkpt>
      <trkpt lat="48.7869" lon="-0.38917">
        <ele>213.2</ele>
        <time>2025-05-26T14:44:27.444Z</time>
      </trkpt>
      <trkpt lat="48.78696" lon="-0.38922">
        <ele>212.9</ele>
        <time>2025-05-26T14:44:31.492Z</time>
      </trkpt>
      <trkpt lat="48.78701" lon="-0.38926">
        <ele>212.7</ele>
        <time>2025-05-26T14:44:35.540Z</time>
      </trkpt>
      <trkpt lat="48.78707" lon="-0.38931">
        <ele>212.3</ele>
        <time>2025-05-26T14:44:39.588Z</time>
      </trkpt>
      <trkpt lat="48.78713" lon="-0.38935">
        <ele>211.9</ele>
        <time>2025-05-26T14:44:43.636Z</time>
      </trkpt>
      <trkpt lat="48.78719" lon="-0.3894">
        <ele>211.4</ele>
        <time>2025-05-26T14:44:47.684Z</time>
      </trkpt>
      <trkpt lat="48.78726" lon="-0.38947">
        <ele>210.9</ele>
        <time>2025-05-26T14:44:52.703Z</time>
      </trkpt>
      <trkpt lat="48.78733" lon="-0.38953">
        <ele>210.5</ele>
        <time>2025-05-26T14:44:57.722Z</time>
      </trkpt>
      <trkpt lat="48.78738" lon="-0.3896">
        <ele>210.1</ele>
        <time>2025-05-26T14:45:01.882Z</time>
      </trkpt>
      <trkpt lat="48.78743" lon="-0.38967">
        <ele>209.6</ele>
        <time>2025-05-26T14:45:06.043Z</time>
      </trkpt>
      <trkpt lat="48.78747" lon="-0.38974">
        <ele>209.2</ele>
        <time>2025-05-26T14:45:09.425Z</time>
      </trkpt>
      <trkpt lat="48.7875" lon="-0.3898">
        <ele>208.7</ele>
        <time>2025-05-26T14:45:12.808Z</time>
      </trkpt>
      <trkpt lat="48.78752" lon="-0.38987">
        <ele>208.4</ele>
        <time>2025-05-26T14:45:15.583Z</time>
      </trkpt>
      <trkpt lat="48.78753" lon="-0.38993">
        <ele>208.1</ele>
        <time>2025-05-26T14:45:18.358Z</time>
      </trkpt>
      <trkpt lat="48.78755" lon="-0.39">
        <ele>207.8</ele>
        <time>2025-05-26T14:45:21.133Z</time>
      </trkpt>
      <trkpt lat="48.78756" lon="-0.39006">
        <ele>207.6</ele>
        <time>2025-05-26T14:45:23.909Z</time>
      </trkpt>
      <trkpt lat="48.78761" lon="-0.39003">
        <ele>207.5</ele>
        <time>2025-05-26T14:45:27.445Z</time>
      </trkpt>
      <trkpt lat="48.78766" lon="-0.39">
        <ele>207.4</ele>
        <time>2025-05-26T14:45:30.981Z</time>
      </trkpt>
      <trkpt lat="48.7877" lon="-0.38996">
        <ele>207.4</ele>
        <time>2025-05-26T14:45:34.518Z</time>
      </trkpt>
      <trkpt lat="48.78775" lon="-0.38993">
        <ele>207.4</ele>
        <time>2025-05-26T14:45:38.055Z</time>
      </trkpt>
      <trkpt lat="48.78778" lon="-0.38999">
        <ele>207</ele>
        <time>2025-05-26T14:45:41.224Z</time>
      </trkpt>
      <trkpt lat="48.78782" lon="-0.39005">
        <ele>206.5</ele>
        <time>2025-05-26T14:45:44.393Z</time>
      </trkpt>
      <trkpt lat="48.78785" lon="-0.39011">
        <ele>206</ele>
        <time>2025-05-26T14:45:47.562Z</time>
      </trkpt>
      <trkpt lat="48.78788" lon="-0.39018">
        <ele>205.4</ele>
        <time>2025-05-26T14:45:50.731Z</time>
      </trkpt>
      <trkpt lat="48.78791" lon="-0.39024">
        <ele>204.8</ele>
        <time>2025-05-26T14:45:53.900Z</time>
      </trkpt>
      <trkpt lat="48.78795" lon="-0.3903">
        <ele>204</ele>
        <time>2025-05-26T14:45:57.069Z</time>
      </trkpt>
      <trkpt lat="48.78798" lon="-0.39036">
        <ele>203.2</ele>
        <time>2025-05-26T14:46:00.238Z</time>
      </trkpt>
      <trkpt lat="48.78801" lon="-0.39042">
        <ele>202.5</ele>
        <time>2025-05-26T14:46:03.407Z</time>
      </trkpt>
      <trkpt lat="48.78807" lon="-0.3905">
        <ele>201.3</ele>
        <time>2025-05-26T14:46:07.929Z</time>
      </trkpt>
      <trkpt lat="48.78812" lon="-0.39057">
        <ele>200.4</ele>
        <time>2025-05-26T14:46:12.451Z</time>
      </trkpt>
      <trkpt lat="48.78818" lon="-0.39065">
        <ele>199.6</ele>
        <time>2025-05-26T14:46:16.973Z</time>
      </trkpt>
      <trkpt lat="48.78823" lon="-0.39072">
        <ele>198.9</ele>
        <time>2025-05-26T14:46:21.495Z</time>
      </trkpt>
      <trkpt lat="48.78823" lon="-0.39072">
        <ele>198.9</ele>
        <time>2025-05-26T14:46:21.495Z</time>
      </trkpt>
      <trkpt lat="48.78823" lon="-0.39072">
        <ele>198.9</ele>
        <time>2025-05-26T14:46:21.495Z</time>
        <extensions>
          <visugpx:TrkExtension xmlns:visugpx="https://www.visugpx.com/editgpx/">
            <visugpx:node>1</visugpx:node>
            </visugpx:TrkExtension>
        </extensions>
      </trkpt>
      <trkpt lat="48.78823" lon="-0.39072">
        <ele>198.9</ele>
        <time>2025-05-26T14:46:21.495Z</time>
        <extensions>
          <visugpx:TrkExtension xmlns:visugpx="https://www.visugpx.com/editgpx/">
            <visugpx:node>2</visugpx:node>
            </visugpx:TrkExtension>
        </extensions>
      </trkpt>
      <trkpt lat="48.78823" lon="-0.39072">
        <ele>198.9</ele>
        <time>2025-05-26T14:46:21.495Z</time>
        <extensions>
          <visugpx:TrkExtension xmlns:visugpx="https://www.visugpx.com/editgpx/">
            <visugpx:node>3</visugpx:node>
            </visugpx:TrkExtension>
        </extensions>
      </trkpt>
      <trkpt lat="48.78823" lon="-0.39072">
        <ele>198.9</ele>
        <time>2025-05-26T14:46:21.495Z</time>
        <extensions>
          <visugpx:TrkExtension xmlns:visugpx="https://www.visugpx.com/editgpx/">
            <visugpx:node>4</visugpx:node>
            </visugpx:TrkExtension>
        </extensions>
      </trkpt>
      <trkpt lat="48.78823" lon="-0.39072">
        <ele>198.9</ele>
        <time>2025-05-26T14:46:21.495Z</time>
        <extensions>
          <visugpx:TrkExtension xmlns:visugpx="https://www.visugpx.com/editgpx/">
            <visugpx:node>5</visugpx:node>
            </visugpx:TrkExtension>
        </extensions>
      </trkpt>
      <trkpt lat="48.78823" lon="-0.39072">
        <ele>198.9</ele>
        <time>2025-05-26T14:46:21.495Z</time>
        <extensions>
          <visugpx:TrkExtension xmlns:visugpx="https://www.visugpx.com/editgpx/">
            <visugpx:node>6</visugpx:node>
            </visugpx:TrkExtension>
        </extensions>
      </trkpt>
      <trkpt lat="48.78823" lon="-0.39072">
        <ele>198.9</ele>
        <time>2025-05-26T14:46:21.495Z</time>
        <extensions>
          <visugpx:TrkExtension xmlns:visugpx="https://www.visugpx.com/editgpx/">
            <visugpx:node>7</visugpx:node>
            </visugpx:TrkExtension>
        </extensions>
      </trkpt>
      <trkpt lat="48.78823" lon="-0.39072">
        <ele>198.9</ele>
        <time>2025-05-26T14:46:21.495Z</time>
        <extensions>
          <visugpx:TrkExtension xmlns:visugpx="https://www.visugpx.com/editgpx/">
            <visugpx:node>8</visugpx:node>
            </visugpx:TrkExtension>
        </extensions>
      </trkpt>
      <trkpt lat="48.78822" lon="-0.39079">
        <ele>198.7</ele>
      </trkpt>
      <trkpt lat="48.7882" lon="-0.39085">
        <ele>198.4</ele>
        <time>2025-05-26T14:46:26.855Z</time>
      </trkpt>
      <trkpt lat="48.78817" lon="-0.39097">
        <ele>197.9</ele>
        <time>2025-05-26T14:46:32.217Z</time>
      </trkpt>
      <trkpt lat="48.78818" lon="-0.39105">
        <ele>197.4</ele>
        <time>2025-05-26T14:46:35.273Z</time>
      </trkpt>
      <trkpt lat="48.78819" lon="-0.39112">
        <ele>197</ele>
        <time>2025-05-26T14:46:38.330Z</time>
      </trkpt>
      <trkpt lat="48.78819" lon="-0.3912">
        <ele>196.5</ele>
        <time>2025-05-26T14:46:41.387Z</time>
      </trkpt>
      <trkpt lat="48.7882" lon="-0.39127">
        <ele>196.1</ele>
        <time>2025-05-26T14:46:44.444Z</time>
      </trkpt>
      <trkpt lat="48.78824" lon="-0.39136">
        <ele>195.5</ele>
        <time>2025-05-26T14:46:48.650Z</time>
      </trkpt>
      <trkpt lat="48.78828" lon="-0.39145">
        <ele>194.9</ele>
        <time>2025-05-26T14:46:52.856Z</time>
      </trkpt>
      <trkpt lat="48.78831" lon="-0.39153">
        <ele>194.5</ele>
        <time>2025-05-26T14:46:57.062Z</time>
      </trkpt>
      <trkpt lat="48.78835" lon="-0.39162">
        <ele>194.1</ele>
        <time>2025-05-26T14:47:01.268Z</time>
      </trkpt>
      <trkpt lat="48.78839" lon="-0.39171">
        <ele>193.7</ele>
        <time>2025-05-26T14:47:05.474Z</time>
      </trkpt>
      <trkpt lat="48.78843" lon="-0.3918">
        <ele>193.3</ele>
        <time>2025-05-26T14:47:09.680Z</time>
      </trkpt>
      <trkpt lat="48.78846" lon="-0.39188">
        <ele>193.1</ele>
        <time>2025-05-26T14:47:13.886Z</time>
      </trkpt>
      <trkpt lat="48.7885" lon="-0.39197">
        <ele>192.9</ele>
        <time>2025-05-26T14:47:18.093Z</time>
      </trkpt>
      <trkpt lat="48.78844" lon="-0.39202">
        <ele>192.9</ele>
        <time>2025-05-26T14:47:22.665Z</time>
      </trkpt>
      <trkpt lat="48.78838" lon="-0.39206">
        <ele>192.9</ele>
        <time>2025-05-26T14:47:27.237Z</time>
      </trkpt>
      <trkpt lat="48.78832" lon="-0.39211">
        <ele>193</ele>
        <time>2025-05-26T14:47:31.809Z</time>
      </trkpt>
      <trkpt lat="48.78826" lon="-0.39216">
        <ele>193</ele>
        <time>2025-05-26T14:47:36.381Z</time>
      </trkpt>
      <trkpt lat="48.7882" lon="-0.3922">
        <ele>193</ele>
        <time>2025-05-26T14:47:40.953Z</time>
      </trkpt>
      <trkpt lat="48.78814" lon="-0.39225">
        <ele>192.9</ele>
        <time>2025-05-26T14:47:45.525Z</time>
      </trkpt>
      <trkpt lat="48.78808" lon="-0.3923">
        <ele>192.7</ele>
        <time>2025-05-26T14:47:50.097Z</time>
      </trkpt>
      <trkpt lat="48.78803" lon="-0.39235">
        <ele>192.6</ele>
        <time>2025-05-26T14:47:54.669Z</time>
      </trkpt>
      <trkpt lat="48.78797" lon="-0.39239">
        <ele>192.6</ele>
        <time>2025-05-26T14:47:59.241Z</time>
      </trkpt>
      <trkpt lat="48.78791" lon="-0.39244">
        <ele>192.6</ele>
        <time>2025-05-26T14:48:03.813Z</time>
      </trkpt>
      <trkpt lat="48.78785" lon="-0.39249">
        <ele>192.7</ele>
        <time>2025-05-26T14:48:08.385Z</time>
      </trkpt>
      <trkpt lat="48.78779" lon="-0.39253">
        <ele>192.9</ele>
        <time>2025-05-26T14:48:12.957Z</time>
      </trkpt>
      <trkpt lat="48.78773" lon="-0.39258">
        <ele>192.7</ele>
        <time>2025-05-26T14:48:17.529Z</time>
      </trkpt>
      <trkpt lat="48.78767" lon="-0.39263">
        <ele>192.5</ele>
        <time>2025-05-26T14:48:22.101Z</time>
      </trkpt>
      <trkpt lat="48.78761" lon="-0.39267">
        <ele>192.4</ele>
        <time>2025-05-26T14:48:26.674Z</time>
      </trkpt>
      <trkpt lat="48.78755" lon="-0.39272">
        <ele>192.2</ele>
        <time>2025-05-26T14:48:31.248Z</time>
      </trkpt>
      <trkpt lat="48.7875" lon="-0.39275">
        <ele>192.1</ele>
        <time>2025-05-26T14:48:35.642Z</time>
      </trkpt>
      <trkpt lat="48.78744" lon="-0.39277">
        <ele>192.5</ele>
        <time>2025-05-26T14:48:40.037Z</time>
      </trkpt>
      <trkpt lat="48.78739" lon="-0.3928">
        <ele>192.7</ele>
        <time>2025-05-26T14:48:44.432Z</time>
      </trkpt>
      <trkpt lat="48.78734" lon="-0.39282">
        <ele>193</ele>
        <time>2025-05-26T14:48:48.827Z</time>
      </trkpt>
      <trkpt lat="48.78728" lon="-0.39285">
        <ele>193.3</ele>
        <time>2025-05-26T14:48:53.222Z</time>
      </trkpt>
      <trkpt lat="48.78723" lon="-0.39287">
        <ele>193.6</ele>
        <time>2025-05-26T14:48:57.617Z</time>
      </trkpt>
      <trkpt lat="48.78717" lon="-0.3929">
        <ele>193.7</ele>
        <time>2025-05-26T14:49:02.012Z</time>
      </trkpt>
      <trkpt lat="48.78712" lon="-0.39292">
        <ele>193.9</ele>
        <time>2025-05-26T14:49:06.408Z</time>
      </trkpt>
      <trkpt lat="48.78706" lon="-0.39292">
        <ele>194.1</ele>
        <time>2025-05-26T14:49:11.192Z</time>
      </trkpt>
      <trkpt lat="48.787" lon="-0.39292">
        <ele>194.3</ele>
        <time>2025-05-26T14:49:15.976Z</time>
      </trkpt>
      <trkpt lat="48.78694" lon="-0.39291">
        <ele>194.5</ele>
        <time>2025-05-26T14:49:20.658Z</time>
      </trkpt>
      <trkpt lat="48.78688" lon="-0.3929">
        <ele>194.7</ele>
        <time>2025-05-26T14:49:25.340Z</time>
      </trkpt>
      <trkpt lat="48.78682" lon="-0.39289">
        <ele>194.9</ele>
        <time>2025-05-26T14:49:30.022Z</time>
      </trkpt>
      <trkpt lat="48.78676" lon="-0.39288">
        <ele>195.1</ele>
        <time>2025-05-26T14:49:34.704Z</time>
      </trkpt>
      <trkpt lat="48.7867" lon="-0.3929">
        <ele>195.1</ele>
        <time>2025-05-26T14:49:38.734Z</time>
      </trkpt>
      <trkpt lat="48.78664" lon="-0.39291">
        <ele>195</ele>
        <time>2025-05-26T14:49:42.764Z</time>
      </trkpt>
      <trkpt lat="48.78658" lon="-0.39293">
        <ele>194.8</ele>
        <time>2025-05-26T14:49:46.794Z</time>
      </trkpt>
      <trkpt lat="48.78652" lon="-0.39294">
        <ele>194.6</ele>
        <time>2025-05-26T14:49:50.824Z</time>
      </trkpt>
      <trkpt lat="48.78645" lon="-0.39296">
        <ele>194.4</ele>
        <time>2025-05-26T14:49:54.854Z</time>
      </trkpt>
      <trkpt lat="48.78639" lon="-0.39297">
        <ele>194.3</ele>
        <time>2025-05-26T14:49:58.884Z</time>
      </trkpt>
      <trkpt lat="48.78633" lon="-0.39299">
        <ele>194.1</ele>
        <time>2025-05-26T14:50:02.914Z</time>
      </trkpt>
      <trkpt lat="48.78627" lon="-0.393">
        <ele>193.9</ele>
        <time>2025-05-26T14:50:06.945Z</time>
      </trkpt>
      <trkpt lat="48.78622" lon="-0.393">
        <ele>193.7</ele>
        <time>2025-05-26T14:50:10.390Z</time>
      </trkpt>
      <trkpt lat="48.78616" lon="-0.393">
        <ele>193.5</ele>
        <time>2025-05-26T14:50:13.836Z</time>
      </trkpt>
      <trkpt lat="48.78615" lon="-0.39298">
        <ele>193.6</ele>
        <time>2025-05-26T14:50:15.239Z</time>
      </trkpt>
      <trkpt lat="48.78609" lon="-0.39294">
        <ele>193.8</ele>
        <time>2025-05-26T14:50:20.570Z</time>
      </trkpt>
      <trkpt lat="48.78602" lon="-0.39289">
        <ele>193.9</ele>
        <time>2025-05-26T14:50:25.902Z</time>
      </trkpt>
      <trkpt lat="48.78598" lon="-0.39287">
        <ele>193.9</ele>
        <time>2025-05-26T14:50:29.043Z</time>
      </trkpt>
      <trkpt lat="48.78593" lon="-0.39286">
        <ele>193.8</ele>
        <time>2025-05-26T14:50:32.185Z</time>
      </trkpt>
      <trkpt lat="48.78589" lon="-0.39284">
        <ele>193.8</ele>
        <time>2025-05-26T14:50:35.327Z</time>
      </trkpt>
      <trkpt lat="48.78584" lon="-0.39282">
        <ele>193.7</ele>
        <time>2025-05-26T14:50:38.470Z</time>
      </trkpt>
      <trkpt lat="48.78578" lon="-0.39281">
        <ele>194</ele>
        <time>2025-05-26T14:50:44.369Z</time>
      </trkpt>
      <trkpt lat="48.78571" lon="-0.39279">
        <ele>194.4</ele>
        <time>2025-05-26T14:50:50.268Z</time>
      </trkpt>
      <trkpt lat="48.78565" lon="-0.39278">
        <ele>194.6</ele>
        <time>2025-05-26T14:50:56.167Z</time>
      </trkpt>
      <trkpt lat="48.78559" lon="-0.39277">
        <ele>194.9</ele>
        <time>2025-05-26T14:51:02.066Z</time>
      </trkpt>
      <trkpt lat="48.78552" lon="-0.39275">
        <ele>195.3</ele>
        <time>2025-05-26T14:51:07.965Z</time>
      </trkpt>
      <trkpt lat="48.78546" lon="-0.39274">
        <ele>195.7</ele>
        <time>2025-05-26T14:51:13.865Z</time>
      </trkpt>
      <trkpt lat="48.7854" lon="-0.39272">
        <ele>196.1</ele>
        <time>2025-05-26T14:51:19.765Z</time>
      </trkpt>
      <trkpt lat="48.78534" lon="-0.39271">
        <ele>196.5</ele>
        <time>2025-05-26T14:51:25.665Z</time>
      </trkpt>
      <trkpt lat="48.78527" lon="-0.3927">
        <ele>196.9</ele>
        <time>2025-05-26T14:51:31.565Z</time>
      </trkpt>
      <trkpt lat="48.78521" lon="-0.39268">
        <ele>197.9</ele>
        <time>2025-05-26T14:51:37.465Z</time>
      </trkpt>
      <trkpt lat="48.78515" lon="-0.39267">
        <ele>198.6</ele>
        <time>2025-05-26T14:51:43.365Z</time>
      </trkpt>
      <trkpt lat="48.78508" lon="-0.39266">
        <ele>199.5</ele>
        <time>2025-05-26T14:51:49.265Z</time>
      </trkpt>
      <trkpt lat="48.78502" lon="-0.39264">
        <ele>200.3</ele>
        <time>2025-05-26T14:51:55.165Z</time>
      </trkpt>
      <trkpt lat="48.78496" lon="-0.39263">
        <ele>201</ele>
        <time>2025-05-26T14:52:01.065Z</time>
      </trkpt>
      <trkpt lat="48.78489" lon="-0.39261">
        <ele>201.8</ele>
        <time>2025-05-26T14:52:06.965Z</time>
      </trkpt>
      <trkpt lat="48.78483" lon="-0.3926">
        <ele>202.5</ele>
        <time>2025-05-26T14:52:12.866Z</time>
      </trkpt>
      <trkpt lat="48.78478" lon="-0.39259">
        <ele>203.1</ele>
        <time>2025-05-26T14:52:17.663Z</time>
      </trkpt>
      <trkpt lat="48.78474" lon="-0.39259">
        <ele>203.5</ele>
        <time>2025-05-26T14:52:22.461Z</time>
      </trkpt>
      <trkpt lat="48.78469" lon="-0.39258">
        <ele>204.1</ele>
        <time>2025-05-26T14:52:27.259Z</time>
      </trkpt>
      <trkpt lat="48.78464" lon="-0.39257">
        <ele>204.6</ele>
        <time>2025-05-26T14:52:32.057Z</time>
      </trkpt>
      <trkpt lat="48.78456" lon="-0.3926">
        <ele>205.4</ele>
        <time>2025-05-26T14:52:39.282Z</time>
      </trkpt>
      <trkpt lat="48.78449" lon="-0.39262">
        <ele>206.1</ele>
        <time>2025-05-26T14:52:46.507Z</time>
      </trkpt>
      <trkpt lat="48.78441" lon="-0.39265">
        <ele>206.7</ele>
        <time>2025-05-26T14:52:53.732Z</time>
      </trkpt>
      <trkpt lat="48.78433" lon="-0.39267">
        <ele>207.2</ele>
        <time>2025-05-26T14:53:00.958Z</time>
      </trkpt>
      <trkpt lat="48.78427" lon="-0.39262">
        <ele>207.8</ele>
        <time>2025-05-26T14:53:07.321Z</time>
      </trkpt>
      <trkpt lat="48.78421" lon="-0.39259">
        <ele>208.4</ele>
        <time>2025-05-26T14:53:13.344Z</time>
      </trkpt>
      <trkpt lat="48.78416" lon="-0.39261">
        <ele>208.7</ele>
        <time>2025-05-26T14:53:18.428Z</time>
      </trkpt>
      <trkpt lat="48.78411" lon="-0.39262">
        <ele>209.5</ele>
        <time>2025-05-26T14:53:23.512Z</time>
      </trkpt>
      <trkpt lat="48.78407" lon="-0.39265">
        <ele>210</ele>
        <time>2025-05-26T14:53:28.176Z</time>
      </trkpt>
      <trkpt lat="48.78403" lon="-0.39267">
        <ele>210.5</ele>
        <time>2025-05-26T14:53:32.841Z</time>
      </trkpt>
      <trkpt lat="48.78398" lon="-0.3927">
        <ele>211.2</ele>
        <time>2025-05-26T14:53:37.506Z</time>
      </trkpt>
      <trkpt lat="48.78394" lon="-0.39272">
        <ele>211.6</ele>
        <time>2025-05-26T14:53:42.172Z</time>
      </trkpt>
      <trkpt lat="48.78394" lon="-0.39281">
        <ele>211.1</ele>
        <time>2025-05-26T14:53:46.119Z</time>
      </trkpt>
      <trkpt lat="48.78393" lon="-0.39291">
        <ele>210.9</ele>
        <time>2025-05-26T14:53:50.066Z</time>
      </trkpt>
      <trkpt lat="48.78393" lon="-0.393">
        <ele>210.5</ele>
        <time>2025-05-26T14:53:54.013Z</time>
      </trkpt>
      <trkpt lat="48.78393" lon="-0.3931">
        <ele>210.2</ele>
        <time>2025-05-26T14:53:57.960Z</time>
      </trkpt>
      <trkpt lat="48.78392" lon="-0.39319">
        <ele>210.4</ele>
        <time>2025-05-26T14:54:01.907Z</time>
      </trkpt>
      <trkpt lat="48.78392" lon="-0.39328">
        <ele>210.3</ele>
        <time>2025-05-26T14:54:05.854Z</time>
      </trkpt>
      <trkpt lat="48.78391" lon="-0.39338">
        <ele>210.4</ele>
        <time>2025-05-26T14:54:09.801Z</time>
      </trkpt>
      <trkpt lat="48.78391" lon="-0.39347">
        <ele>210.1</ele>
        <time>2025-05-26T14:54:13.750Z</time>
      </trkpt>
      <trkpt lat="48.7839" lon="-0.39358">
        <ele>209.9</ele>
        <time>2025-05-26T14:54:18.614Z</time>
      </trkpt>
      <trkpt lat="48.78388" lon="-0.39369">
        <ele>209.8</ele>
        <time>2025-05-26T14:54:23.479Z</time>
      </trkpt>
      <trkpt lat="48.78381" lon="-0.39371">
        <ele>210.8</ele>
        <time>2025-05-26T14:54:31.463Z</time>
      </trkpt>
      <trkpt lat="48.78375" lon="-0.3937">
        <ele>211.7</ele>
        <time>2025-05-26T14:54:37.282Z</time>
      </trkpt>
      <trkpt lat="48.7837" lon="-0.39369">
        <ele>212.4</ele>
        <time>2025-05-26T14:54:43.101Z</time>
      </trkpt>
      <trkpt lat="48.78364" lon="-0.39368">
        <ele>213.3</ele>
        <time>2025-05-26T14:54:48.920Z</time>
      </trkpt>
      <trkpt lat="48.78359" lon="-0.39367">
        <ele>214</ele>
        <time>2025-05-26T14:54:54.739Z</time>
      </trkpt>
      <trkpt lat="48.78353" lon="-0.39366">
        <ele>214.7</ele>
        <time>2025-05-26T14:55:00.558Z</time>
      </trkpt>
      <trkpt lat="48.78348" lon="-0.39365">
        <ele>215.3</ele>
        <time>2025-05-26T14:55:06.377Z</time>
      </trkpt>
      <trkpt lat="48.78342" lon="-0.39364">
        <ele>216</ele>
        <time>2025-05-26T14:55:12.196Z</time>
      </trkpt>
      <trkpt lat="48.78337" lon="-0.39363">
        <ele>216.5</ele>
        <time>2025-05-26T14:55:18.015Z</time>
      </trkpt>
      <trkpt lat="48.78331" lon="-0.39362">
        <ele>217.2</ele>
        <time>2025-05-26T14:55:23.834Z</time>
      </trkpt>
      <trkpt lat="48.78325" lon="-0.39361">
        <ele>217.9</ele>
        <time>2025-05-26T14:55:29.654Z</time>
      </trkpt>
      <trkpt lat="48.7832" lon="-0.3936">
        <ele>218.4</ele>
        <time>2025-05-26T14:55:35.474Z</time>
      </trkpt>
      <trkpt lat="48.78314" lon="-0.39359">
        <ele>219.1</ele>
        <time>2025-05-26T14:55:41.294Z</time>
      </trkpt>
      <trkpt lat="48.78309" lon="-0.39358">
        <ele>219.6</ele>
        <time>2025-05-26T14:55:47.114Z</time>
      </trkpt>
      <trkpt lat="48.78303" lon="-0.39357">
        <ele>220.3</ele>
        <time>2025-05-26T14:55:52.934Z</time>
      </trkpt>
      <trkpt lat="48.78298" lon="-0.39356">
        <ele>220.8</ele>
        <time>2025-05-26T14:55:58.754Z</time>
      </trkpt>
      <trkpt lat="48.78292" lon="-0.39355">
        <ele>221.5</ele>
        <time>2025-05-26T14:56:04.575Z</time>
      </trkpt>
      <trkpt lat="48.78285" lon="-0.39354">
        <ele>222.2</ele>
        <time>2025-05-26T14:56:11.024Z</time>
      </trkpt>
      <trkpt lat="48.78278" lon="-0.39354">
        <ele>223</ele>
        <time>2025-05-26T14:56:17.473Z</time>
      </trkpt>
      <trkpt lat="48.78271" lon="-0.39353">
        <ele>223.6</ele>
        <time>2025-05-26T14:56:23.922Z</time>
      </trkpt>
      <trkpt lat="48.78264" lon="-0.39353">
        <ele>224.1</ele>
        <time>2025-05-26T14:56:30.371Z</time>
      </trkpt>
      <trkpt lat="48.78257" lon="-0.39352">
        <ele>224.7</ele>
        <time>2025-05-26T14:56:36.820Z</time>
      </trkpt>
      <trkpt lat="48.7825" lon="-0.39352">
        <ele>225.3</ele>
        <time>2025-05-26T14:56:43.270Z</time>
      </trkpt>
      <trkpt lat="48.78243" lon="-0.39351">
        <ele>226.1</ele>
        <time>2025-05-26T14:56:49.720Z</time>
      </trkpt>
      <trkpt lat="48.78237" lon="-0.39351">
        <ele>226.8</ele>
        <time>2025-05-26T14:56:56.170Z</time>
      </trkpt>
      <trkpt lat="48.7823" lon="-0.3935">
        <ele>227.6</ele>
        <time>2025-05-26T14:57:02.620Z</time>
      </trkpt>
      <trkpt lat="48.78223" lon="-0.39349">
        <ele>228.4</ele>
        <time>2025-05-26T14:57:09.070Z</time>
      </trkpt>
      <trkpt lat="48.78216" lon="-0.39349">
        <ele>228.9</ele>
        <time>2025-05-26T14:57:15.520Z</time>
      </trkpt>
      <trkpt lat="48.78209" lon="-0.39348">
        <ele>229.4</ele>
        <time>2025-05-26T14:57:21.970Z</time>
      </trkpt>
      <trkpt lat="48.78202" lon="-0.39348">
        <ele>229.9</ele>
        <time>2025-05-26T14:57:28.420Z</time>
      </trkpt>
      <trkpt lat="48.78195" lon="-0.39347">
        <ele>230.5</ele>
        <time>2025-05-26T14:57:34.870Z</time>
      </trkpt>
      <trkpt lat="48.78188" lon="-0.39347">
        <ele>230.9</ele>
        <time>2025-05-26T14:57:41.320Z</time>
      </trkpt>
      <trkpt lat="48.78181" lon="-0.39346">
        <ele>231.2</ele>
        <time>2025-05-26T14:57:47.771Z</time>
      </trkpt>
      <trkpt lat="48.78177" lon="-0.39341">
        <ele>231.5</ele>
        <time>2025-05-26T14:57:52.400Z</time>
      </trkpt>
      <trkpt lat="48.78173" lon="-0.39336">
        <ele>231.8</ele>
        <time>2025-05-26T14:57:57.029Z</time>
      </trkpt>
      <trkpt lat="48.78168" lon="-0.3933">
        <ele>232.1</ele>
        <time>2025-05-26T14:58:01.658Z</time>
      </trkpt>
      <trkpt lat="48.78164" lon="-0.39325">
        <ele>232.5</ele>
        <time>2025-05-26T14:58:06.289Z</time>
      </trkpt>
      <trkpt lat="48.78158" lon="-0.39324">
        <ele>233</ele>
        <time>2025-05-26T14:58:11.645Z</time>
      </trkpt>
      <trkpt lat="48.78152" lon="-0.39324">
        <ele>233.4</ele>
        <time>2025-05-26T14:58:17.001Z</time>
      </trkpt>
      <trkpt lat="48.78146" lon="-0.39323">
        <ele>233.9</ele>
        <time>2025-05-26T14:58:22.357Z</time>
      </trkpt>
      <trkpt lat="48.7814" lon="-0.39322">
        <ele>234.3</ele>
        <time>2025-05-26T14:58:27.713Z</time>
      </trkpt>
      <trkpt lat="48.78137" lon="-0.39329">
        <ele>234.2</ele>
        <time>2025-05-26T14:58:31.161Z</time>
      </trkpt>
      <trkpt lat="48.78134" lon="-0.39335">
        <ele>234.1</ele>
        <time>2025-05-26T14:58:34.610Z</time>
      </trkpt>
      <trkpt lat="48.78126" lon="-0.39339">
        <ele>234.3</ele>
        <time>2025-05-26T14:58:41.223Z</time>
      </trkpt>
      <trkpt lat="48.78122" lon="-0.39341">
        <ele>234.3</ele>
      </trkpt>
      <trkpt lat="48.78117" lon="-0.39343">
        <ele>234.4</ele>
        <time>2025-05-26T14:58:47.836Z</time>
      </trkpt>
      <trkpt lat="48.78109" lon="-0.39347">
        <ele>234.6</ele>
        <time>2025-05-26T14:58:54.449Z</time>
      </trkpt>
      <trkpt lat="48.78105" lon="-0.39349">
        <ele>234.7</ele>
      </trkpt>
      <trkpt lat="48.781" lon="-0.39351">
        <ele>234.8</ele>
        <time>2025-05-26T14:59:01.064Z</time>
      </trkpt>
      <trkpt lat="48.78093" lon="-0.39347">
        <ele>235.2</ele>
        <time>2025-05-26T14:59:07.239Z</time>
      </trkpt>
      <trkpt lat="48.78086" lon="-0.39344">
        <ele>235.5</ele>
        <time>2025-05-26T14:59:13.414Z</time>
      </trkpt>
      <trkpt lat="48.78079" lon="-0.3934">
        <ele>236</ele>
        <time>2025-05-26T14:59:19.589Z</time>
      </trkpt>
      <trkpt lat="48.78072" lon="-0.39337">
        <ele>236.3</ele>
        <time>2025-05-26T14:59:25.765Z</time>
      </trkpt>
      <trkpt lat="48.78065" lon="-0.39333">
        <ele>236.7</ele>
        <time>2025-05-26T14:59:31.941Z</time>
      </trkpt>
      <trkpt lat="48.78058" lon="-0.39329">
        <ele>237.1</ele>
        <time>2025-05-26T14:59:38.117Z</time>
      </trkpt>
      <trkpt lat="48.78051" lon="-0.39326">
        <ele>237.5</ele>
        <time>2025-05-26T14:59:44.293Z</time>
      </trkpt>
      <trkpt lat="48.78044" lon="-0.39322">
        <ele>238.1</ele>
        <time>2025-05-26T14:59:50.470Z</time>
        <extensions>
          <visugpx:TrkExtension xmlns:visugpx="https://www.visugpx.com/editgpx/">
            <visugpx:node>9</visugpx:node>
            </visugpx:TrkExtension>
        </extensions>
      </trkpt>
      <trkpt lat="48.78038" lon="-0.39319">
        <ele>238.5</ele>
        <time>2025-05-26T14:59:55.879Z</time>
      </trkpt>
      <trkpt lat="48.78033" lon="-0.39316">
        <ele>238.7</ele>
        <time>2025-05-26T15:00:00.456Z</time>
      </trkpt>
      <trkpt lat="48.78028" lon="-0.39312">
        <ele>239</ele>
        <time>2025-05-26T15:00:05.034Z</time>
      </trkpt>
      <trkpt lat="48.78023" lon="-0.39309">
        <ele>239.3</ele>
        <time>2025-05-26T15:00:09.612Z</time>
      </trkpt>
      <trkpt lat="48.78018" lon="-0.39305">
        <ele>239.7</ele>
        <time>2025-05-26T15:00:14.191Z</time>
      </trkpt>
      <trkpt lat="48.78018" lon="-0.39304">
        <ele>239.7</ele>
        <time>2025-05-26T15:00:14.652Z</time>
        <extensions>
          <visugpx:TrkExtension xmlns:visugpx="https://www.visugpx.com/editgpx/">
            <visugpx:node>10</visugpx:node>
            </visugpx:TrkExtension>
        </extensions>
      </trkpt>
      <trkpt lat="48.78018" lon="-0.39305">
        <ele>239.7</ele>
        <time>2025-05-26T15:00:15.113Z</time>
        <extensions>
          <visugpx:TrkExtension xmlns:visugpx="https://www.visugpx.com/editgpx/">
            <visugpx:node>11</visugpx:node>
            </visugpx:TrkExtension>
        </extensions>
      </trkpt>
      <trkpt lat="48.78017" lon="-0.39314">
        <ele>239.8</ele>
        <time>2025-05-26T15:00:19.290Z</time>
      </trkpt>
      <trkpt lat="48.78016" lon="-0.39322">
        <ele>239.8</ele>
        <time>2025-05-26T15:00:23.467Z</time>
      </trkpt>
      <trkpt lat="48.78014" lon="-0.39331">
        <ele>240</ele>
        <time>2025-05-26T15:00:27.644Z</time>
      </trkpt>
      <trkpt lat="48.78013" lon="-0.39339">
        <ele>240.1</ele>
        <time>2025-05-26T15:00:31.822Z</time>
      </trkpt>
      <trkpt lat="48.78013" lon="-0.39346">
        <ele>240.1</ele>
        <time>2025-05-26T15:00:34.945Z</time>
      </trkpt>
      <trkpt lat="48.78014" lon="-0.39353">
        <ele>240</ele>
        <time>2025-05-26T15:00:38.069Z</time>
      </trkpt>
      <trkpt lat="48.78014" lon="-0.3936">
        <ele>240</ele>
        <time>2025-05-26T15:00:41.193Z</time>
      </trkpt>
      <trkpt lat="48.78014" lon="-0.39367">
        <ele>239.8</ele>
        <time>2025-05-26T15:00:44.317Z</time>
      </trkpt>
      <trkpt lat="48.78011" lon="-0.39375">
        <ele>239.7</ele>
        <time>2025-05-26T15:00:48.252Z</time>
      </trkpt>
      <trkpt lat="48.78008" lon="-0.39382">
        <ele>239.7</ele>
        <time>2025-05-26T15:00:52.188Z</time>
      </trkpt>
      <trkpt lat="48.78004" lon="-0.39386">
        <ele>239.8</ele>
        <time>2025-05-26T15:00:56.486Z</time>
      </trkpt>
      <trkpt lat="48.77999" lon="-0.39389">
        <ele>240.1</ele>
        <time>2025-05-26T15:01:00.784Z</time>
      </trkpt>
      <trkpt lat="48.77995" lon="-0.39393">
        <ele>240.5</ele>
        <time>2025-05-26T15:01:05.083Z</time>
      </trkpt>
      <trkpt lat="48.77991" lon="-0.39396">
        <ele>240.9</ele>
        <time>2025-05-26T15:01:09.382Z</time>
      </trkpt>
      <trkpt lat="48.77986" lon="-0.394">
        <ele>241.3</ele>
        <time>2025-05-26T15:01:13.681Z</time>
      </trkpt>
      <trkpt lat="48.77982" lon="-0.39403">
        <ele>241.6</ele>
        <time>2025-05-26T15:01:17.980Z</time>
      </trkpt>
      <trkpt lat="48.77978" lon="-0.39407">
        <ele>241.9</ele>
        <time>2025-05-26T15:01:22.279Z</time>
      </trkpt>
      <trkpt lat="48.77974" lon="-0.39411">
        <ele>242.1</ele>
        <time>2025-05-26T15:01:26.578Z</time>
      </trkpt>
      <trkpt lat="48.77969" lon="-0.39414">
        <ele>242.4</ele>
        <time>2025-05-26T15:01:30.877Z</time>
      </trkpt>
      <trkpt lat="48.77965" lon="-0.39418">
        <ele>242.8</ele>
        <time>2025-05-26T15:01:35.176Z</time>
      </trkpt>
      <trkpt lat="48.77961" lon="-0.39421">
        <ele>243.2</ele>
        <time>2025-05-26T15:01:39.475Z</time>
      </trkpt>
      <trkpt lat="48.77956" lon="-0.39425">
        <ele>243.8</ele>
        <time>2025-05-26T15:01:43.774Z</time>
      </trkpt>
      <trkpt lat="48.77952" lon="-0.39428">
        <ele>244.2</ele>
        <time>2025-05-26T15:01:48.073Z</time>
      </trkpt>
      <trkpt lat="48.77948" lon="-0.39432">
        <ele>244.6</ele>
        <time>2025-05-26T15:01:52.372Z</time>
      </trkpt>
      <trkpt lat="48.77943" lon="-0.39435">
        <ele>245.1</ele>
        <time>2025-05-26T15:01:56.671Z</time>
      </trkpt>
      <trkpt lat="48.77939" lon="-0.39439">
        <ele>245.2</ele>
        <time>2025-05-26T15:02:00.971Z</time>
      </trkpt>
      <trkpt lat="48.77934" lon="-0.39448">
        <ele>245.3</ele>
        <time>2025-05-26T15:02:05.998Z</time>
      </trkpt>
      <trkpt lat="48.7793" lon="-0.39456">
        <ele>245.3</ele>
        <time>2025-05-26T15:02:11.025Z</time>
      </trkpt>
      <trkpt lat="48.77925" lon="-0.39465">
        <ele>245.2</ele>
        <time>2025-05-26T15:02:16.052Z</time>
      </trkpt>
      <trkpt lat="48.7792" lon="-0.39473">
        <ele>245</ele>
        <time>2025-05-26T15:02:21.080Z</time>
      </trkpt>
      <trkpt lat="48.77915" lon="-0.39474">
        <ele>245.1</ele>
        <time>2025-05-26T15:02:25.077Z</time>
      </trkpt>
      <trkpt lat="48.7791" lon="-0.39476">
        <ele>245.2</ele>
        <time>2025-05-26T15:02:29.074Z</time>
      </trkpt>
      <trkpt lat="48.77904" lon="-0.39477">
        <ele>245.5</ele>
        <time>2025-05-26T15:02:33.071Z</time>
      </trkpt>
      <trkpt lat="48.77899" lon="-0.39478">
        <ele>245.6</ele>
        <time>2025-05-26T15:02:37.069Z</time>
      </trkpt>
      <trkpt lat="48.77894" lon="-0.39479">
        <ele>245.8</ele>
        <time>2025-05-26T15:02:41.067Z</time>
      </trkpt>
      <trkpt lat="48.77889" lon="-0.39481">
        <ele>246</ele>
        <time>2025-05-26T15:02:45.065Z</time>
      </trkpt>
      <trkpt lat="48.77883" lon="-0.39482">
        <ele>246</ele>
        <time>2025-05-26T15:02:49.063Z</time>
      </trkpt>
      <trkpt lat="48.77878" lon="-0.39483">
        <ele>246</ele>
        <time>2025-05-26T15:02:53.062Z</time>
      </trkpt>
      <trkpt lat="48.77872" lon="-0.3949">
        <ele>246</ele>
        <time>2025-05-26T15:02:58.214Z</time>
      </trkpt>
      <trkpt lat="48.77866" lon="-0.39496">
        <ele>246</ele>
        <time>2025-05-26T15:03:03.368Z</time>
      </trkpt>
      <trkpt lat="48.77865" lon="-0.39508">
        <ele>246</ele>
        <time>2025-05-26T15:03:09.034Z</time>
      </trkpt>
      <trkpt lat="48.77865" lon="-0.39521">
        <ele>246</ele>
        <time>2025-05-26T15:03:14.700Z</time>
      </trkpt>
      <trkpt lat="48.77864" lon="-0.39533">
        <ele>246</ele>
        <time>2025-05-26T15:03:20.366Z</time>
      </trkpt>
      <trkpt lat="48.77863" lon="-0.39545">
        <ele>246</ele>
        <time>2025-05-26T15:03:26.034Z</time>
      </trkpt>
      <trkpt lat="48.77861" lon="-0.39552">
        <ele>246</ele>
        <time>2025-05-26T15:03:29.867Z</time>
      </trkpt>
      <trkpt lat="48.77858" lon="-0.39559">
        <ele>246.1</ele>
        <time>2025-05-26T15:03:33.701Z</time>
      </trkpt>
      <trkpt lat="48.77856" lon="-0.39566">
        <ele>246.2</ele>
        <time>2025-05-26T15:03:37.535Z</time>
      </trkpt>
      <trkpt lat="48.77853" lon="-0.39573">
        <ele>246.3</ele>
        <time>2025-05-26T15:03:41.370Z</time>
      </trkpt>
      <trkpt lat="48.77849" lon="-0.3958">
        <ele>246.4</ele>
        <time>2025-05-26T15:03:45.854Z</time>
      </trkpt>
      <trkpt lat="48.77846" lon="-0.39588">
        <ele>246.6</ele>
        <time>2025-05-26T15:03:50.338Z</time>
      </trkpt>
      <trkpt lat="48.77842" lon="-0.39595">
        <ele>246.8</ele>
        <time>2025-05-26T15:03:54.823Z</time>
      </trkpt>
      <trkpt lat="48.77838" lon="-0.39603">
        <ele>247</ele>
        <time>2025-05-26T15:03:59.308Z</time>
      </trkpt>
      <trkpt lat="48.77834" lon="-0.3961">
        <ele>247</ele>
        <time>2025-05-26T15:04:03.793Z</time>
      </trkpt>
      <trkpt lat="48.77831" lon="-0.39617">
        <ele>247</ele>
        <time>2025-05-26T15:04:08.278Z</time>
      </trkpt>
      <trkpt lat="48.77827" lon="-0.39625">
        <ele>247</ele>
        <time>2025-05-26T15:04:12.763Z</time>
      </trkpt>
      <trkpt lat="48.77823" lon="-0.39632">
        <ele>247</ele>
        <time>2025-05-26T15:04:17.249Z</time>
      </trkpt>
      <trkpt lat="48.77823" lon="-0.39639">
        <ele>247</ele>
        <time>2025-05-26T15:04:20.794Z</time>
      </trkpt>
      <trkpt lat="48.77822" lon="-0.39647">
        <ele>247</ele>
        <time>2025-05-26T15:04:24.339Z</time>
      </trkpt>
      <trkpt lat="48.77822" lon="-0.39654">
        <ele>247</ele>
        <time>2025-05-26T15:04:27.884Z</time>
      </trkpt>
      <trkpt lat="48.77822" lon="-0.39662">
        <ele>247</ele>
        <time>2025-05-26T15:04:31.429Z</time>
      </trkpt>
      <trkpt lat="48.77821" lon="-0.39669">
        <ele>247.1</ele>
        <time>2025-05-26T15:04:34.974Z</time>
      </trkpt>
      <trkpt lat="48.77821" lon="-0.39676">
        <ele>247.3</ele>
        <time>2025-05-26T15:04:38.519Z</time>
      </trkpt>
      <trkpt lat="48.7782" lon="-0.39684">
        <ele>247.6</ele>
        <time>2025-05-26T15:04:42.064Z</time>
      </trkpt>
      <trkpt lat="48.7782" lon="-0.39691">
        <ele>247.9</ele>
        <time>2025-05-26T15:04:45.609Z</time>
      </trkpt>
      <trkpt lat="48.7782" lon="-0.39698">
        <ele>248</ele>
        <time>2025-05-26T15:04:49.154Z</time>
      </trkpt>
      <trkpt lat="48.77819" lon="-0.39706">
        <ele>248</ele>
        <time>2025-05-26T15:04:52.699Z</time>
      </trkpt>
      <trkpt lat="48.77819" lon="-0.39713">
        <ele>248</ele>
        <time>2025-05-26T15:04:56.244Z</time>
      </trkpt>
      <trkpt lat="48.77819" lon="-0.39721">
        <ele>248</ele>
        <time>2025-05-26T15:04:59.790Z</time>
      </trkpt>
      <trkpt lat="48.77818" lon="-0.39728">
        <ele>248</ele>
        <time>2025-05-26T15:05:03.336Z</time>
      </trkpt>
      <trkpt lat="48.77818" lon="-0.39735">
        <ele>248</ele>
        <time>2025-05-26T15:05:06.882Z</time>
      </trkpt>
      <trkpt lat="48.77817" lon="-0.39743">
        <ele>248</ele>
        <time>2025-05-26T15:05:10.428Z</time>
      </trkpt>
      <trkpt lat="48.77817" lon="-0.3975">
        <ele>248</ele>
        <time>2025-05-26T15:05:13.975Z</time>
      </trkpt>
      <trkpt lat="48.77815" lon="-0.39758">
        <ele>248</ele>
        <time>2025-05-26T15:05:17.966Z</time>
      </trkpt>
      <trkpt lat="48.77814" lon="-0.39767">
        <ele>248</ele>
        <time>2025-05-26T15:05:21.958Z</time>
      </trkpt>
      <trkpt lat="48.77812" lon="-0.39775">
        <ele>248</ele>
        <time>2025-05-26T15:05:25.950Z</time>
      </trkpt>
      <trkpt lat="48.7781" lon="-0.39783">
        <ele>248</ele>
        <time>2025-05-26T15:05:29.943Z</time>
      </trkpt>
      <trkpt lat="48.7781" lon="-0.39791">
        <ele>248</ele>
        <time>2025-05-26T15:05:33.401Z</time>
      </trkpt>
      <trkpt lat="48.7781" lon="-0.39798">
        <ele>248</ele>
        <time>2025-05-26T15:05:36.860Z</time>
      </trkpt>
      <trkpt lat="48.77809" lon="-0.39806">
        <ele>248</ele>
        <time>2025-05-26T15:05:40.319Z</time>
      </trkpt>
      <trkpt lat="48.77809" lon="-0.39813">
        <ele>248</ele>
        <time>2025-05-26T15:05:43.779Z</time>
      </trkpt>
      <trkpt lat="48.77811" lon="-0.39822">
        <ele>248</ele>
        <time>2025-05-26T15:05:48.106Z</time>
      </trkpt>
      <trkpt lat="48.77813" lon="-0.39832">
        <ele>248</ele>
        <time>2025-05-26T15:05:52.433Z</time>
      </trkpt>
      <trkpt lat="48.77814" lon="-0.39841">
        <ele>247.9</ele>
        <time>2025-05-26T15:05:56.760Z</time>
      </trkpt>
      <trkpt lat="48.77816" lon="-0.3985">
        <ele>247.8</ele>
        <time>2025-05-26T15:06:01.087Z</time>
      </trkpt>
      <trkpt lat="48.77821" lon="-0.39855">
        <ele>247.6</ele>
        <time>2025-05-26T15:06:04.498Z</time>
      </trkpt>
      <trkpt lat="48.77825" lon="-0.3986">
        <ele>247.3</ele>
        <time>2025-05-26T15:06:07.909Z</time>
      </trkpt>
      <trkpt lat="48.77829" lon="-0.39869">
        <ele>247.1</ele>
        <time>2025-05-26T15:06:12.721Z</time>
      </trkpt>
      <trkpt lat="48.77833" lon="-0.39879">
        <ele>247</ele>
        <time>2025-05-26T15:06:17.533Z</time>
      </trkpt>
      <trkpt lat="48.77837" lon="-0.39888">
        <ele>246.9</ele>
        <time>2025-05-26T15:06:22.345Z</time>
      </trkpt>
      <trkpt lat="48.77841" lon="-0.39897">
        <ele>246.7</ele>
        <time>2025-05-26T15:06:27.157Z</time>
      </trkpt>
      <trkpt lat="48.77845" lon="-0.39906">
        <ele>246.6</ele>
        <time>2025-05-26T15:06:31.969Z</time>
      </trkpt>
      <trkpt lat="48.77849" lon="-0.39916">
        <ele>246.4</ele>
        <time>2025-05-26T15:06:36.781Z</time>
      </trkpt>
      <trkpt lat="48.77853" lon="-0.39925">
        <ele>246.3</ele>
        <time>2025-05-26T15:06:41.593Z</time>
      </trkpt>
      <trkpt lat="48.77857" lon="-0.39934">
        <ele>246.1</ele>
        <time>2025-05-26T15:06:46.405Z</time>
      </trkpt>
      <trkpt lat="48.77862" lon="-0.39943">
        <ele>245.9</ele>
        <time>2025-05-26T15:06:51.131Z</time>
      </trkpt>
      <trkpt lat="48.77867" lon="-0.39953">
        <ele>245.3</ele>
        <time>2025-05-26T15:06:55.857Z</time>
      </trkpt>
      <trkpt lat="48.77871" lon="-0.39962">
        <ele>244.7</ele>
        <time>2025-05-26T15:07:00.583Z</time>
      </trkpt>
      <trkpt lat="48.77876" lon="-0.39971">
        <ele>244</ele>
        <time>2025-05-26T15:07:05.310Z</time>
      </trkpt>
      <trkpt lat="48.7788" lon="-0.39979">
        <ele>243.6</ele>
        <time>2025-05-26T15:07:09.180Z</time>
      </trkpt>
      <trkpt lat="48.77883" lon="-0.39987">
        <ele>243.4</ele>
        <time>2025-05-26T15:07:13.050Z</time>
      </trkpt>
      <trkpt lat="48.77886" lon="-0.39993">
        <ele>243.2</ele>
        <time>2025-05-26T15:07:15.826Z</time>
      </trkpt>
      <trkpt lat="48.77888" lon="-0.39999">
        <ele>243.1</ele>
        <time>2025-05-26T15:07:18.602Z</time>
      </trkpt>
      <trkpt lat="48.77891" lon="-0.40004">
        <ele>242.6</ele>
        <time>2025-05-26T15:07:21.379Z</time>
      </trkpt>
      <trkpt lat="48.77893" lon="-0.4001">
        <ele>242.2</ele>
        <time>2025-05-26T15:07:24.156Z</time>
      </trkpt>
      <trkpt lat="48.77897" lon="-0.40019">
        <ele>241.4</ele>
        <time>2025-05-26T15:07:28.367Z</time>
      </trkpt>
      <trkpt lat="48.779" lon="-0.40028">
        <ele>240.8</ele>
        <time>2025-05-26T15:07:32.579Z</time>
      </trkpt>
      <trkpt lat="48.77903" lon="-0.40033">
        <ele>240.2</ele>
        <time>2025-05-26T15:07:35.369Z</time>
      </trkpt>
      <trkpt lat="48.77906" lon="-0.40039">
        <ele>239.6</ele>
        <time>2025-05-26T15:07:38.159Z</time>
      </trkpt>
      <trkpt lat="48.77909" lon="-0.40044">
        <ele>239.1</ele>
        <time>2025-05-26T15:07:40.949Z</time>
      </trkpt>
      <trkpt lat="48.77912" lon="-0.4005">
        <ele>238.6</ele>
        <time>2025-05-26T15:07:43.739Z</time>
      </trkpt>
      <trkpt lat="48.77914" lon="-0.40055">
        <ele>238.2</ele>
        <time>2025-05-26T15:07:46.529Z</time>
      </trkpt>
      <trkpt lat="48.77917" lon="-0.4006">
        <ele>237.8</ele>
        <time>2025-05-26T15:07:49.319Z</time>
      </trkpt>
      <trkpt lat="48.7792" lon="-0.40066">
        <ele>237.4</ele>
        <time>2025-05-26T15:07:52.109Z</time>
      </trkpt>
      <trkpt lat="48.77923" lon="-0.40071">
        <ele>237</ele>
        <time>2025-05-26T15:07:54.900Z</time>
      </trkpt>
      <trkpt lat="48.77922" lon="-0.40084">
        <ele>236.6</ele>
        <time>2025-05-26T15:08:00.010Z</time>
      </trkpt>
      <trkpt lat="48.77921" lon="-0.40096">
        <ele>236.3</ele>
        <time>2025-05-26T15:08:05.121Z</time>
      </trkpt>
      <trkpt lat="48.77917" lon="-0.40103">
        <ele>236.3</ele>
        <time>2025-05-26T15:08:09.847Z</time>
      </trkpt>
      <trkpt lat="48.77912" lon="-0.4011">
        <ele>236.4</ele>
        <time>2025-05-26T15:08:14.574Z</time>
      </trkpt>
      <trkpt lat="48.77908" lon="-0.40117">
        <ele>236.6</ele>
        <time>2025-05-26T15:08:19.301Z</time>
      </trkpt>
      <trkpt lat="48.77903" lon="-0.40124">
        <ele>236.8</ele>
        <time>2025-05-26T15:08:24.029Z</time>
      </trkpt>
      <trkpt lat="48.77903" lon="-0.40137">
        <ele>236.5</ele>
        <time>2025-05-26T15:08:29.444Z</time>
      </trkpt>
      <trkpt lat="48.77903" lon="-0.4015">
        <ele>236.3</ele>
        <time>2025-05-26T15:08:34.859Z</time>
      </trkpt>
      <trkpt lat="48.77903" lon="-0.40162">
        <ele>236.1</ele>
        <time>2025-05-26T15:08:40.274Z</time>
      </trkpt>
      <trkpt lat="48.77903" lon="-0.40175">
        <ele>235.8</ele>
        <time>2025-05-26T15:08:45.689Z</time>
      </trkpt>
      <trkpt lat="48.77903" lon="-0.40188">
        <ele>235.6</ele>
        <time>2025-05-26T15:08:51.104Z</time>
      </trkpt>
      <trkpt lat="48.77903" lon="-0.40201">
        <ele>235.4</ele>
        <time>2025-05-26T15:08:56.519Z</time>
      </trkpt>
      <trkpt lat="48.77903" lon="-0.40213">
        <ele>235.2</ele>
        <time>2025-05-26T15:09:01.935Z</time>
      </trkpt>
      <trkpt lat="48.77903" lon="-0.40226">
        <ele>234.9</ele>
        <time>2025-05-26T15:09:07.351Z</time>
      </trkpt>
      <trkpt lat="48.77902" lon="-0.40235">
        <ele>234.8</ele>
        <time>2025-05-26T15:09:11.313Z</time>
      </trkpt>
      <trkpt lat="48.77901" lon="-0.40245">
        <ele>234.7</ele>
        <time>2025-05-26T15:09:15.276Z</time>
      </trkpt>
      <trkpt lat="48.779" lon="-0.40254">
        <ele>234.5</ele>
        <time>2025-05-26T15:09:19.239Z</time>
      </trkpt>
      <trkpt lat="48.77899" lon="-0.40263">
        <ele>234.2</ele>
        <time>2025-05-26T15:09:23.203Z</time>
      </trkpt>
      <trkpt lat="48.77894" lon="-0.40266">
        <ele>234.2</ele>
        <time>2025-05-26T15:09:27.106Z</time>
      </trkpt>
      <trkpt lat="48.77889" lon="-0.40268">
        <ele>234.3</ele>
        <time>2025-05-26T15:09:31.011Z</time>
      </trkpt>
      <trkpt lat="48.77882" lon="-0.40264">
        <ele>234.7</ele>
        <time>2025-05-26T15:09:37.074Z</time>
      </trkpt>
      <trkpt lat="48.77875" lon="-0.4026">
        <ele>235.1</ele>
        <time>2025-05-26T15:09:43.139Z</time>
      </trkpt>
      <trkpt lat="48.7787" lon="-0.40257">
        <ele>235.4</ele>
        <time>2025-05-26T15:09:47.563Z</time>
      </trkpt>
      <trkpt lat="48.77866" lon="-0.40253">
        <ele>235.7</ele>
        <time>2025-05-26T15:09:51.987Z</time>
      </trkpt>
      <trkpt lat="48.77861" lon="-0.4025">
        <ele>236</ele>
        <time>2025-05-26T15:09:56.411Z</time>
      </trkpt>
      <trkpt lat="48.77856" lon="-0.40246">
        <ele>236.3</ele>
        <time>2025-05-26T15:10:00.836Z</time>
        <extensions>
          <visugpx:TrkExtension xmlns:visugpx="https://www.visugpx.com/editgpx/">
            <visugpx:node>12</visugpx:node>
            </visugpx:TrkExtension>
        </extensions>
      </trkpt>
      <trkpt lat="48.77851" lon="-0.40246">
        <ele>236.5</ele>
        <time>2025-05-26T15:10:04.808Z</time>
      </trkpt>
      <trkpt lat="48.77846" lon="-0.40245">
        <ele>236.7</ele>
        <time>2025-05-26T15:10:08.781Z</time>
      </trkpt>
      <trkpt lat="48.77841" lon="-0.40246">
        <ele>236.9</ele>
        <time>2025-05-26T15:10:13.098Z</time>
      </trkpt>
      <trkpt lat="48.77835" lon="-0.40246">
        <ele>237.1</ele>
        <time>2025-05-26T15:10:17.416Z</time>
      </trkpt>
      <trkpt lat="48.77829" lon="-0.40247">
        <ele>237.3</ele>
        <time>2025-05-26T15:10:21.844Z</time>
      </trkpt>
      <trkpt lat="48.77824" lon="-0.40247">
        <ele>237.4</ele>
        <time>2025-05-26T15:10:26.272Z</time>
      </trkpt>
      <trkpt lat="48.77818" lon="-0.40248">
        <ele>237.6</ele>
        <time>2025-05-26T15:10:30.701Z</time>
      </trkpt>
      <trkpt lat="48.77812" lon="-0.40248">
        <ele>237.8</ele>
        <time>2025-05-26T15:10:35.130Z</time>
      </trkpt>
      <trkpt lat="48.77805" lon="-0.4025">
        <ele>238</ele>
        <time>2025-05-26T15:10:40.996Z</time>
      </trkpt>
      <trkpt lat="48.77797" lon="-0.40251">
        <ele>238.3</ele>
        <time>2025-05-26T15:10:46.863Z</time>
      </trkpt>
      <trkpt lat="48.7779" lon="-0.40255">
        <ele>238.4</ele>
        <time>2025-05-26T15:10:52.736Z</time>
      </trkpt>
      <trkpt lat="48.77782" lon="-0.4026">
        <ele>238.5</ele>
        <time>2025-05-26T15:10:58.610Z</time>
      </trkpt>
      <trkpt lat="48.77775" lon="-0.40264">
        <ele>238.6</ele>
        <time>2025-05-26T15:11:04.484Z</time>
      </trkpt>
      <trkpt lat="48.77767" lon="-0.40268">
        <ele>238.7</ele>
        <time>2025-05-26T15:11:10.359Z</time>
      </trkpt>
      <trkpt lat="48.7776" lon="-0.40267">
        <ele>239</ele>
        <time>2025-05-26T15:11:16.010Z</time>
      </trkpt>
      <trkpt lat="48.77753" lon="-0.40265">
        <ele>239.4</ele>
        <time>2025-05-26T15:11:21.661Z</time>
      </trkpt>
      <trkpt lat="48.77747" lon="-0.40264">
        <ele>239.5</ele>
        <time>2025-05-26T15:11:25.989Z</time>
      </trkpt>
      <trkpt lat="48.77741" lon="-0.40263">
        <ele>239.5</ele>
        <time>2025-05-26T15:11:30.317Z</time>
      </trkpt>
      <trkpt lat="48.77735" lon="-0.40262">
        <ele>239.6</ele>
        <time>2025-05-26T15:11:34.646Z</time>
      </trkpt>
      <trkpt lat="48.77729" lon="-0.40261">
        <ele>239.6</ele>
        <time>2025-05-26T15:11:38.975Z</time>
      </trkpt>
      <trkpt lat="48.77724" lon="-0.4026">
        <ele>239.6</ele>
        <time>2025-05-26T15:11:42.933Z</time>
      </trkpt>
      <trkpt lat="48.77718" lon="-0.40259">
        <ele>239.7</ele>
        <time>2025-05-26T15:11:46.892Z</time>
      </trkpt>
      <trkpt lat="48.77713" lon="-0.40258">
        <ele>239.7</ele>
        <time>2025-05-26T15:11:50.851Z</time>
      </trkpt>
      <trkpt lat="48.77708" lon="-0.40257">
        <ele>239.7</ele>
        <time>2025-05-26T15:11:54.810Z</time>
      </trkpt>
      <trkpt lat="48.77702" lon="-0.40255">
        <ele>239.8</ele>
        <time>2025-05-26T15:11:58.769Z</time>
      </trkpt>
      <trkpt lat="48.77697" lon="-0.40254">
        <ele>239.9</ele>
        <time>2025-05-26T15:12:02.728Z</time>
      </trkpt>
      <trkpt lat="48.77691" lon="-0.40253">
        <ele>240</ele>
        <time>2025-05-26T15:12:06.687Z</time>
      </trkpt>
      <trkpt lat="48.77686" lon="-0.40252">
        <ele>240.2</ele>
        <time>2025-05-26T15:12:10.647Z</time>
      </trkpt>
      <trkpt lat="48.7768" lon="-0.40251">
        <ele>240.5</ele>
        <time>2025-05-26T15:12:15.736Z</time>
      </trkpt>
      <trkpt lat="48.77673" lon="-0.4025">
        <ele>240.8</ele>
        <time>2025-05-26T15:12:20.825Z</time>
      </trkpt>
      <trkpt lat="48.77667" lon="-0.40249">
        <ele>241</ele>
        <time>2025-05-26T15:12:25.914Z</time>
      </trkpt>
      <trkpt lat="48.7766" lon="-0.40248">
        <ele>241.1</ele>
        <time>2025-05-26T15:12:31.003Z</time>
      </trkpt>
      <trkpt lat="48.77654" lon="-0.40246">
        <ele>241.1</ele>
        <time>2025-05-26T15:12:35.748Z</time>
      </trkpt>
      <trkpt lat="48.77647" lon="-0.40244">
        <ele>241.2</ele>
        <time>2025-05-26T15:12:40.493Z</time>
      </trkpt>
      <trkpt lat="48.77642" lon="-0.4024">
        <ele>241.4</ele>
        <time>2025-05-26T15:12:45.096Z</time>
      </trkpt>
      <trkpt lat="48.77636" lon="-0.40236">
        <ele>241.5</ele>
        <time>2025-05-26T15:12:49.701Z</time>
        <extensions>
          <visugpx:TrkExtension xmlns:visugpx="https://www.visugpx.com/editgpx/">
            <visugpx:node>13</visugpx:node>
            </visugpx:TrkExtension>
        </extensions>
      </trkpt>
      <trkpt lat="48.77632" lon="-0.40234">
        <ele>241.5</ele>
        <time>2025-05-26T15:12:52.645Z</time>
      </trkpt>
      <trkpt lat="48.77627" lon="-0.40231">
        <ele>241.5</ele>
        <time>2025-05-26T15:12:56.488Z</time>
      </trkpt>
      <trkpt lat="48.77622" lon="-0.40228">
        <ele>241.7</ele>
        <time>2025-05-26T15:13:00.331Z</time>
      </trkpt>
      <trkpt lat="48.77617" lon="-0.40225">
        <ele>241.8</ele>
        <time>2025-05-26T15:13:04.174Z</time>
      </trkpt>
      <trkpt lat="48.77613" lon="-0.40222">
        <ele>242</ele>
        <time>2025-05-26T15:13:08.017Z</time>
      </trkpt>
      <trkpt lat="48.77608" lon="-0.40219">
        <ele>242</ele>
        <time>2025-05-26T15:13:11.860Z</time>
      </trkpt>
      <trkpt lat="48.77603" lon="-0.40216">
        <ele>242</ele>
        <time>2025-05-26T15:13:15.704Z</time>
      </trkpt>
      <trkpt lat="48.77598" lon="-0.40213">
        <ele>242</ele>
        <time>2025-05-26T15:13:19.548Z</time>
      </trkpt>
      <trkpt lat="48.77593" lon="-0.4021">
        <ele>242.1</ele>
        <time>2025-05-26T15:13:23.393Z</time>
      </trkpt>
      <trkpt lat="48.77587" lon="-0.4021">
        <ele>242</ele>
        <time>2025-05-26T15:13:27.379Z</time>
      </trkpt>
      <trkpt lat="48.77581" lon="-0.4021">
        <ele>241.9</ele>
        <time>2025-05-26T15:13:31.365Z</time>
      </trkpt>
      <trkpt lat="48.77576" lon="-0.40212">
        <ele>241.7</ele>
        <time>2025-05-26T15:13:35.064Z</time>
      </trkpt>
      <trkpt lat="48.7757" lon="-0.40213">
        <ele>241.7</ele>
        <time>2025-05-26T15:13:38.763Z</time>
      </trkpt>
      <trkpt lat="48.77564" lon="-0.40214">
        <ele>241.6</ele>
        <time>2025-05-26T15:13:42.583Z</time>
      </trkpt>
      <trkpt lat="48.77559" lon="-0.40215">
        <ele>241.5</ele>
        <time>2025-05-26T15:13:46.404Z</time>
      </trkpt>
      <trkpt lat="48.77553" lon="-0.40216">
        <ele>241.4</ele>
        <time>2025-05-26T15:13:50.225Z</time>
      </trkpt>
      <trkpt lat="48.77548" lon="-0.40217">
        <ele>241.4</ele>
        <time>2025-05-26T15:13:54.046Z</time>
      </trkpt>
      <trkpt lat="48.77542" lon="-0.40217">
        <ele>241.4</ele>
        <time>2025-05-26T15:13:57.867Z</time>
      </trkpt>
      <trkpt lat="48.77536" lon="-0.40218">
        <ele>241.3</ele>
        <time>2025-05-26T15:14:01.688Z</time>
      </trkpt>
      <trkpt lat="48.77531" lon="-0.40219">
        <ele>241.2</ele>
        <time>2025-05-26T15:14:05.509Z</time>
      </trkpt>
      <trkpt lat="48.77525" lon="-0.4022">
        <ele>241.2</ele>
        <time>2025-05-26T15:14:09.331Z</time>
      </trkpt>
      <trkpt lat="48.77519" lon="-0.40221">
        <ele>241.1</ele>
        <time>2025-05-26T15:14:13.455Z</time>
      </trkpt>
      <trkpt lat="48.77513" lon="-0.40221">
        <ele>241.1</ele>
        <time>2025-05-26T15:14:17.579Z</time>
      </trkpt>
      <trkpt lat="48.77507" lon="-0.40222">
        <ele>241</ele>
        <time>2025-05-26T15:14:21.703Z</time>
      </trkpt>
      <trkpt lat="48.77501" lon="-0.40223">
        <ele>241</ele>
        <time>2025-05-26T15:14:25.827Z</time>
      </trkpt>
      <trkpt lat="48.77495" lon="-0.40223">
        <ele>241</ele>
        <time>2025-05-26T15:14:29.951Z</time>
      </trkpt>
      <trkpt lat="48.77489" lon="-0.40224">
        <ele>240.9</ele>
        <time>2025-05-26T15:14:34.075Z</time>
      </trkpt>
      <trkpt lat="48.77483" lon="-0.40224">
        <ele>240.9</ele>
        <time>2025-05-26T15:14:38.199Z</time>
      </trkpt>
      <trkpt lat="48.77477" lon="-0.40225">
        <ele>240.9</ele>
        <time>2025-05-26T15:14:42.324Z</time>
      </trkpt>
      <trkpt lat="48.77472" lon="-0.4022">
        <ele>241.1</ele>
        <time>2025-05-26T15:14:46.683Z</time>
      </trkpt>
      <trkpt lat="48.77467" lon="-0.40215">
        <ele>241.1</ele>
        <time>2025-05-26T15:14:51.042Z</time>
      </trkpt>
      <trkpt lat="48.77462" lon="-0.40209">
        <ele>241.1</ele>
        <time>2025-05-26T15:14:55.402Z</time>
      </trkpt>
      <trkpt lat="48.77457" lon="-0.40204">
        <ele>241.1</ele>
        <time>2025-05-26T15:14:59.763Z</time>
      </trkpt>
      <trkpt lat="48.7745" lon="-0.40199">
        <ele>241</ele>
        <time>2025-05-26T15:15:05.382Z</time>
      </trkpt>
      <trkpt lat="48.77442" lon="-0.40194">
        <ele>241</ele>
        <time>2025-05-26T15:15:11.002Z</time>
      </trkpt>
      <trkpt lat="48.77437" lon="-0.4019">
        <ele>241.2</ele>
        <time>2025-05-26T15:15:15.418Z</time>
      </trkpt>
      <trkpt lat="48.77432" lon="-0.40183">
        <ele>241.4</ele>
        <time>2025-05-26T15:15:21.166Z</time>
      </trkpt>
      <trkpt lat="48.77426" lon="-0.40175">
        <ele>241.7</ele>
        <time>2025-05-26T15:15:26.914Z</time>
      </trkpt>
      <trkpt lat="48.77421" lon="-0.40168">
        <ele>242</ele>
        <time>2025-05-26T15:15:32.662Z</time>
      </trkpt>
      <trkpt lat="48.77415" lon="-0.4016">
        <ele>242.2</ele>
        <time>2025-05-26T15:15:38.412Z</time>
        <extensions>
          <visugpx:TrkExtension xmlns:visugpx="https://www.visugpx.com/editgpx/">
            <visugpx:node>14</visugpx:node>
            </visugpx:TrkExtension>
        </extensions>
      </trkpt>
      <trkpt lat="48.77413" lon="-0.40151">
        <ele>242.4</ele>
        <time>2025-05-26T15:15:43.590Z</time>
      </trkpt>
      <trkpt lat="48.77411" lon="-0.40141">
        <ele>242.7</ele>
        <time>2025-05-26T15:15:48.770Z</time>
      </trkpt>
      <trkpt lat="48.77411" lon="-0.4013">
        <ele>243.1</ele>
        <time>2025-05-26T15:15:54.642Z</time>
      </trkpt>
      <trkpt lat="48.7741" lon="-0.4012">
        <ele>243.4</ele>
        <time>2025-05-26T15:16:00.514Z</time>
      </trkpt>
      <trkpt lat="48.7741" lon="-0.40109">
        <ele>243.8</ele>
        <time>2025-05-26T15:16:06.386Z</time>
      </trkpt>
      <trkpt lat="48.77409" lon="-0.40098">
        <ele>244.2</ele>
        <time>2025-05-26T15:16:12.260Z</time>
      </trkpt>
      <trkpt lat="48.77409" lon="-0.40089">
        <ele>244.5</ele>
        <time>2025-05-26T15:16:17.196Z</time>
      </trkpt>
      <trkpt lat="48.77409" lon="-0.4008">
        <ele>244.8</ele>
        <time>2025-05-26T15:16:22.133Z</time>
      </trkpt>
      <trkpt lat="48.77409" lon="-0.40071">
        <ele>245.2</ele>
        <time>2025-05-26T15:16:27.070Z</time>
      </trkpt>
      <trkpt lat="48.77409" lon="-0.40062">
        <ele>245.5</ele>
        <time>2025-05-26T15:16:32.007Z</time>
        <extensions>
          <visugpx:TrkExtension xmlns:visugpx="https://www.visugpx.com/editgpx/">
            <visugpx:node>15</visugpx:node>
            </visugpx:TrkExtension>
        </extensions>
      </trkpt>
      <trkpt lat="48.77404" lon="-0.40059">
        <ele>245.4</ele>
        <time>2025-05-26T15:16:35.567Z</time>
      </trkpt>
      <trkpt lat="48.77399" lon="-0.40057">
        <ele>245.3</ele>
        <time>2025-05-26T15:16:39.127Z</time>
      </trkpt>
      <trkpt lat="48.77394" lon="-0.40054">
        <ele>245.2</ele>
        <time>2025-05-26T15:16:42.688Z</time>
      </trkpt>
      <trkpt lat="48.77389" lon="-0.40051">
        <ele>245.2</ele>
        <time>2025-05-26T15:16:46.250Z</time>
      </trkpt>
      <trkpt lat="48.77383" lon="-0.40048">
        <ele>245.3</ele>
        <time>2025-05-26T15:16:51.054Z</time>
      </trkpt>
      <trkpt lat="48.77377" lon="-0.40045">
        <ele>245.4</ele>
        <time>2025-05-26T15:16:55.858Z</time>
      </trkpt>
      <trkpt lat="48.7737" lon="-0.40042">
        <ele>245.5</ele>
        <time>2025-05-26T15:17:00.662Z</time>
      </trkpt>
      <trkpt lat="48.77364" lon="-0.40039">
        <ele>245.6</ele>
        <time>2025-05-26T15:17:05.468Z</time>
      </trkpt>
      <trkpt lat="48.77359" lon="-0.40032">
        <ele>245.8</ele>
        <time>2025-05-26T15:17:10.094Z</time>
      </trkpt>
      <trkpt lat="48.77354" lon="-0.40026">
        <ele>245.7</ele>
        <time>2025-05-26T15:17:14.720Z</time>
      </trkpt>
      <trkpt lat="48.77349" lon="-0.40019">
        <ele>245.6</ele>
        <time>2025-05-26T15:17:19.346Z</time>
      </trkpt>
      <trkpt lat="48.77344" lon="-0.40013">
        <ele>245.4</ele>
        <time>2025-05-26T15:17:23.972Z</time>
      </trkpt>
      <trkpt lat="48.77338" lon="-0.40006">
        <ele>245.2</ele>
        <time>2025-05-26T15:17:28.598Z</time>
      </trkpt>
      <trkpt lat="48.77333" lon="-0.39999">
        <ele>245</ele>
        <time>2025-05-26T15:17:33.224Z</time>
      </trkpt>
      <trkpt lat="48.77328" lon="-0.39993">
        <ele>245.2</ele>
        <time>2025-05-26T15:17:37.850Z</time>
      </trkpt>
      <trkpt lat="48.77323" lon="-0.39986">
        <ele>245.3</ele>
        <time>2025-05-26T15:17:42.478Z</time>
      </trkpt>
      <trkpt lat="48.77319" lon="-0.3999">
        <ele>245.2</ele>
        <time>2025-05-26T15:17:45.413Z</time>
      </trkpt>
      <trkpt lat="48.77316" lon="-0.39995">
        <ele>245.1</ele>
        <time>2025-05-26T15:17:48.348Z</time>
      </trkpt>
      <trkpt lat="48.77312" lon="-0.39999">
        <ele>245</ele>
        <time>2025-05-26T15:17:51.283Z</time>
      </trkpt>
      <trkpt lat="48.77308" lon="-0.40004">
        <ele>244.9</ele>
        <time>2025-05-26T15:17:54.218Z</time>
      </trkpt>
      <trkpt lat="48.77304" lon="-0.40008">
        <ele>244.7</ele>
        <time>2025-05-26T15:17:57.153Z</time>
      </trkpt>
      <trkpt lat="48.77301" lon="-0.40012">
        <ele>244.4</ele>
        <time>2025-05-26T15:18:00.088Z</time>
      </trkpt>
      <trkpt lat="48.77297" lon="-0.40017">
        <ele>244.1</ele>
        <time>2025-05-26T15:18:03.023Z</time>
      </trkpt>
      <trkpt lat="48.77293" lon="-0.40021">
        <ele>243.8</ele>
        <time>2025-05-26T15:18:05.959Z</time>
      </trkpt>
      <trkpt lat="48.7729" lon="-0.40028">
        <ele>243.4</ele>
        <time>2025-05-26T15:18:09.500Z</time>
      </trkpt>
      <trkpt lat="48.77286" lon="-0.40035">
        <ele>243</ele>
        <time>2025-05-26T15:18:13.041Z</time>
      </trkpt>
      <trkpt lat="48.77283" lon="-0.40042">
        <ele>242.7</ele>
        <time>2025-05-26T15:18:16.583Z</time>
      </trkpt>
      <trkpt lat="48.77279" lon="-0.40049">
        <ele>242.3</ele>
        <time>2025-05-26T15:18:20.126Z</time>
      </trkpt>
      <trkpt lat="48.77274" lon="-0.40058">
        <ele>241.9</ele>
        <time>2025-05-26T15:18:24.870Z</time>
      </trkpt>
      <trkpt lat="48.77269" lon="-0.40067">
        <ele>241.6</ele>
        <time>2025-05-26T15:18:29.614Z</time>
      </trkpt>
      <trkpt lat="48.77264" lon="-0.40076">
        <ele>241.3</ele>
        <time>2025-05-26T15:18:34.359Z</time>
      </trkpt>
      <trkpt lat="48.77259" lon="-0.40085">
        <ele>240.9</ele>
        <time>2025-05-26T15:18:39.105Z</time>
      </trkpt>
      <trkpt lat="48.77253" lon="-0.40094">
        <ele>240.6</ele>
        <time>2025-05-26T15:18:44.194Z</time>
      </trkpt>
      <trkpt lat="48.77247" lon="-0.40103">
        <ele>240.2</ele>
        <time>2025-05-26T15:18:49.283Z</time>
      </trkpt>
      <trkpt lat="48.77241" lon="-0.40111">
        <ele>239.7</ele>
        <time>2025-05-26T15:18:54.373Z</time>
      </trkpt>
      <trkpt lat="48.77235" lon="-0.4012">
        <ele>239.1</ele>
        <time>2025-05-26T15:18:59.464Z</time>
      </trkpt>
      <trkpt lat="48.7723" lon="-0.40126">
        <ele>238.7</ele>
        <time>2025-05-26T15:19:03.362Z</time>
      </trkpt>
      <trkpt lat="48.77225" lon="-0.40132">
        <ele>238.3</ele>
        <time>2025-05-26T15:19:07.260Z</time>
      </trkpt>
      <trkpt lat="48.7722" lon="-0.40138">
        <ele>238</ele>
        <time>2025-05-26T15:19:11.159Z</time>
      </trkpt>
      <trkpt lat="48.77215" lon="-0.40144">
        <ele>237.8</ele>
        <time>2025-05-26T15:19:15.059Z</time>
      </trkpt>
      <trkpt lat="48.77211" lon="-0.40149">
        <ele>237.5</ele>
        <time>2025-05-26T15:19:18.202Z</time>
      </trkpt>
      <trkpt lat="48.77207" lon="-0.40154">
        <ele>237.2</ele>
        <time>2025-05-26T15:19:21.345Z</time>
      </trkpt>
      <trkpt lat="48.77203" lon="-0.40159">
        <ele>236.8</ele>
        <time>2025-05-26T15:19:24.489Z</time>
      </trkpt>
      <trkpt lat="48.772" lon="-0.40165">
        <ele>236.3</ele>
        <time>2025-05-26T15:19:27.633Z</time>
      </trkpt>
      <trkpt lat="48.77196" lon="-0.4017">
        <ele>235.8</ele>
        <time>2025-05-26T15:19:30.777Z</time>
      </trkpt>
      <trkpt lat="48.77192" lon="-0.40175">
        <ele>235.4</ele>
        <time>2025-05-26T15:19:33.921Z</time>
      </trkpt>
      <trkpt lat="48.77188" lon="-0.4018">
        <ele>235</ele>
        <time>2025-05-26T15:19:37.065Z</time>
      </trkpt>
      <trkpt lat="48.77184" lon="-0.40185">
        <ele>234.7</ele>
        <time>2025-05-26T15:19:40.210Z</time>
      </trkpt>
      <trkpt lat="48.77179" lon="-0.40192">
        <ele>234.2</ele>
        <time>2025-05-26T15:19:44.303Z</time>
      </trkpt>
      <trkpt lat="48.77174" lon="-0.40199">
        <ele>233.6</ele>
        <time>2025-05-26T15:19:48.396Z</time>
      </trkpt>
      <trkpt lat="48.77169" lon="-0.40205">
        <ele>232.9</ele>
        <time>2025-05-26T15:19:52.489Z</time>
      </trkpt>
      <trkpt lat="48.77164" lon="-0.40212">
        <ele>232.1</ele>
        <time>2025-05-26T15:19:56.583Z</time>
        <extensions>
          <visugpx:TrkExtension xmlns:visugpx="https://www.visugpx.com/editgpx/">
            <visugpx:node>16</visugpx:node>
            </visugpx:TrkExtension>
        </extensions>
      </trkpt>
      <trkpt lat="48.7716" lon="-0.40209">
        <ele>232.4</ele>
        <time>2025-05-26T15:20:00.781Z</time>
      </trkpt>
      <trkpt lat="48.77156" lon="-0.40205">
        <ele>232.9</ele>
        <time>2025-05-26T15:20:04.980Z</time>
      </trkpt>
      <trkpt lat="48.77152" lon="-0.40202">
        <ele>233.2</ele>
        <time>2025-05-26T15:20:09.179Z</time>
      </trkpt>
      <trkpt lat="48.77148" lon="-0.40198">
        <ele>233.6</ele>
        <time>2025-05-26T15:20:13.379Z</time>
      </trkpt>
      <trkpt lat="48.77144" lon="-0.40191">
        <ele>234.2</ele>
        <time>2025-05-26T15:20:18.923Z</time>
      </trkpt>
      <trkpt lat="48.77141" lon="-0.40184">
        <ele>234.8</ele>
        <time>2025-05-26T15:20:24.467Z</time>
      </trkpt>
      <trkpt lat="48.77137" lon="-0.40176">
        <ele>235.3</ele>
        <time>2025-05-26T15:20:30.011Z</time>
      </trkpt>
      <trkpt lat="48.77133" lon="-0.40169">
        <ele>235.6</ele>
        <time>2025-05-26T15:20:35.556Z</time>
      </trkpt>
      <trkpt lat="48.7713" lon="-0.40163">
        <ele>235.9</ele>
        <time>2025-05-26T15:20:40.034Z</time>
      </trkpt>
      <trkpt lat="48.77127" lon="-0.40157">
        <ele>236.1</ele>
        <time>2025-05-26T15:20:44.512Z</time>
      </trkpt>
      <trkpt lat="48.77124" lon="-0.4015">
        <ele>236.4</ele>
        <time>2025-05-26T15:20:48.990Z</time>
      </trkpt>
      <trkpt lat="48.77121" lon="-0.40144">
        <ele>236.7</ele>
        <time>2025-05-26T15:20:53.468Z</time>
      </trkpt>
      <trkpt lat="48.77118" lon="-0.40138">
        <ele>237.1</ele>
        <time>2025-05-26T15:20:57.946Z</time>
      </trkpt>
      <trkpt lat="48.77115" lon="-0.40132">
        <ele>237.5</ele>
        <time>2025-05-26T15:21:02.425Z</time>
      </trkpt>
      <trkpt lat="48.77112" lon="-0.40125">
        <ele>238</ele>
        <time>2025-05-26T15:21:06.904Z</time>
      </trkpt>
      <trkpt lat="48.77109" lon="-0.40119">
        <ele>238.4</ele>
        <time>2025-05-26T15:21:11.384Z</time>
      </trkpt>
      <trkpt lat="48.77103" lon="-0.4011">
        <ele>239.1</ele>
        <time>2025-05-26T15:21:18.406Z</time>
      </trkpt>
      <trkpt lat="48.77097" lon="-0.40101">
        <ele>239.5</ele>
        <time>2025-05-26T15:21:25.428Z</time>
      </trkpt>
      <trkpt lat="48.77091" lon="-0.40092">
        <ele>240.2</ele>
        <time>2025-05-26T15:21:32.450Z</time>
      </trkpt>
      <trkpt lat="48.77085" lon="-0.40083">
        <ele>241</ele>
        <time>2025-05-26T15:21:39.473Z</time>
      </trkpt>
      <trkpt lat="48.77079" lon="-0.40074">
        <ele>241.3</ele>
        <time>2025-05-26T15:21:46.496Z</time>
      </trkpt>
      <trkpt lat="48.77073" lon="-0.40065">
        <ele>241.7</ele>
        <time>2025-05-26T15:21:53.519Z</time>
      </trkpt>
      <trkpt lat="48.77067" lon="-0.40056">
        <ele>242</ele>
        <time>2025-05-26T15:22:00.542Z</time>
      </trkpt>
      <trkpt lat="48.77061" lon="-0.40047">
        <ele>242.2</ele>
        <time>2025-05-26T15:22:07.566Z</time>
      </trkpt>
      <trkpt lat="48.77056" lon="-0.40038">
        <ele>242.6</ele>
        <time>2025-05-26T15:22:13.382Z</time>
      </trkpt>
      <trkpt lat="48.7705" lon="-0.40029">
        <ele>242.8</ele>
        <time>2025-05-26T15:22:19.198Z</time>
      </trkpt>
      <trkpt lat="48.77045" lon="-0.4002">
        <ele>242.7</ele>
        <time>2025-05-26T15:22:25.014Z</time>
      </trkpt>
      <trkpt lat="48.7704" lon="-0.40011">
        <ele>242.8</ele>
        <time>2025-05-26T15:22:30.830Z</time>
      </trkpt>
      <trkpt lat="48.77034" lon="-0.40002">
        <ele>242.9</ele>
        <time>2025-05-26T15:22:36.646Z</time>
      </trkpt>
      <trkpt lat="48.77029" lon="-0.39993">
        <ele>243</ele>
        <time>2025-05-26T15:22:42.462Z</time>
      </trkpt>
      <trkpt lat="48.77023" lon="-0.39984">
        <ele>243</ele>
        <time>2025-05-26T15:22:48.278Z</time>
      </trkpt>
      <trkpt lat="48.77018" lon="-0.39975">
        <ele>243</ele>
        <time>2025-05-26T15:22:54.096Z</time>
      </trkpt>
      <trkpt lat="48.77012" lon="-0.39966">
        <ele>243</ele>
        <time>2025-05-26T15:22:59.931Z</time>
      </trkpt>
      <trkpt lat="48.77006" lon="-0.39957">
        <ele>243</ele>
        <time>2025-05-26T15:23:05.766Z</time>
      </trkpt>
      <trkpt lat="48.77" lon="-0.39948">
        <ele>243</ele>
        <time>2025-05-26T15:23:11.601Z</time>
      </trkpt>
      <trkpt lat="48.76995" lon="-0.39939">
        <ele>243</ele>
        <time>2025-05-26T15:23:17.436Z</time>
      </trkpt>
      <trkpt lat="48.76989" lon="-0.3993">
        <ele>243</ele>
        <time>2025-05-26T15:23:23.271Z</time>
      </trkpt>
      <trkpt lat="48.76983" lon="-0.39921">
        <ele>243</ele>
        <time>2025-05-26T15:23:29.107Z</time>
      </trkpt>
      <trkpt lat="48.76977" lon="-0.39912">
        <ele>243</ele>
        <time>2025-05-26T15:23:34.943Z</time>
      </trkpt>
      <trkpt lat="48.76971" lon="-0.39903">
        <ele>243</ele>
        <time>2025-05-26T15:23:40.780Z</time>
      </trkpt>
      <trkpt lat="48.76972" lon="-0.39896">
        <ele>243</ele>
        <time>2025-05-26T15:23:44.650Z</time>
      </trkpt>
      <trkpt lat="48.76974" lon="-0.39888">
        <ele>243.1</ele>
        <time>2025-05-26T15:23:48.520Z</time>
      </trkpt>
      <trkpt lat="48.76975" lon="-0.39881">
        <ele>243.4</ele>
        <time>2025-05-26T15:23:52.390Z</time>
      </trkpt>
      <trkpt lat="48.76977" lon="-0.39873">
        <ele>243.6</ele>
        <time>2025-05-26T15:23:56.260Z</time>
      </trkpt>
      <trkpt lat="48.76978" lon="-0.39866">
        <ele>243.9</ele>
        <time>2025-05-26T15:24:00.130Z</time>
      </trkpt>
      <trkpt lat="48.76979" lon="-0.39858">
        <ele>244</ele>
        <time>2025-05-26T15:24:04.000Z</time>
      </trkpt>
      <trkpt lat="48.76981" lon="-0.39851">
        <ele>244</ele>
        <time>2025-05-26T15:24:07.870Z</time>
      </trkpt>
      <trkpt lat="48.76982" lon="-0.39843">
        <ele>244</ele>
        <time>2025-05-26T15:24:11.741Z</time>
      </trkpt>
      <trkpt lat="48.76983" lon="-0.39836">
        <ele>244</ele>
        <time>2025-05-26T15:24:15.209Z</time>
      </trkpt>
      <trkpt lat="48.76984" lon="-0.39828">
        <ele>244</ele>
        <time>2025-05-26T15:24:18.677Z</time>
      </trkpt>
      <trkpt lat="48.76985" lon="-0.39821">
        <ele>244</ele>
        <time>2025-05-26T15:24:22.146Z</time>
      </trkpt>
      <trkpt lat="48.76986" lon="-0.39814">
        <ele>244</ele>
        <time>2025-05-26T15:24:25.615Z</time>
      </trkpt>
      <trkpt lat="48.76987" lon="-0.39806">
        <ele>244</ele>
        <time>2025-05-26T15:24:29.084Z</time>
      </trkpt>
      <trkpt lat="48.76988" lon="-0.39799">
        <ele>244</ele>
        <time>2025-05-26T15:24:32.553Z</time>
      </trkpt>
      <trkpt lat="48.76989" lon="-0.39791">
        <ele>244</ele>
        <time>2025-05-26T15:24:36.022Z</time>
      </trkpt>
      <trkpt lat="48.7699" lon="-0.39784">
        <ele>244</ele>
        <time>2025-05-26T15:24:39.491Z</time>
      </trkpt>
      <trkpt lat="48.76986" lon="-0.39779">
        <ele>244</ele>
        <time>2025-05-26T15:24:43.113Z</time>
      </trkpt>
      <trkpt lat="48.76982" lon="-0.39774">
        <ele>244</ele>
        <time>2025-05-26T15:24:46.735Z</time>
      </trkpt>
      <trkpt lat="48.76978" lon="-0.39769">
        <ele>244.1</ele>
        <time>2025-05-26T15:24:50.357Z</time>
      </trkpt>
      <trkpt lat="48.76974" lon="-0.39764">
        <ele>244</ele>
        <time>2025-05-26T15:24:53.981Z</time>
      </trkpt>
      <trkpt lat="48.76969" lon="-0.39756">
        <ele>244</ele>
        <time>2025-05-26T15:24:59.468Z</time>
      </trkpt>
      <trkpt lat="48.76963" lon="-0.39747">
        <ele>244</ele>
        <time>2025-05-26T15:25:04.955Z</time>
      </trkpt>
      <trkpt lat="48.76958" lon="-0.39739">
        <ele>244</ele>
        <time>2025-05-26T15:25:10.442Z</time>
      </trkpt>
      <trkpt lat="48.76952" lon="-0.3973">
        <ele>244</ele>
        <time>2025-05-26T15:25:15.931Z</time>
      </trkpt>
      <trkpt lat="48.76947" lon="-0.39724">
        <ele>244</ele>
        <time>2025-05-26T15:25:20.632Z</time>
      </trkpt>
      <trkpt lat="48.76941" lon="-0.39717">
        <ele>244</ele>
        <time>2025-05-26T15:25:25.333Z</time>
      </trkpt>
      <trkpt lat="48.76936" lon="-0.39711">
        <ele>244</ele>
        <time>2025-05-26T15:25:30.035Z</time>
      </trkpt>
      <trkpt lat="48.7693" lon="-0.39704">
        <ele>244</ele>
        <time>2025-05-26T15:25:34.737Z</time>
      </trkpt>
      <trkpt lat="48.76925" lon="-0.39698">
        <ele>244</ele>
        <time>2025-05-26T15:25:39.439Z</time>
      </trkpt>
      <trkpt lat="48.76919" lon="-0.39691">
        <ele>244</ele>
        <time>2025-05-26T15:25:44.141Z</time>
      </trkpt>
      <trkpt lat="48.76914" lon="-0.39685">
        <ele>243.9</ele>
        <time>2025-05-26T15:25:48.843Z</time>
      </trkpt>
      <trkpt lat="48.76909" lon="-0.39679">
        <ele>243.7</ele>
        <time>2025-05-26T15:25:53.545Z</time>
      </trkpt>
      <trkpt lat="48.76903" lon="-0.39672">
        <ele>243.5</ele>
        <time>2025-05-26T15:25:58.247Z</time>
      </trkpt>
      <trkpt lat="48.76898" lon="-0.39666">
        <ele>243.3</ele>
        <time>2025-05-26T15:26:02.949Z</time>
      </trkpt>
      <trkpt lat="48.76892" lon="-0.39659">
        <ele>243.4</ele>
        <time>2025-05-26T15:26:07.651Z</time>
      </trkpt>
      <trkpt lat="48.76887" lon="-0.39653">
        <ele>243.5</ele>
        <time>2025-05-26T15:26:12.353Z</time>
      </trkpt>
      <trkpt lat="48.76881" lon="-0.39646">
        <ele>243.5</ele>
        <time>2025-05-26T15:26:17.055Z</time>
      </trkpt>
      <trkpt lat="48.76876" lon="-0.3964">
        <ele>243.5</ele>
        <time>2025-05-26T15:26:21.757Z</time>
      </trkpt>
      <trkpt lat="48.7687" lon="-0.39633">
        <ele>243.3</ele>
        <time>2025-05-26T15:26:26.459Z</time>
      </trkpt>
      <trkpt lat="48.76865" lon="-0.39627">
        <ele>243.1</ele>
        <time>2025-05-26T15:26:31.162Z</time>
        <extensions>
          <visugpx:TrkExtension xmlns:visugpx="https://www.visugpx.com/editgpx/">
            <visugpx:node>17</visugpx:node>
            </visugpx:TrkExtension>
        </extensions>
      </trkpt>
      <trkpt lat="48.76862" lon="-0.39633">
        <ele>243</ele>
        <time>2025-05-26T15:26:34.476Z</time>
      </trkpt>
      <trkpt lat="48.76859" lon="-0.39639">
        <ele>243</ele>
        <time>2025-05-26T15:26:37.790Z</time>
      </trkpt>
      <trkpt lat="48.76856" lon="-0.39645">
        <ele>243</ele>
        <time>2025-05-26T15:26:41.104Z</time>
      </trkpt>
      <trkpt lat="48.76854" lon="-0.39651">
        <ele>243</ele>
        <time>2025-05-26T15:26:44.419Z</time>
      </trkpt>
      <trkpt lat="48.76851" lon="-0.39657">
        <ele>243</ele>
        <time>2025-05-26T15:26:47.734Z</time>
      </trkpt>
      <trkpt lat="48.76848" lon="-0.39663">
        <ele>243</ele>
        <time>2025-05-26T15:26:51.049Z</time>
      </trkpt>
      <trkpt lat="48.76845" lon="-0.39669">
        <ele>243</ele>
        <time>2025-05-26T15:26:54.364Z</time>
      </trkpt>
      <trkpt lat="48.76842" lon="-0.39675">
        <ele>243</ele>
        <time>2025-05-26T15:26:57.679Z</time>
      </trkpt>
      <trkpt lat="48.76839" lon="-0.3968">
        <ele>243</ele>
        <time>2025-05-26T15:27:00.994Z</time>
      </trkpt>
      <trkpt lat="48.76836" lon="-0.39686">
        <ele>243</ele>
        <time>2025-05-26T15:27:04.309Z</time>
      </trkpt>
      <trkpt lat="48.76833" lon="-0.39692">
        <ele>243</ele>
        <time>2025-05-26T15:27:07.624Z</time>
      </trkpt>
      <trkpt lat="48.76831" lon="-0.39698">
        <ele>243</ele>
        <time>2025-05-26T15:27:10.939Z</time>
      </trkpt>
      <trkpt lat="48.76828" lon="-0.39704">
        <ele>242.9</ele>
        <time>2025-05-26T15:27:14.254Z</time>
      </trkpt>
      <trkpt lat="48.76825" lon="-0.3971">
        <ele>242.8</ele>
        <time>2025-05-26T15:27:17.569Z</time>
      </trkpt>
      <trkpt lat="48.76822" lon="-0.39716">
        <ele>242.7</ele>
        <time>2025-05-26T15:27:20.884Z</time>
      </trkpt>
      <trkpt lat="48.76819" lon="-0.39722">
        <ele>242.5</ele>
        <time>2025-05-26T15:27:24.200Z</time>
      </trkpt>
      <trkpt lat="48.76817" lon="-0.39728">
        <ele>242.3</ele>
        <time>2025-05-26T15:27:27.168Z</time>
      </trkpt>
      <trkpt lat="48.76814" lon="-0.39734">
        <ele>242.2</ele>
        <time>2025-05-26T15:27:30.137Z</time>
      </trkpt>
      <trkpt lat="48.76814" lon="-0.39744">
        <ele>242.1</ele>
        <time>2025-05-26T15:27:34.327Z</time>
      </trkpt>
      <trkpt lat="48.76813" lon="-0.39753">
        <ele>242</ele>
        <time>2025-05-26T15:27:38.517Z</time>
      </trkpt>
      <trkpt lat="48.76813" lon="-0.39763">
        <ele>242</ele>
        <time>2025-05-26T15:27:42.707Z</time>
      </trkpt>
      <trkpt lat="48.76812" lon="-0.39773">
        <ele>242</ele>
        <time>2025-05-26T15:27:46.897Z</time>
      </trkpt>
      <trkpt lat="48.76812" lon="-0.39782">
        <ele>241.9</ele>
        <time>2025-05-26T15:27:51.087Z</time>
      </trkpt>
      <trkpt lat="48.76811" lon="-0.39792">
        <ele>241.6</ele>
        <time>2025-05-26T15:27:55.277Z</time>
      </trkpt>
      <trkpt lat="48.76811" lon="-0.39801">
        <ele>241.3</ele>
        <time>2025-05-26T15:27:59.467Z</time>
      </trkpt>
      <trkpt lat="48.7681" lon="-0.39811">
        <ele>241.2</ele>
        <time>2025-05-26T15:28:03.658Z</time>
      </trkpt>
      <trkpt lat="48.76803" lon="-0.39814">
        <ele>241</ele>
        <time>2025-05-26T15:28:08.433Z</time>
      </trkpt>
      <trkpt lat="48.76796" lon="-0.39817">
        <ele>240.9</ele>
        <time>2025-05-26T15:28:13.209Z</time>
      </trkpt>
      <trkpt lat="48.7679" lon="-0.3982">
        <ele>240.7</ele>
        <time>2025-05-26T15:28:17.521Z</time>
      </trkpt>
      <trkpt lat="48.76783" lon="-0.39823">
        <ele>240.5</ele>
        <time>2025-05-26T15:28:21.833Z</time>
      </trkpt>
      <trkpt lat="48.76777" lon="-0.39825">
        <ele>240.3</ele>
        <time>2025-05-26T15:28:26.145Z</time>
      </trkpt>
      <trkpt lat="48.7677" lon="-0.39828">
        <ele>240.1</ele>
        <time>2025-05-26T15:28:30.459Z</time>
      </trkpt>
      <trkpt lat="48.76763" lon="-0.39833">
        <ele>240</ele>
        <time>2025-05-26T15:28:35.316Z</time>
      </trkpt>
      <trkpt lat="48.76756" lon="-0.39838">
        <ele>239.8</ele>
        <time>2025-05-26T15:28:40.173Z</time>
      </trkpt>
      <trkpt lat="48.76749" lon="-0.39842">
        <ele>239.6</ele>
        <time>2025-05-26T15:28:45.031Z</time>
      </trkpt>
      <trkpt lat="48.76742" lon="-0.39847">
        <ele>239.1</ele>
        <time>2025-05-26T15:28:49.890Z</time>
      </trkpt>
      <trkpt lat="48.76735" lon="-0.39851">
        <ele>238.6</ele>
        <time>2025-05-26T15:28:54.501Z</time>
      </trkpt>
      <trkpt lat="48.76728" lon="-0.39856">
        <ele>238.2</ele>
        <time>2025-05-26T15:28:59.112Z</time>
      </trkpt>
      <trkpt lat="48.76721" lon="-0.3986">
        <ele>237.9</ele>
        <time>2025-05-26T15:29:03.723Z</time>
      </trkpt>
      <trkpt lat="48.76714" lon="-0.39864">
        <ele>237.2</ele>
        <time>2025-05-26T15:29:08.336Z</time>
      </trkpt>
      <trkpt lat="48.76709" lon="-0.39867">
        <ele>236.7</ele>
        <time>2025-05-26T15:29:11.945Z</time>
      </trkpt>
      <trkpt lat="48.76703" lon="-0.39871">
        <ele>236.2</ele>
        <time>2025-05-26T15:29:15.554Z</time>
      </trkpt>
      <trkpt lat="48.76698" lon="-0.39874">
        <ele>235.7</ele>
        <time>2025-05-26T15:29:19.164Z</time>
      </trkpt>
      <trkpt lat="48.76692" lon="-0.39877">
        <ele>235.3</ele>
        <time>2025-05-26T15:29:22.774Z</time>
      </trkpt>
      <trkpt lat="48.76687" lon="-0.3988">
        <ele>234.8</ele>
        <time>2025-05-26T15:29:26.384Z</time>
      </trkpt>
      <trkpt lat="48.76681" lon="-0.39884">
        <ele>234.2</ele>
        <time>2025-05-26T15:29:29.994Z</time>
      </trkpt>
      <trkpt lat="48.76676" lon="-0.39887">
        <ele>233.7</ele>
        <time>2025-05-26T15:29:33.604Z</time>
      </trkpt>
      <trkpt lat="48.7667" lon="-0.3989">
        <ele>233.2</ele>
        <time>2025-05-26T15:29:37.215Z</time>
      </trkpt>
      <trkpt lat="48.76664" lon="-0.39898">
        <ele>232.6</ele>
        <time>2025-05-26T15:29:41.919Z</time>
      </trkpt>
      <trkpt lat="48.76659" lon="-0.39906">
        <ele>232.1</ele>
        <time>2025-05-26T15:29:46.623Z</time>
      </trkpt>
      <trkpt lat="48.76653" lon="-0.39913">
        <ele>231.6</ele>
        <time>2025-05-26T15:29:51.327Z</time>
      </trkpt>
      <trkpt lat="48.76647" lon="-0.39921">
        <ele>231</ele>
        <time>2025-05-26T15:29:56.032Z</time>
      </trkpt>
      <trkpt lat="48.76643" lon="-0.39929">
        <ele>230.3</ele>
        <time>2025-05-26T15:29:59.999Z</time>
      </trkpt>
      <trkpt lat="48.76639" lon="-0.39937">
        <ele>229.5</ele>
        <time>2025-05-26T15:30:03.967Z</time>
      </trkpt>
      <trkpt lat="48.76635" lon="-0.39944">
        <ele>229</ele>
        <time>2025-05-26T15:30:07.935Z</time>
      </trkpt>
      <trkpt lat="48.76631" lon="-0.39952">
        <ele>228.7</ele>
        <time>2025-05-26T15:30:11.904Z</time>
        <extensions>
          <visugpx:TrkExtension xmlns:visugpx="https://www.visugpx.com/editgpx/">
            <visugpx:node>18</visugpx:node>
            </visugpx:TrkExtension>
        </extensions>
      </trkpt>
      <trkpt lat="48.76627" lon="-0.39958">
        <ele>228.3</ele>
        <time>2025-05-26T15:30:15.567Z</time>
      </trkpt>
      <trkpt lat="48.76622" lon="-0.39964">
        <ele>227.9</ele>
        <time>2025-05-26T15:30:19.232Z</time>
      </trkpt>
      <trkpt lat="48.76616" lon="-0.39971">
        <ele>227.3</ele>
        <time>2025-05-26T15:30:23.924Z</time>
      </trkpt>
      <trkpt lat="48.7661" lon="-0.39978">
        <ele>226.1</ele>
        <time>2025-05-26T15:30:28.616Z</time>
      </trkpt>
      <trkpt lat="48.76603" lon="-0.39984">
        <ele>224.6</ele>
        <time>2025-05-26T15:30:33.308Z</time>
      </trkpt>
      <trkpt lat="48.76597" lon="-0.39991">
        <ele>223.1</ele>
        <time>2025-05-26T15:30:38.001Z</time>
      </trkpt>
      <trkpt lat="48.76593" lon="-0.39996">
        <ele>222.2</ele>
        <time>2025-05-26T15:30:41.170Z</time>
      </trkpt>
      <trkpt lat="48.76589" lon="-0.40001">
        <ele>221.3</ele>
        <time>2025-05-26T15:30:44.339Z</time>
      </trkpt>
      <trkpt lat="48.76585" lon="-0.40006">
        <ele>220.5</ele>
        <time>2025-05-26T15:30:47.509Z</time>
      </trkpt>
      <trkpt lat="48.76581" lon="-0.40011">
        <ele>219.6</ele>
        <time>2025-05-26T15:30:50.680Z</time>
      </trkpt>
      <trkpt lat="48.76578" lon="-0.40016">
        <ele>218.7</ele>
        <time>2025-05-26T15:30:53.481Z</time>
      </trkpt>
      <trkpt lat="48.76575" lon="-0.40022">
        <ele>217.7</ele>
        <time>2025-05-26T15:30:56.282Z</time>
      </trkpt>
      <trkpt lat="48.76572" lon="-0.40027">
        <ele>216.9</ele>
        <time>2025-05-26T15:30:59.083Z</time>
      </trkpt>
      <trkpt lat="48.76572" lon="-0.40032">
        <ele>216.3</ele>
      </trkpt>
      <trkpt lat="48.76575" lon="-0.4004">
        <ele>215.6</ele>
      </trkpt>
      <trkpt lat="48.76578" lon="-0.40044">
        <ele>215.4</ele>
      </trkpt>
      <trkpt lat="48.76578" lon="-0.40051">
        <ele>214.4</ele>
      </trkpt>
      <trkpt lat="48.76576" lon="-0.40057">
        <ele>213.5</ele>
      </trkpt>
      <trkpt lat="48.76576" lon="-0.40066">
        <ele>212.6</ele>
      </trkpt>
      <trkpt lat="48.76577" lon="-0.40074">
        <ele>211.6</ele>
      </trkpt>
      <trkpt lat="48.76581" lon="-0.40085">
        <ele>210.5</ele>
      </trkpt>
      <trkpt lat="48.7658" lon="-0.40088">
        <ele>210</ele>
      </trkpt>
      <trkpt lat="48.76581" lon="-0.40095">
        <ele>208.9</ele>
      </trkpt>
      <trkpt lat="48.76582" lon="-0.40101">
        <ele>207.7</ele>
      </trkpt>
      <trkpt lat="48.76583" lon="-0.40108">
        <ele>206.6</ele>
      </trkpt>
      <trkpt lat="48.76584" lon="-0.40115">
        <ele>205.6</ele>
      </trkpt>
      <trkpt lat="48.76584" lon="-0.40123">
        <ele>204.4</ele>
      </trkpt>
      <trkpt lat="48.76583" lon="-0.40125">
        <ele>204</ele>
      </trkpt>
      <trkpt lat="48.76583" lon="-0.40128">
        <ele>203.5</ele>
      </trkpt>
      <trkpt lat="48.7658" lon="-0.40134">
        <ele>202.6</ele>
      </trkpt>
      <trkpt lat="48.76578" lon="-0.40138">
        <ele>202</ele>
        <time>2025-05-26T15:31:01.885Z</time>
      </trkpt>
      <trkpt lat="48.76576" lon="-0.4014">
        <ele>201.6</ele>
        <time>2025-05-26T15:31:06.027Z</time>
      </trkpt>
      <trkpt lat="48.76573" lon="-0.40141">
        <ele>201.3</ele>
        <time>2025-05-26T15:31:10.171Z</time>
      </trkpt>
      <trkpt lat="48.7657" lon="-0.40142">
        <ele>201.1</ele>
        <time>2025-05-26T15:31:13.068Z</time>
      </trkpt>
      <trkpt lat="48.76568" lon="-0.40144">
        <ele>200.7</ele>
        <time>2025-05-26T15:31:15.965Z</time>
      </trkpt>
      <trkpt lat="48.76567" lon="-0.40143">
        <ele>200.8</ele>
        <time>2025-05-26T15:31:18.863Z</time>
      </trkpt>
      <trkpt lat="48.7656" lon="-0.40143">
        <ele>200.6</ele>
        <time>2025-05-26T15:31:21.761Z</time>
      </trkpt>
      <trkpt lat="48.76556" lon="-0.40141">
        <ele>200.8</ele>
        <time>2025-05-26T15:31:24.659Z</time>
      </trkpt>
      <trkpt lat="48.76549" lon="-0.40141">
        <ele>200.8</ele>
        <time>2025-05-26T15:31:27.557Z</time>
      </trkpt>
      <trkpt lat="48.76547" lon="-0.40142">
        <ele>200.5</ele>
        <time>2025-05-26T15:31:30.455Z</time>
      </trkpt>
      <trkpt lat="48.76545" lon="-0.40144">
        <ele>200.3</ele>
        <time>2025-05-26T15:31:33.354Z</time>
      </trkpt>
      <trkpt lat="48.76541" lon="-0.40145">
        <ele>200.1</ele>
        <time>2025-05-26T15:31:37.839Z</time>
      </trkpt>
      <trkpt lat="48.76539" lon="-0.40144">
        <ele>200.3</ele>
        <time>2025-05-26T15:31:42.324Z</time>
      </trkpt>
      <trkpt lat="48.76537" lon="-0.40145">
        <ele>200.2</ele>
        <time>2025-05-26T15:31:46.809Z</time>
      </trkpt>
      <trkpt lat="48.76535" lon="-0.40145">
        <ele>200.1</ele>
        <time>2025-05-26T15:31:51.294Z</time>
      </trkpt>
      <trkpt lat="48.76532" lon="-0.40146">
        <ele>199.9</ele>
        <time>2025-05-26T15:31:55.779Z</time>
      </trkpt>
      <trkpt lat="48.7653" lon="-0.40148">
        <ele>199.7</ele>
        <time>2025-05-26T15:32:00.265Z</time>
      </trkpt>
      <trkpt lat="48.76527" lon="-0.40148">
        <ele>199.7</ele>
        <time>2025-05-26T15:32:04.751Z</time>
      </trkpt>
      <trkpt lat="48.76521" lon="-0.40151">
        <ele>199.5</ele>
        <time>2025-05-26T15:32:09.238Z</time>
      </trkpt>
      <trkpt lat="48.76513" lon="-0.40154">
        <ele>199.4</ele>
        <time>2025-05-26T15:32:14.947Z</time>
      </trkpt>
      <trkpt lat="48.76505" lon="-0.40156">
        <ele>199.4</ele>
        <time>2025-05-26T15:32:20.656Z</time>
      </trkpt>
      <trkpt lat="48.76497" lon="-0.40159">
        <ele>199.3</ele>
        <time>2025-05-26T15:32:26.365Z</time>
      </trkpt>
      <trkpt lat="48.76489" lon="-0.40161">
        <ele>199.5</ele>
        <time>2025-05-26T15:32:32.075Z</time>
      </trkpt>
      <trkpt lat="48.7649" lon="-0.40174">
        <ele>197.9</ele>
        <time>2025-05-26T15:32:37.325Z</time>
      </trkpt>
      <trkpt lat="48.7649" lon="-0.40187">
        <ele>196.5</ele>
        <time>2025-05-26T15:32:42.575Z</time>
      </trkpt>
      <trkpt lat="48.76488" lon="-0.40195">
        <ele>195.8</ele>
        <time>2025-05-26T15:32:45.836Z</time>
      </trkpt>
      <trkpt lat="48.76486" lon="-0.40202">
        <ele>195.1</ele>
        <time>2025-05-26T15:32:49.097Z</time>
      </trkpt>
      <trkpt lat="48.76484" lon="-0.4021">
        <ele>194.1</ele>
        <time>2025-05-26T15:32:52.358Z</time>
      </trkpt>
      <trkpt lat="48.76482" lon="-0.40217">
        <ele>193.3</ele>
        <time>2025-05-26T15:32:55.621Z</time>
      </trkpt>
      <trkpt lat="48.76484" lon="-0.40226">
        <ele>192.2</ele>
        <time>2025-05-26T15:32:59.363Z</time>
      </trkpt>
      <trkpt lat="48.76485" lon="-0.40235">
        <ele>191.4</ele>
        <time>2025-05-26T15:33:03.106Z</time>
      </trkpt>
      <trkpt lat="48.76483" lon="-0.40245">
        <ele>190.5</ele>
        <time>2025-05-26T15:33:07.485Z</time>
      </trkpt>
      <trkpt lat="48.76481" lon="-0.40256">
        <ele>189.6</ele>
        <time>2025-05-26T15:33:11.864Z</time>
      </trkpt>
      <trkpt lat="48.76479" lon="-0.40266">
        <ele>188.8</ele>
        <time>2025-05-26T15:33:16.244Z</time>
      </trkpt>
      <trkpt lat="48.76477" lon="-0.40277">
        <ele>188.1</ele>
        <time>2025-05-26T15:33:20.624Z</time>
      </trkpt>
      <trkpt lat="48.76474" lon="-0.40287">
        <ele>187.4</ele>
        <time>2025-05-26T15:33:25.004Z</time>
      </trkpt>
      <trkpt lat="48.76472" lon="-0.40297">
        <ele>186.6</ele>
        <time>2025-05-26T15:33:29.384Z</time>
      </trkpt>
      <trkpt lat="48.7647" lon="-0.40308">
        <ele>185.8</ele>
        <time>2025-05-26T15:33:33.764Z</time>
      </trkpt>
      <trkpt lat="48.76468" lon="-0.40318">
        <ele>185.3</ele>
        <time>2025-05-26T15:33:38.145Z</time>
      </trkpt>
      <trkpt lat="48.76466" lon="-0.4033">
        <ele>184.7</ele>
        <time>2025-05-26T15:33:43.077Z</time>
      </trkpt>
      <trkpt lat="48.76464" lon="-0.40342">
        <ele>183.3</ele>
        <time>2025-05-26T15:33:48.009Z</time>
      </trkpt>
      <trkpt lat="48.76461" lon="-0.40353">
        <ele>181.6</ele>
        <time>2025-05-26T15:33:52.942Z</time>
      </trkpt>
      <trkpt lat="48.76459" lon="-0.40365">
        <ele>179.8</ele>
        <time>2025-05-26T15:33:57.876Z</time>
      </trkpt>
      <trkpt lat="48.76451" lon="-0.40367">
        <ele>179.2</ele>
        <time>2025-05-26T15:34:03.122Z</time>
      </trkpt>
      <trkpt lat="48.76447" lon="-0.40368">
        <ele>178.8</ele>
      </trkpt>
      <trkpt lat="48.76442" lon="-0.40369">
        <ele>178.4</ele>
        <time>2025-05-26T15:34:08.368Z</time>
      </trkpt>
      <trkpt lat="48.76434" lon="-0.4037">
        <ele>177.6</ele>
        <time>2025-05-26T15:34:13.614Z</time>
      </trkpt>
      <trkpt lat="48.7643" lon="-0.40371">
        <ele>177.1</ele>
      </trkpt>
      <trkpt lat="48.76425" lon="-0.40372">
        <ele>176.6</ele>
        <time>2025-05-26T15:34:18.861Z</time>
      </trkpt>
      <trkpt lat="48.76417" lon="-0.40374">
        <ele>175.7</ele>
        <time>2025-05-26T15:34:24.018Z</time>
      </trkpt>
      <trkpt lat="48.76413" lon="-0.40375">
        <ele>175.4</ele>
      </trkpt>
      <trkpt lat="48.76408" lon="-0.40375">
        <ele>175.2</ele>
        <time>2025-05-26T15:34:29.175Z</time>
      </trkpt>
      <trkpt lat="48.764" lon="-0.40377">
        <ele>174.5</ele>
        <time>2025-05-26T15:34:34.332Z</time>
      </trkpt>
      <trkpt lat="48.76392" lon="-0.40378">
        <ele>174.1</ele>
        <time>2025-05-26T15:34:39.490Z</time>
      </trkpt>
      <trkpt lat="48.76388" lon="-0.40379">
        <ele>173.8</ele>
      </trkpt>
      <trkpt lat="48.76383" lon="-0.4038">
        <ele>173.7</ele>
        <time>2025-05-26T15:34:44.648Z</time>
      </trkpt>
      <trkpt lat="48.76375" lon="-0.40381">
        <ele>173.6</ele>
        <time>2025-05-26T15:34:49.806Z</time>
      </trkpt>
      <trkpt lat="48.76371" lon="-0.40382">
        <ele>173.6</ele>
      </trkpt>
      <trkpt lat="48.76366" lon="-0.40383">
        <ele>173.5</ele>
        <time>2025-05-26T15:34:54.964Z</time>
      </trkpt>
      <trkpt lat="48.76358" lon="-0.40384">
        <ele>173.4</ele>
        <time>2025-05-26T15:35:00.123Z</time>
      </trkpt>
      <trkpt lat="48.76352" lon="-0.40392">
        <ele>172</ele>
        <time>2025-05-26T15:35:05.242Z</time>
      </trkpt>
      <trkpt lat="48.76345" lon="-0.404">
        <ele>170</ele>
        <time>2025-05-26T15:35:10.362Z</time>
      </trkpt>
      <trkpt lat="48.76341" lon="-0.40402">
        <ele>169.4</ele>
        <time>2025-05-26T15:35:12.938Z</time>
      </trkpt>
      <trkpt lat="48.76334" lon="-0.40402">
        <ele>169.2</ele>
        <time>2025-05-26T15:35:17.066Z</time>
      </trkpt>
      <trkpt lat="48.76328" lon="-0.40402">
        <ele>168.8</ele>
        <time>2025-05-26T15:35:21.194Z</time>
      </trkpt>
      <trkpt lat="48.76321" lon="-0.40402">
        <ele>168.3</ele>
        <time>2025-05-26T15:35:25.322Z</time>
      </trkpt>
      <trkpt lat="48.76314" lon="-0.40402">
        <ele>167.8</ele>
        <time>2025-05-26T15:35:29.451Z</time>
      </trkpt>
      <trkpt lat="48.76308" lon="-0.40403">
        <ele>167.1</ele>
        <time>2025-05-26T15:35:33.278Z</time>
      </trkpt>
      <trkpt lat="48.76302" lon="-0.40403">
        <ele>166.8</ele>
        <time>2025-05-26T15:35:37.106Z</time>
      </trkpt>
      <trkpt lat="48.76295" lon="-0.40404">
        <ele>166.3</ele>
        <time>2025-05-26T15:35:40.934Z</time>
      </trkpt>
      <trkpt lat="48.76289" lon="-0.40404">
        <ele>166.1</ele>
        <time>2025-05-26T15:35:44.762Z</time>
      </trkpt>
      <trkpt lat="48.76281" lon="-0.40406">
        <ele>165.2</ele>
        <time>2025-05-26T15:35:49.995Z</time>
      </trkpt>
      <trkpt lat="48.76277" lon="-0.40407">
        <ele>164.9</ele>
      </trkpt>
      <trkpt lat="48.76272" lon="-0.40407">
        <ele>164.6</ele>
        <time>2025-05-26T15:35:55.229Z</time>
      </trkpt>
      <trkpt lat="48.76264" lon="-0.40409">
        <ele>163.9</ele>
        <time>2025-05-26T15:36:00.463Z</time>
      </trkpt>
      <trkpt lat="48.7626" lon="-0.4041">
        <ele>163.7</ele>
      </trkpt>
      <trkpt lat="48.76255" lon="-0.4041">
        <ele>163.5</ele>
        <time>2025-05-26T15:36:05.697Z</time>
      </trkpt>
      <trkpt lat="48.76248" lon="-0.4041">
        <ele>163.3</ele>
        <time>2025-05-26T15:36:10.316Z</time>
      </trkpt>
      <trkpt lat="48.76241" lon="-0.40409">
        <ele>163.2</ele>
        <time>2025-05-26T15:36:14.935Z</time>
      </trkpt>
      <trkpt lat="48.76233" lon="-0.40409">
        <ele>162.7</ele>
        <time>2025-05-26T15:36:19.555Z</time>
      </trkpt>
      <trkpt lat="48.76226" lon="-0.40408">
        <ele>162.5</ele>
        <time>2025-05-26T15:36:24.175Z</time>
      </trkpt>
      <trkpt lat="48.76219" lon="-0.40402">
        <ele>163</ele>
        <time>2025-05-26T15:36:30.756Z</time>
      </trkpt>
      <trkpt lat="48.76212" lon="-0.40396">
        <ele>163.4</ele>
        <time>2025-05-26T15:36:37.338Z</time>
      </trkpt>
      <trkpt lat="48.76209" lon="-0.40391">
        <ele>163.8</ele>
        <time>2025-05-26T15:36:40.638Z</time>
      </trkpt>
      <trkpt lat="48.76205" lon="-0.40387">
        <ele>164</ele>
        <time>2025-05-26T15:36:43.938Z</time>
      </trkpt>
      <trkpt lat="48.76202" lon="-0.40382">
        <ele>164.2</ele>
        <time>2025-05-26T15:36:47.238Z</time>
      </trkpt>
      <trkpt lat="48.76199" lon="-0.40377">
        <ele>164.4</ele>
        <time>2025-05-26T15:36:50.538Z</time>
      </trkpt>
      <trkpt lat="48.76195" lon="-0.40372">
        <ele>164.3</ele>
        <time>2025-05-26T15:36:53.838Z</time>
      </trkpt>
      <trkpt lat="48.76192" lon="-0.40368">
        <ele>164.2</ele>
        <time>2025-05-26T15:36:57.138Z</time>
      </trkpt>
      <trkpt lat="48.76188" lon="-0.40363">
        <ele>164</ele>
        <time>2025-05-26T15:37:00.438Z</time>
      </trkpt>
      <trkpt lat="48.76185" lon="-0.40358">
        <ele>163.7</ele>
        <time>2025-05-26T15:37:03.739Z</time>
      </trkpt>
      <trkpt lat="48.7618" lon="-0.4035">
        <ele>163.1</ele>
        <time>2025-05-26T15:37:08.331Z</time>
      </trkpt>
      <trkpt lat="48.76175" lon="-0.40341">
        <ele>162.1</ele>
        <time>2025-05-26T15:37:12.925Z</time>
      </trkpt>
      <trkpt lat="48.76177" lon="-0.40331">
        <ele>162.6</ele>
        <time>2025-05-26T15:37:18.496Z</time>
      </trkpt>
      <trkpt lat="48.76178" lon="-0.40321">
        <ele>163</ele>
        <time>2025-05-26T15:37:24.067Z</time>
      </trkpt>
      <trkpt lat="48.7618" lon="-0.40312">
        <ele>163.7</ele>
        <time>2025-05-26T15:37:30.953Z</time>
      </trkpt>
      <trkpt lat="48.76182" lon="-0.40302">
        <ele>164.5</ele>
        <time>2025-05-26T15:37:37.840Z</time>
      </trkpt>
      <trkpt lat="48.76187" lon="-0.403">
        <ele>166.1</ele>
        <time>2025-05-26T15:37:48.703Z</time>
      </trkpt>
      <trkpt lat="48.76192" lon="-0.40297">
        <ele>167.6</ele>
        <time>2025-05-26T15:37:59.566Z</time>
        <extensions>
          <visugpx:TrkExtension xmlns:visugpx="https://www.visugpx.com/editgpx/">
            <visugpx:node>19</visugpx:node>
            </visugpx:TrkExtension>
        </extensions>
      </trkpt>
      <trkpt lat="48.76194" lon="-0.40291">
        <ele>168.3</ele>
      </trkpt>
      <trkpt lat="48.76195" lon="-0.40284">
        <ele>169</ele>
        <time>2025-05-26T15:38:09.257Z</time>
      </trkpt>
      <trkpt lat="48.76197" lon="-0.40271">
        <ele>170</ele>
        <time>2025-05-26T15:38:18.949Z</time>
      </trkpt>
      <trkpt lat="48.76199" lon="-0.40265">
        <ele>170.7</ele>
      </trkpt>
      <trkpt lat="48.762" lon="-0.40258">
        <ele>171.4</ele>
        <time>2025-05-26T15:38:28.641Z</time>
      </trkpt>
      <trkpt lat="48.76202" lon="-0.40245">
        <ele>172.3</ele>
        <time>2025-05-26T15:38:38.333Z</time>
      </trkpt>
      <trkpt lat="48.76205" lon="-0.40239">
        <ele>173.3</ele>
        <time>2025-05-26T15:38:44.932Z</time>
      </trkpt>
      <trkpt lat="48.76208" lon="-0.40232">
        <ele>174.2</ele>
        <time>2025-05-26T15:38:51.531Z</time>
      </trkpt>
      <trkpt lat="48.76211" lon="-0.40226">
        <ele>175.1</ele>
        <time>2025-05-26T15:38:58.130Z</time>
      </trkpt>
      <trkpt lat="48.76214" lon="-0.40219">
        <ele>175.9</ele>
        <time>2025-05-26T15:39:04.729Z</time>
      </trkpt>
      <trkpt lat="48.76216" lon="-0.40213">
        <ele>176.4</ele>
        <time>2025-05-26T15:39:09.176Z</time>
      </trkpt>
      <trkpt lat="48.76218" lon="-0.40206">
        <ele>176.9</ele>
        <time>2025-05-26T15:39:13.623Z</time>
      </trkpt>
      <trkpt lat="48.76219" lon="-0.402">
        <ele>177.2</ele>
        <time>2025-05-26T15:39:18.070Z</time>
      </trkpt>
      <trkpt lat="48.76221" lon="-0.40193">
        <ele>177.7</ele>
        <time>2025-05-26T15:39:22.518Z</time>
      </trkpt>
      <trkpt lat="48.76221" lon="-0.40192">
        <ele>177.7</ele>
        <time>2025-05-26T15:39:22.979Z</time>
        <extensions>
          <visugpx:TrkExtension xmlns:visugpx="https://www.visugpx.com/editgpx/">
            <visugpx:node>20</visugpx:node>
            </visugpx:TrkExtension>
        </extensions>
      </trkpt>
      <trkpt lat="48.7622" lon="-0.40183">
        <ele>177.5</ele>
        <time>2025-05-26T15:39:26.935Z</time>
      </trkpt>
      <trkpt lat="48.76219" lon="-0.40174">
        <ele>177.3</ele>
        <time>2025-05-26T15:39:30.891Z</time>
      </trkpt>
      <trkpt lat="48.76218" lon="-0.40165">
        <ele>177.1</ele>
        <time>2025-05-26T15:39:34.847Z</time>
      </trkpt>
      <trkpt lat="48.76217" lon="-0.40157">
        <ele>177.2</ele>
        <time>2025-05-26T15:39:38.803Z</time>
      </trkpt>
      <trkpt lat="48.76215" lon="-0.40148">
        <ele>177.1</ele>
        <time>2025-05-26T15:39:42.760Z</time>
      </trkpt>
      <trkpt lat="48.76214" lon="-0.40139">
        <ele>177.2</ele>
        <time>2025-05-26T15:39:46.717Z</time>
      </trkpt>
      <trkpt lat="48.76213" lon="-0.4013">
        <ele>177</ele>
        <time>2025-05-26T15:39:50.674Z</time>
      </trkpt>
      <trkpt lat="48.76212" lon="-0.40121">
        <ele>176.8</ele>
        <time>2025-05-26T15:39:54.632Z</time>
      </trkpt>
      <trkpt lat="48.76213" lon="-0.40113">
        <ele>177</ele>
        <time>2025-05-26T15:39:59.801Z</time>
      </trkpt>
      <trkpt lat="48.76215" lon="-0.40105">
        <ele>177.6</ele>
        <time>2025-05-26T15:40:04.970Z</time>
      </trkpt>
      <trkpt lat="48.76216" lon="-0.40097">
        <ele>178.1</ele>
        <time>2025-05-26T15:40:10.139Z</time>
      </trkpt>
      <trkpt lat="48.76218" lon="-0.4009">
        <ele>178.7</ele>
        <time>2025-05-26T15:40:15.309Z</time>
      </trkpt>
      <trkpt lat="48.76219" lon="-0.40082">
        <ele>179.2</ele>
        <time>2025-05-26T15:40:20.479Z</time>
      </trkpt>
      <trkpt lat="48.7622" lon="-0.40074">
        <ele>179.7</ele>
        <time>2025-05-26T15:40:25.649Z</time>
      </trkpt>
      <trkpt lat="48.76222" lon="-0.40066">
        <ele>180.6</ele>
        <time>2025-05-26T15:40:30.819Z</time>
      </trkpt>
      <trkpt lat="48.76223" lon="-0.40058">
        <ele>181.1</ele>
        <time>2025-05-26T15:40:35.989Z</time>
      </trkpt>
      <trkpt lat="48.76222" lon="-0.40049">
        <ele>180.9</ele>
        <time>2025-05-26T15:40:39.731Z</time>
      </trkpt>
      <trkpt lat="48.7622" lon="-0.4004">
        <ele>180.4</ele>
        <time>2025-05-26T15:40:43.473Z</time>
      </trkpt>
      <trkpt lat="48.76219" lon="-0.40031">
        <ele>180.1</ele>
        <time>2025-05-26T15:40:47.215Z</time>
      </trkpt>
      <trkpt lat="48.76217" lon="-0.40022">
        <ele>179.5</ele>
        <time>2025-05-26T15:40:50.957Z</time>
      </trkpt>
      <trkpt lat="48.76216" lon="-0.40013">
        <ele>179.2</ele>
        <time>2025-05-26T15:40:54.700Z</time>
      </trkpt>
      <trkpt lat="48.76214" lon="-0.40004">
        <ele>178.6</ele>
        <time>2025-05-26T15:40:58.443Z</time>
      </trkpt>
      <trkpt lat="48.76213" lon="-0.39995">
        <ele>178.5</ele>
        <time>2025-05-26T15:41:02.186Z</time>
      </trkpt>
      <trkpt lat="48.76211" lon="-0.39986">
        <ele>178.1</ele>
        <time>2025-05-26T15:41:05.930Z</time>
      </trkpt>
      <trkpt lat="48.76212" lon="-0.39979">
        <ele>178.5</ele>
        <time>2025-05-26T15:41:10.660Z</time>
      </trkpt>
      <trkpt lat="48.76212" lon="-0.39972">
        <ele>178.7</ele>
        <time>2025-05-26T15:41:15.390Z</time>
      </trkpt>
      <trkpt lat="48.76213" lon="-0.39965">
        <ele>179.4</ele>
        <time>2025-05-26T15:41:20.120Z</time>
      </trkpt>
      <trkpt lat="48.76214" lon="-0.39958">
        <ele>180</ele>
        <time>2025-05-26T15:41:24.850Z</time>
      </trkpt>
      <trkpt lat="48.76214" lon="-0.3995">
        <ele>180.4</ele>
        <time>2025-05-26T15:41:29.580Z</time>
      </trkpt>
      <trkpt lat="48.76215" lon="-0.39943">
        <ele>181</ele>
        <time>2025-05-26T15:41:34.311Z</time>
      </trkpt>
      <trkpt lat="48.76215" lon="-0.39936">
        <ele>181.6</ele>
        <time>2025-05-26T15:41:39.042Z</time>
      </trkpt>
      <trkpt lat="48.76216" lon="-0.39929">
        <ele>182.4</ele>
        <time>2025-05-26T15:41:43.773Z</time>
      </trkpt>
      <trkpt lat="48.76214" lon="-0.3992">
        <ele>182.7</ele>
        <time>2025-05-26T15:41:48.717Z</time>
      </trkpt>
      <trkpt lat="48.76213" lon="-0.3991">
        <ele>183</ele>
        <time>2025-05-26T15:41:53.661Z</time>
      </trkpt>
      <trkpt lat="48.76211" lon="-0.39901">
        <ele>183</ele>
        <time>2025-05-26T15:41:58.605Z</time>
      </trkpt>
      <trkpt lat="48.76209" lon="-0.39891">
        <ele>183</ele>
        <time>2025-05-26T15:42:03.551Z</time>
      </trkpt>
      <trkpt lat="48.7621" lon="-0.39882">
        <ele>183.9</ele>
        <time>2025-05-26T15:42:09.791Z</time>
      </trkpt>
      <trkpt lat="48.76211" lon="-0.39874">
        <ele>184.6</ele>
        <time>2025-05-26T15:42:16.031Z</time>
      </trkpt>
      <trkpt lat="48.76212" lon="-0.39865">
        <ele>185.5</ele>
        <time>2025-05-26T15:42:22.271Z</time>
      </trkpt>
      <trkpt lat="48.76214" lon="-0.39856">
        <ele>186.5</ele>
        <time>2025-05-26T15:42:28.512Z</time>
      </trkpt>
      <trkpt lat="48.76215" lon="-0.39847">
        <ele>187.2</ele>
        <time>2025-05-26T15:42:34.753Z</time>
      </trkpt>
      <trkpt lat="48.76216" lon="-0.39839">
        <ele>187.8</ele>
        <time>2025-05-26T15:42:40.994Z</time>
      </trkpt>
      <trkpt lat="48.76217" lon="-0.3983">
        <ele>188.4</ele>
        <time>2025-05-26T15:42:47.235Z</time>
      </trkpt>
      <trkpt lat="48.76218" lon="-0.39821">
        <ele>188.8</ele>
        <time>2025-05-26T15:42:53.476Z</time>
      </trkpt>
      <trkpt lat="48.76219" lon="-0.39813">
        <ele>189.3</ele>
        <time>2025-05-26T15:42:58.174Z</time>
      </trkpt>
      <trkpt lat="48.76221" lon="-0.39805">
        <ele>189.8</ele>
        <time>2025-05-26T15:43:02.872Z</time>
      </trkpt>
      <trkpt lat="48.76222" lon="-0.39797">
        <ele>190</ele>
        <time>2025-05-26T15:43:07.570Z</time>
      </trkpt>
      <trkpt lat="48.76224" lon="-0.39789">
        <ele>190.3</ele>
        <time>2025-05-26T15:43:12.268Z</time>
      </trkpt>
      <trkpt lat="48.76225" lon="-0.3978">
        <ele>190.4</ele>
        <time>2025-05-26T15:43:16.966Z</time>
      </trkpt>
      <trkpt lat="48.76226" lon="-0.39772">
        <ele>190.7</ele>
        <time>2025-05-26T15:43:21.664Z</time>
      </trkpt>
      <trkpt lat="48.76228" lon="-0.39764">
        <ele>191.2</ele>
        <time>2025-05-26T15:43:26.363Z</time>
      </trkpt>
      <trkpt lat="48.76229" lon="-0.39756">
        <ele>191.6</ele>
        <time>2025-05-26T15:43:31.062Z</time>
      </trkpt>
      <trkpt lat="48.76229" lon="-0.39756">
        <ele>191.6</ele>
        <time>2025-05-26T15:43:31.062Z</time>
        <extensions>
          <visugpx:TrkExtension xmlns:visugpx="https://www.visugpx.com/editgpx/">
            <visugpx:node>21</visugpx:node>
            </visugpx:TrkExtension>
        </extensions>
      </trkpt>
      <trkpt lat="48.76229" lon="-0.39756">
        <ele>191.6</ele>
        <time>2025-05-26T15:43:31.062Z</time>
      </trkpt>
      <trkpt lat="48.7623" lon="-0.39749">
        <ele>191.9</ele>
        <time>2025-05-26T15:43:35.307Z</time>
      </trkpt>
      <trkpt lat="48.76231" lon="-0.39742">
        <ele>192</ele>
        <time>2025-05-26T15:43:39.552Z</time>
      </trkpt>
      <trkpt lat="48.76232" lon="-0.39735">
        <ele>192.2</ele>
        <time>2025-05-26T15:43:43.797Z</time>
      </trkpt>
      <trkpt lat="48.76233" lon="-0.39728">
        <ele>192.5</ele>
        <time>2025-05-26T15:43:48.042Z</time>
      </trkpt>
      <trkpt lat="48.76234" lon="-0.3972">
        <ele>192.8</ele>
        <time>2025-05-26T15:43:52.287Z</time>
      </trkpt>
      <trkpt lat="48.76235" lon="-0.39713">
        <ele>193.4</ele>
        <time>2025-05-26T15:43:56.532Z</time>
      </trkpt>
      <trkpt lat="48.76236" lon="-0.39706">
        <ele>193.9</ele>
        <time>2025-05-26T15:44:00.778Z</time>
      </trkpt>
      <trkpt lat="48.76237" lon="-0.39699">
        <ele>194.4</ele>
        <time>2025-05-26T15:44:05.024Z</time>
      </trkpt>
      <trkpt lat="48.7624" lon="-0.39687">
        <ele>195</ele>
        <time>2025-05-26T15:44:12.131Z</time>
      </trkpt>
      <trkpt lat="48.76242" lon="-0.39674">
        <ele>195.3</ele>
        <time>2025-05-26T15:44:19.238Z</time>
      </trkpt>
      <trkpt lat="48.76244" lon="-0.39667">
        <ele>195.6</ele>
        <time>2025-05-26T15:44:23.903Z</time>
      </trkpt>
      <trkpt lat="48.76247" lon="-0.3966">
        <ele>196</ele>
        <time>2025-05-26T15:44:28.568Z</time>
      </trkpt>
      <trkpt lat="48.76249" lon="-0.39653">
        <ele>196.4</ele>
        <time>2025-05-26T15:44:33.233Z</time>
      </trkpt>
      <trkpt lat="48.76251" lon="-0.39646">
        <ele>196.9</ele>
        <time>2025-05-26T15:44:37.898Z</time>
      </trkpt>
      <trkpt lat="48.76253" lon="-0.39638">
        <ele>197.4</ele>
        <time>2025-05-26T15:44:42.563Z</time>
      </trkpt>
      <trkpt lat="48.76256" lon="-0.39631">
        <ele>197.9</ele>
        <time>2025-05-26T15:44:47.229Z</time>
      </trkpt>
      <trkpt lat="48.76258" lon="-0.39624">
        <ele>198.2</ele>
        <time>2025-05-26T15:44:51.895Z</time>
      </trkpt>
      <trkpt lat="48.7626" lon="-0.39617">
        <ele>198.4</ele>
        <time>2025-05-26T15:44:56.561Z</time>
      </trkpt>
      <trkpt lat="48.76265" lon="-0.39613">
        <ele>199.2</ele>
        <time>2025-05-26T15:45:01.714Z</time>
      </trkpt>
      <trkpt lat="48.76269" lon="-0.3961">
        <ele>199.7</ele>
        <time>2025-05-26T15:45:06.867Z</time>
      </trkpt>
      <trkpt lat="48.76274" lon="-0.39606">
        <ele>200.5</ele>
        <time>2025-05-26T15:45:12.020Z</time>
      </trkpt>
      <trkpt lat="48.76279" lon="-0.39603">
        <ele>201.1</ele>
        <time>2025-05-26T15:45:17.173Z</time>
      </trkpt>
      <trkpt lat="48.76283" lon="-0.39599">
        <ele>201.6</ele>
        <time>2025-05-26T15:45:22.326Z</time>
      </trkpt>
      <trkpt lat="48.76288" lon="-0.39596">
        <ele>202.1</ele>
        <time>2025-05-26T15:45:27.479Z</time>
      </trkpt>
      <trkpt lat="48.76293" lon="-0.39592">
        <ele>202.6</ele>
        <time>2025-05-26T15:45:32.632Z</time>
      </trkpt>
      <trkpt lat="48.76298" lon="-0.39589">
        <ele>203.2</ele>
        <time>2025-05-26T15:45:37.785Z</time>
      </trkpt>
      <trkpt lat="48.76302" lon="-0.39585">
        <ele>203.6</ele>
        <time>2025-05-26T15:45:42.938Z</time>
      </trkpt>
      <trkpt lat="48.76307" lon="-0.39581">
        <ele>204.2</ele>
        <time>2025-05-26T15:45:48.091Z</time>
      </trkpt>
      <trkpt lat="48.76312" lon="-0.39578">
        <ele>204.7</ele>
        <time>2025-05-26T15:45:53.244Z</time>
      </trkpt>
      <trkpt lat="48.76316" lon="-0.39574">
        <ele>205.1</ele>
        <time>2025-05-26T15:45:58.397Z</time>
      </trkpt>
      <trkpt lat="48.76321" lon="-0.39571">
        <ele>205.7</ele>
        <time>2025-05-26T15:46:03.550Z</time>
      </trkpt>
      <trkpt lat="48.76326" lon="-0.39567">
        <ele>206.2</ele>
        <time>2025-05-26T15:46:08.703Z</time>
      </trkpt>
      <trkpt lat="48.7633" lon="-0.39564">
        <ele>206.6</ele>
        <time>2025-05-26T15:46:13.856Z</time>
      </trkpt>
      <trkpt lat="48.76335" lon="-0.3956">
        <ele>207.2</ele>
        <time>2025-05-26T15:46:19.010Z</time>
      </trkpt>
      <trkpt lat="48.76341" lon="-0.39555">
        <ele>207.8</ele>
        <time>2025-05-26T15:46:25.272Z</time>
      </trkpt>
      <trkpt lat="48.76347" lon="-0.39551">
        <ele>208.4</ele>
        <time>2025-05-26T15:46:31.534Z</time>
      </trkpt>
      <trkpt lat="48.76353" lon="-0.39546">
        <ele>208.9</ele>
        <time>2025-05-26T15:46:37.796Z</time>
      </trkpt>
      <trkpt lat="48.7636" lon="-0.39542">
        <ele>209.4</ele>
        <time>2025-05-26T15:46:44.058Z</time>
      </trkpt>
      <trkpt lat="48.76366" lon="-0.39537">
        <ele>210</ele>
        <time>2025-05-26T15:46:50.320Z</time>
      </trkpt>
      <trkpt lat="48.76372" lon="-0.39532">
        <ele>210.7</ele>
        <time>2025-05-26T15:46:56.582Z</time>
      </trkpt>
      <trkpt lat="48.76378" lon="-0.39528">
        <ele>211.4</ele>
        <time>2025-05-26T15:47:02.844Z</time>
      </trkpt>
      <trkpt lat="48.76384" lon="-0.39523">
        <ele>212</ele>
        <time>2025-05-26T15:47:09.106Z</time>
      </trkpt>
      <trkpt lat="48.7639" lon="-0.39518">
        <ele>212.4</ele>
        <time>2025-05-26T15:47:15.368Z</time>
      </trkpt>
      <trkpt lat="48.76396" lon="-0.39514">
        <ele>212.9</ele>
        <time>2025-05-26T15:47:21.631Z</time>
      </trkpt>
      <trkpt lat="48.76402" lon="-0.39509">
        <ele>213.4</ele>
        <time>2025-05-26T15:47:27.894Z</time>
      </trkpt>
      <trkpt lat="48.76409" lon="-0.39505">
        <ele>214.1</ele>
        <time>2025-05-26T15:47:34.157Z</time>
      </trkpt>
      <trkpt lat="48.76415" lon="-0.395">
        <ele>214.8</ele>
        <time>2025-05-26T15:47:40.420Z</time>
      </trkpt>
      <trkpt lat="48.76421" lon="-0.39495">
        <ele>215.3</ele>
        <time>2025-05-26T15:47:46.683Z</time>
      </trkpt>
      <trkpt lat="48.76427" lon="-0.39491">
        <ele>215.8</ele>
        <time>2025-05-26T15:47:52.946Z</time>
      </trkpt>
      <trkpt lat="48.76433" lon="-0.39486">
        <ele>216.3</ele>
        <time>2025-05-26T15:47:59.209Z</time>
      </trkpt>
      <trkpt lat="48.76438" lon="-0.39482">
        <ele>216.7</ele>
        <time>2025-05-26T15:48:04.271Z</time>
      </trkpt>
      <trkpt lat="48.76444" lon="-0.39479">
        <ele>217.2</ele>
        <time>2025-05-26T15:48:09.333Z</time>
      </trkpt>
      <trkpt lat="48.76449" lon="-0.39475">
        <ele>217.6</ele>
        <time>2025-05-26T15:48:14.395Z</time>
      </trkpt>
      <trkpt lat="48.76454" lon="-0.39471">
        <ele>218</ele>
        <time>2025-05-26T15:48:19.458Z</time>
      </trkpt>
      <trkpt lat="48.76462" lon="-0.39468">
        <ele>218.6</ele>
        <time>2025-05-26T15:48:27.048Z</time>
      </trkpt>
      <trkpt lat="48.76469" lon="-0.3947">
        <ele>219.5</ele>
        <time>2025-05-26T15:48:34.088Z</time>
      </trkpt>
      <trkpt lat="48.76476" lon="-0.39472">
        <ele>220.1</ele>
        <time>2025-05-26T15:48:41.128Z</time>
      </trkpt>
      <trkpt lat="48.76482" lon="-0.39473">
        <ele>220.4</ele>
        <time>2025-05-26T15:48:46.488Z</time>
      </trkpt>
      <trkpt lat="48.76488" lon="-0.39473">
        <ele>220.6</ele>
        <time>2025-05-26T15:48:51.848Z</time>
      </trkpt>
      <trkpt lat="48.76494" lon="-0.39474">
        <ele>220.9</ele>
        <time>2025-05-26T15:48:57.208Z</time>
      </trkpt>
      <trkpt lat="48.76501" lon="-0.39475">
        <ele>221.4</ele>
        <time>2025-05-26T15:49:02.569Z</time>
      </trkpt>
      <trkpt lat="48.76507" lon="-0.39475">
        <ele>221.8</ele>
        <time>2025-05-26T15:49:07.930Z</time>
      </trkpt>
      <trkpt lat="48.76513" lon="-0.39476">
        <ele>222.4</ele>
        <time>2025-05-26T15:49:13.291Z</time>
      </trkpt>
      <trkpt lat="48.76519" lon="-0.39476">
        <ele>222.9</ele>
        <time>2025-05-26T15:49:18.652Z</time>
      </trkpt>
      <trkpt lat="48.76525" lon="-0.39477">
        <ele>223.5</ele>
        <time>2025-05-26T15:49:24.013Z</time>
      </trkpt>
      <trkpt lat="48.76532" lon="-0.39476">
        <ele>224.3</ele>
        <time>2025-05-26T15:49:31.067Z</time>
      </trkpt>
      <trkpt lat="48.76538" lon="-0.39475">
        <ele>225.2</ele>
        <time>2025-05-26T15:49:38.122Z</time>
      </trkpt>
      <trkpt lat="48.76544" lon="-0.39473">
        <ele>226</ele>
        <time>2025-05-26T15:49:45.164Z</time>
      </trkpt>
      <trkpt lat="48.7655" lon="-0.39471">
        <ele>227</ele>
        <time>2025-05-26T15:49:52.207Z</time>
      </trkpt>
      <trkpt lat="48.76557" lon="-0.3947">
        <ele>228.1</ele>
        <time>2025-05-26T15:49:59.763Z</time>
      </trkpt>
      <trkpt lat="48.76564" lon="-0.39468">
        <ele>228.8</ele>
        <time>2025-05-26T15:50:07.320Z</time>
      </trkpt>
      <trkpt lat="48.76569" lon="-0.39467">
        <ele>229.4</ele>
        <time>2025-05-26T15:50:12.371Z</time>
      </trkpt>
      <trkpt lat="48.76574" lon="-0.39466">
        <ele>229.9</ele>
        <time>2025-05-26T15:50:17.422Z</time>
      </trkpt>
      <trkpt lat="48.76579" lon="-0.39467">
        <ele>230.5</ele>
        <time>2025-05-26T15:50:22.634Z</time>
      </trkpt>
      <trkpt lat="48.76584" lon="-0.39467">
        <ele>231.1</ele>
        <time>2025-05-26T15:50:27.847Z</time>
      </trkpt>
      <trkpt lat="48.7659" lon="-0.39469">
        <ele>231.7</ele>
        <time>2025-05-26T15:50:33.410Z</time>
      </trkpt>
      <trkpt lat="48.76595" lon="-0.3947">
        <ele>232.3</ele>
        <time>2025-05-26T15:50:38.974Z</time>
      </trkpt>
      <trkpt lat="48.76602" lon="-0.39472">
        <ele>233</ele>
        <time>2025-05-26T15:50:45.499Z</time>
      </trkpt>
      <trkpt lat="48.76608" lon="-0.39473">
        <ele>233.7</ele>
        <time>2025-05-26T15:50:52.024Z</time>
      </trkpt>
      <trkpt lat="48.76615" lon="-0.39475">
        <ele>234.4</ele>
        <time>2025-05-26T15:50:58.728Z</time>
      </trkpt>
      <trkpt lat="48.76622" lon="-0.39477">
        <ele>235</ele>
        <time>2025-05-26T15:51:05.433Z</time>
      </trkpt>
      <trkpt lat="48.7663" lon="-0.39479">
        <ele>235.6</ele>
        <time>2025-05-26T15:51:12.596Z</time>
      </trkpt>
      <trkpt lat="48.76638" lon="-0.3948">
        <ele>236.2</ele>
        <time>2025-05-26T15:51:19.760Z</time>
      </trkpt>
      <trkpt lat="48.76638" lon="-0.39469">
        <ele>235.9</ele>
        <time>2025-05-26T15:51:24.236Z</time>
      </trkpt>
      <trkpt lat="48.76638" lon="-0.3946">
        <ele>235.9</ele>
        <time>2025-05-26T15:51:28.396Z</time>
      </trkpt>
      <trkpt lat="48.76637" lon="-0.39451">
        <ele>235.9</ele>
        <time>2025-05-26T15:51:32.558Z</time>
      </trkpt>
      <trkpt lat="48.76637" lon="-0.39444">
        <ele>235.9</ele>
        <time>2025-05-26T15:51:36.087Z</time>
      </trkpt>
      <trkpt lat="48.76636" lon="-0.39437">
        <ele>236</ele>
        <time>2025-05-26T15:51:39.616Z</time>
      </trkpt>
      <trkpt lat="48.76636" lon="-0.3943">
        <ele>236.3</ele>
        <time>2025-05-26T15:51:43.145Z</time>
      </trkpt>
      <trkpt lat="48.76635" lon="-0.39423">
        <ele>236.4</ele>
        <time>2025-05-26T15:51:46.675Z</time>
      </trkpt>
      <trkpt lat="48.76634" lon="-0.39414">
        <ele>236.6</ele>
        <time>2025-05-26T15:51:51.469Z</time>
      </trkpt>
      <trkpt lat="48.76633" lon="-0.39405">
        <ele>236.9</ele>
        <time>2025-05-26T15:51:56.265Z</time>
      </trkpt>
      <trkpt lat="48.76632" lon="-0.39397">
        <ele>237.1</ele>
        <time>2025-05-26T15:52:00.748Z</time>
      </trkpt>
      <trkpt lat="48.76631" lon="-0.39389">
        <ele>237.4</ele>
        <time>2025-05-26T15:52:05.231Z</time>
      </trkpt>
      <trkpt lat="48.7663" lon="-0.39381">
        <ele>237.7</ele>
        <time>2025-05-26T15:52:09.714Z</time>
      </trkpt>
      <trkpt lat="48.76629" lon="-0.39373">
        <ele>238.1</ele>
        <time>2025-05-26T15:52:14.198Z</time>
      </trkpt>
      <trkpt lat="48.76627" lon="-0.39363">
        <ele>238.5</ele>
        <time>2025-05-26T15:52:20.178Z</time>
      </trkpt>
      <trkpt lat="48.76624" lon="-0.39352">
        <ele>238.8</ele>
        <time>2025-05-26T15:52:26.160Z</time>
      </trkpt>
      <trkpt lat="48.76621" lon="-0.39342">
        <ele>239</ele>
        <time>2025-05-26T15:52:31.802Z</time>
      </trkpt>
      <trkpt lat="48.76618" lon="-0.39332">
        <ele>239.3</ele>
        <time>2025-05-26T15:52:37.445Z</time>
      </trkpt>
      <trkpt lat="48.76616" lon="-0.39325">
        <ele>239.5</ele>
        <time>2025-05-26T15:52:41.639Z</time>
      </trkpt>
      <trkpt lat="48.76614" lon="-0.39317">
        <ele>239.7</ele>
        <time>2025-05-26T15:52:45.835Z</time>
      </trkpt>
      <trkpt lat="48.7661" lon="-0.39306">
        <ele>239.9</ele>
        <time>2025-05-26T15:52:52.077Z</time>
      </trkpt>
      <trkpt lat="48.76607" lon="-0.393">
        <ele>239.7</ele>
        <time>2025-05-26T15:52:55.451Z</time>
      </trkpt>
      <trkpt lat="48.76603" lon="-0.39294">
        <ele>239.4</ele>
        <time>2025-05-26T15:52:58.825Z</time>
      </trkpt>
      <trkpt lat="48.766" lon="-0.39288">
        <ele>239.2</ele>
        <time>2025-05-26T15:53:02.199Z</time>
      </trkpt>
      <trkpt lat="48.76597" lon="-0.39282">
        <ele>239</ele>
        <time>2025-05-26T15:53:05.573Z</time>
      </trkpt>
      <trkpt lat="48.76593" lon="-0.39275">
        <ele>238.8</ele>
        <time>2025-05-26T15:53:08.947Z</time>
      </trkpt>
      <trkpt lat="48.7659" lon="-0.39269">
        <ele>238.8</ele>
        <time>2025-05-26T15:53:12.321Z</time>
      </trkpt>
      <trkpt lat="48.76586" lon="-0.39263">
        <ele>238.7</ele>
        <time>2025-05-26T15:53:15.695Z</time>
      </trkpt>
      <trkpt lat="48.76583" lon="-0.39257">
        <ele>238.7</ele>
        <time>2025-05-26T15:53:19.071Z</time>
      </trkpt>
      <trkpt lat="48.7659" lon="-0.39257">
        <ele>239.2</ele>
        <time>2025-05-26T15:53:24.573Z</time>
      </trkpt>
      <trkpt lat="48.76596" lon="-0.39256">
        <ele>239.7</ele>
        <time>2025-05-26T15:53:30.075Z</time>
      </trkpt>
      <trkpt lat="48.76603" lon="-0.39256">
        <ele>240.2</ele>
        <time>2025-05-26T15:53:35.577Z</time>
      </trkpt>
      <trkpt lat="48.76609" lon="-0.39255">
        <ele>240.7</ele>
        <time>2025-05-26T15:53:41.079Z</time>
      </trkpt>
      <trkpt lat="48.76616" lon="-0.39255">
        <ele>241</ele>
        <time>2025-05-26T15:53:46.582Z</time>
      </trkpt>
      <trkpt lat="48.76622" lon="-0.39254">
        <ele>241.2</ele>
        <time>2025-05-26T15:53:52.085Z</time>
      </trkpt>
      <trkpt lat="48.76629" lon="-0.39254">
        <ele>241.5</ele>
        <time>2025-05-26T15:53:57.588Z</time>
      </trkpt>
      <trkpt lat="48.76635" lon="-0.39253">
        <ele>241.8</ele>
        <time>2025-05-26T15:54:03.091Z</time>
      </trkpt>
      <trkpt lat="48.76638" lon="-0.3926">
        <ele>241.6</ele>
        <time>2025-05-26T15:54:07.009Z</time>
      </trkpt>
      <trkpt lat="48.76642" lon="-0.39267">
        <ele>241.5</ele>
        <time>2025-05-26T15:54:10.927Z</time>
      </trkpt>
      <trkpt lat="48.76645" lon="-0.39274">
        <ele>241.3</ele>
        <time>2025-05-26T15:54:14.845Z</time>
      </trkpt>
      <trkpt lat="48.76648" lon="-0.39281">
        <ele>241.3</ele>
        <time>2025-05-26T15:54:18.763Z</time>
      </trkpt>
      <trkpt lat="48.76651" lon="-0.39288">
        <ele>241.4</ele>
        <time>2025-05-26T15:54:22.681Z</time>
      </trkpt>
      <trkpt lat="48.76655" lon="-0.39295">
        <ele>241.6</ele>
        <time>2025-05-26T15:54:26.599Z</time>
      </trkpt>
      <trkpt lat="48.76658" lon="-0.39302">
        <ele>241.7</ele>
        <time>2025-05-26T15:54:30.517Z</time>
      </trkpt>
      <trkpt lat="48.76661" lon="-0.39309">
        <ele>241.7</ele>
        <time>2025-05-26T15:54:34.436Z</time>
      </trkpt>
      <trkpt lat="48.76665" lon="-0.39314">
        <ele>241.6</ele>
        <time>2025-05-26T15:54:37.640Z</time>
      </trkpt>
      <trkpt lat="48.76668" lon="-0.39319">
        <ele>241.5</ele>
        <time>2025-05-26T15:54:40.844Z</time>
      </trkpt>
      <trkpt lat="48.76672" lon="-0.39324">
        <ele>241.5</ele>
        <time>2025-05-26T15:54:44.048Z</time>
      </trkpt>
      <trkpt lat="48.76675" lon="-0.39329">
        <ele>241.4</ele>
        <time>2025-05-26T15:54:47.252Z</time>
      </trkpt>
      <trkpt lat="48.76678" lon="-0.39334">
        <ele>241.4</ele>
        <time>2025-05-26T15:54:50.382Z</time>
      </trkpt>
      <trkpt lat="48.76682" lon="-0.39339">
        <ele>241.3</ele>
        <time>2025-05-26T15:54:53.512Z</time>
      </trkpt>
      <trkpt lat="48.76685" lon="-0.39344">
        <ele>241.3</ele>
        <time>2025-05-26T15:54:56.642Z</time>
      </trkpt>
      <trkpt lat="48.76688" lon="-0.39349">
        <ele>241.2</ele>
        <time>2025-05-26T15:54:59.773Z</time>
      </trkpt>
      <trkpt lat="48.76692" lon="-0.39357">
        <ele>241.1</ele>
        <time>2025-05-26T15:55:03.902Z</time>
      </trkpt>
      <trkpt lat="48.76696" lon="-0.39364">
        <ele>240.9</ele>
        <time>2025-05-26T15:55:08.031Z</time>
      </trkpt>
      <trkpt lat="48.76699" lon="-0.39372">
        <ele>240.7</ele>
        <time>2025-05-26T15:55:12.160Z</time>
      </trkpt>
      <trkpt lat="48.76703" lon="-0.39379">
        <ele>240.8</ele>
        <time>2025-05-26T15:55:16.290Z</time>
      </trkpt>
      <trkpt lat="48.76707" lon="-0.39389">
        <ele>240.9</ele>
        <time>2025-05-26T15:55:21.413Z</time>
      </trkpt>
      <trkpt lat="48.7671" lon="-0.39398">
        <ele>240.9</ele>
        <time>2025-05-26T15:55:26.536Z</time>
      </trkpt>
      <trkpt lat="48.76713" lon="-0.39406">
        <ele>240.9</ele>
        <time>2025-05-26T15:55:30.201Z</time>
      </trkpt>
      <trkpt lat="48.76715" lon="-0.39413">
        <ele>240.8</ele>
        <time>2025-05-26T15:55:33.866Z</time>
      </trkpt>
      <trkpt lat="48.76718" lon="-0.39421">
        <ele>240.7</ele>
        <time>2025-05-26T15:55:37.531Z</time>
      </trkpt>
      <trkpt lat="48.7672" lon="-0.39428">
        <ele>240.5</ele>
        <time>2025-05-26T15:55:41.196Z</time>
      </trkpt>
      <trkpt lat="48.76725" lon="-0.39439">
        <ele>240.4</ele>
        <time>2025-05-26T15:55:47.269Z</time>
      </trkpt>
      <trkpt lat="48.76729" lon="-0.3945">
        <ele>240.6</ele>
        <time>2025-05-26T15:55:53.343Z</time>
      </trkpt>
      <trkpt lat="48.76731" lon="-0.39442">
        <ele>240.7</ele>
        <time>2025-05-26T15:55:57.497Z</time>
      </trkpt>
      <trkpt lat="48.76733" lon="-0.39435">
        <ele>241</ele>
        <time>2025-05-26T15:56:01.651Z</time>
      </trkpt>
      <trkpt lat="48.76735" lon="-0.39427">
        <ele>241.3</ele>
        <time>2025-05-26T15:56:05.805Z</time>
      </trkpt>
      <trkpt lat="48.76737" lon="-0.3942">
        <ele>241.5</ele>
        <time>2025-05-26T15:56:09.959Z</time>
      </trkpt>
      <trkpt lat="48.76738" lon="-0.39412">
        <ele>241.6</ele>
        <time>2025-05-26T15:56:14.113Z</time>
      </trkpt>
      <trkpt lat="48.7674" lon="-0.39404">
        <ele>241.8</ele>
        <time>2025-05-26T15:56:18.267Z</time>
      </trkpt>
      <trkpt lat="48.76742" lon="-0.39397">
        <ele>241.9</ele>
        <time>2025-05-26T15:56:22.421Z</time>
      </trkpt>
      <trkpt lat="48.76744" lon="-0.39389">
        <ele>242</ele>
        <time>2025-05-26T15:56:26.576Z</time>
      </trkpt>
      <trkpt lat="48.76743" lon="-0.39376">
        <ele>241.9</ele>
        <time>2025-05-26T15:56:32.779Z</time>
      </trkpt>
      <trkpt lat="48.76743" lon="-0.39363">
        <ele>241.8</ele>
        <time>2025-05-26T15:56:38.982Z</time>
      </trkpt>
      <trkpt lat="48.76742" lon="-0.3935">
        <ele>241.8</ele>
        <time>2025-05-26T15:56:45.186Z</time>
      </trkpt>
      <trkpt lat="48.76741" lon="-0.39338">
        <ele>241.9</ele>
        <time>2025-05-26T15:56:51.390Z</time>
      </trkpt>
      <trkpt lat="48.7674" lon="-0.39325">
        <ele>242.2</ele>
        <time>2025-05-26T15:56:57.594Z</time>
      </trkpt>
      <trkpt lat="48.7674" lon="-0.39312">
        <ele>242.5</ele>
        <time>2025-05-26T15:57:03.798Z</time>
      </trkpt>
      <trkpt lat="48.76739" lon="-0.39299">
        <ele>242.7</ele>
        <time>2025-05-26T15:57:10.002Z</time>
      </trkpt>
      <trkpt lat="48.76738" lon="-0.39286">
        <ele>242.9</ele>
        <time>2025-05-26T15:57:16.207Z</time>
        <extensions>
          <visugpx:TrkExtension xmlns:visugpx="https://www.visugpx.com/editgpx/">
            <visugpx:node>22</visugpx:node>
            </visugpx:TrkExtension>
        </extensions>
      </trkpt>
      <trkpt lat="48.76741" lon="-0.39279">
        <ele>243</ele>
        <time>2025-05-26T15:57:20.249Z</time>
      </trkpt>
      <trkpt lat="48.76743" lon="-0.39272">
        <ele>243.2</ele>
        <time>2025-05-26T15:57:24.291Z</time>
      </trkpt>
      <trkpt lat="48.76746" lon="-0.39264">
        <ele>243.4</ele>
        <time>2025-05-26T15:57:28.333Z</time>
      </trkpt>
      <trkpt lat="48.76748" lon="-0.39257">
        <ele>243.7</ele>
        <time>2025-05-26T15:57:32.375Z</time>
      </trkpt>
      <trkpt lat="48.76751" lon="-0.3925">
        <ele>244</ele>
        <time>2025-05-26T15:57:36.417Z</time>
      </trkpt>
      <trkpt lat="48.76753" lon="-0.39243">
        <ele>244</ele>
        <time>2025-05-26T15:57:40.459Z</time>
      </trkpt>
      <trkpt lat="48.76756" lon="-0.39236">
        <ele>244.1</ele>
        <time>2025-05-26T15:57:44.501Z</time>
      </trkpt>
      <trkpt lat="48.76758" lon="-0.39229">
        <ele>244.2</ele>
        <time>2025-05-26T15:57:48.543Z</time>
      </trkpt>
      <trkpt lat="48.76761" lon="-0.39221">
        <ele>244.4</ele>
        <time>2025-05-26T15:57:52.585Z</time>
      </trkpt>
      <trkpt lat="48.76763" lon="-0.39214">
        <ele>244.6</ele>
        <time>2025-05-26T15:57:56.627Z</time>
      </trkpt>
      <trkpt lat="48.76766" lon="-0.39207">
        <ele>244.8</ele>
        <time>2025-05-26T15:58:00.669Z</time>
      </trkpt>
      <trkpt lat="48.76768" lon="-0.392">
        <ele>244.9</ele>
        <time>2025-05-26T15:58:04.711Z</time>
      </trkpt>
      <trkpt lat="48.76771" lon="-0.39193">
        <ele>245</ele>
        <time>2025-05-26T15:58:08.753Z</time>
      </trkpt>
      <trkpt lat="48.76773" lon="-0.39185">
        <ele>245</ele>
        <time>2025-05-26T15:58:12.796Z</time>
      </trkpt>
      <trkpt lat="48.76776" lon="-0.39178">
        <ele>245</ele>
        <time>2025-05-26T15:58:16.839Z</time>
      </trkpt>
      <trkpt lat="48.76778" lon="-0.39171">
        <ele>245</ele>
        <time>2025-05-26T15:58:20.882Z</time>
      </trkpt>
      <trkpt lat="48.76782" lon="-0.39161">
        <ele>245.2</ele>
        <time>2025-05-26T15:58:26.435Z</time>
      </trkpt>
      <trkpt lat="48.76786" lon="-0.39152">
        <ele>245.3</ele>
        <time>2025-05-26T15:58:31.988Z</time>
      </trkpt>
      <trkpt lat="48.7679" lon="-0.39142">
        <ele>245.4</ele>
        <time>2025-05-26T15:58:37.541Z</time>
      </trkpt>
      <trkpt lat="48.76794" lon="-0.39132">
        <ele>245.7</ele>
        <time>2025-05-26T15:58:43.094Z</time>
      </trkpt>
      <trkpt lat="48.76797" lon="-0.39122">
        <ele>245.9</ele>
        <time>2025-05-26T15:58:48.647Z</time>
      </trkpt>
      <trkpt lat="48.76801" lon="-0.39113">
        <ele>246</ele>
        <time>2025-05-26T15:58:54.200Z</time>
      </trkpt>
      <trkpt lat="48.76805" lon="-0.39103">
        <ele>246</ele>
        <time>2025-05-26T15:58:59.753Z</time>
      </trkpt>
      <trkpt lat="48.76809" lon="-0.39093">
        <ele>246.1</ele>
        <time>2025-05-26T15:59:05.307Z</time>
      </trkpt>
      <trkpt lat="48.76812" lon="-0.39084">
        <ele>246.2</ele>
        <time>2025-05-26T15:59:09.867Z</time>
      </trkpt>
      <trkpt lat="48.76814" lon="-0.39075">
        <ele>246.3</ele>
        <time>2025-05-26T15:59:14.427Z</time>
      </trkpt>
      <trkpt lat="48.76817" lon="-0.39066">
        <ele>246.4</ele>
        <time>2025-05-26T15:59:18.987Z</time>
      </trkpt>
      <trkpt lat="48.7682" lon="-0.39057">
        <ele>246.5</ele>
        <time>2025-05-26T15:59:23.547Z</time>
      </trkpt>
      <trkpt lat="48.76822" lon="-0.39047">
        <ele>246.4</ele>
        <time>2025-05-26T15:59:28.107Z</time>
      </trkpt>
      <trkpt lat="48.76825" lon="-0.39038">
        <ele>246.3</ele>
        <time>2025-05-26T15:59:32.667Z</time>
      </trkpt>
      <trkpt lat="48.76827" lon="-0.39029">
        <ele>246</ele>
        <time>2025-05-26T15:59:37.227Z</time>
      </trkpt>
      <trkpt lat="48.7683" lon="-0.3902">
        <ele>246</ele>
        <time>2025-05-26T15:59:41.788Z</time>
      </trkpt>
      <trkpt lat="48.76833" lon="-0.39011">
        <ele>246</ele>
        <time>2025-05-26T15:59:46.398Z</time>
      </trkpt>
      <trkpt lat="48.76835" lon="-0.39002">
        <ele>246.1</ele>
        <time>2025-05-26T15:59:51.008Z</time>
      </trkpt>
      <trkpt lat="48.76838" lon="-0.38993">
        <ele>246.2</ele>
        <time>2025-05-26T15:59:55.618Z</time>
      </trkpt>
      <trkpt lat="48.7684" lon="-0.38984">
        <ele>246.2</ele>
        <time>2025-05-26T16:00:00.228Z</time>
      </trkpt>
      <trkpt lat="48.76843" lon="-0.38975">
        <ele>246.3</ele>
        <time>2025-05-26T16:00:04.838Z</time>
      </trkpt>
      <trkpt lat="48.76845" lon="-0.38966">
        <ele>246.4</ele>
        <time>2025-05-26T16:00:09.448Z</time>
      </trkpt>
      <trkpt lat="48.76848" lon="-0.38957">
        <ele>246.5</ele>
        <time>2025-05-26T16:00:14.058Z</time>
      </trkpt>
      <trkpt lat="48.7685" lon="-0.38949">
        <ele>246.6</ele>
        <time>2025-05-26T16:00:18.668Z</time>
      </trkpt>
      <trkpt lat="48.76853" lon="-0.3894">
        <ele>246.7</ele>
        <time>2025-05-26T16:00:23.278Z</time>
      </trkpt>
      <trkpt lat="48.76855" lon="-0.38931">
        <ele>246.8</ele>
        <time>2025-05-26T16:00:27.888Z</time>
      </trkpt>
      <trkpt lat="48.76858" lon="-0.38922">
        <ele>246.9</ele>
        <time>2025-05-26T16:00:32.498Z</time>
      </trkpt>
      <trkpt lat="48.7686" lon="-0.38913">
        <ele>247</ele>
        <time>2025-05-26T16:00:37.109Z</time>
      </trkpt>
      <trkpt lat="48.76863" lon="-0.38904">
        <ele>247</ele>
        <time>2025-05-26T16:00:41.720Z</time>
      </trkpt>
      <trkpt lat="48.76865" lon="-0.38895">
        <ele>247</ele>
        <time>2025-05-26T16:00:46.331Z</time>
      </trkpt>
      <trkpt lat="48.76868" lon="-0.38886">
        <ele>247</ele>
        <time>2025-05-26T16:00:50.942Z</time>
      </trkpt>
      <trkpt lat="48.7687" lon="-0.38877">
        <ele>247</ele>
        <time>2025-05-26T16:00:55.553Z</time>
      </trkpt>
      <trkpt lat="48.76873" lon="-0.38866">
        <ele>247</ele>
        <time>2025-05-26T16:01:01.037Z</time>
      </trkpt>
      <trkpt lat="48.76876" lon="-0.38855">
        <ele>247</ele>
        <time>2025-05-26T16:01:06.521Z</time>
      </trkpt>
      <trkpt lat="48.76879" lon="-0.38844">
        <ele>247</ele>
        <time>2025-05-26T16:01:12.005Z</time>
      </trkpt>
      <trkpt lat="48.76882" lon="-0.38833">
        <ele>247</ele>
        <time>2025-05-26T16:01:17.489Z</time>
      </trkpt>
      <trkpt lat="48.76885" lon="-0.38822">
        <ele>247</ele>
        <time>2025-05-26T16:01:22.973Z</time>
      </trkpt>
      <trkpt lat="48.76888" lon="-0.38811">
        <ele>247</ele>
        <time>2025-05-26T16:01:28.458Z</time>
      </trkpt>
      <trkpt lat="48.76891" lon="-0.388">
        <ele>247</ele>
        <time>2025-05-26T16:01:33.943Z</time>
      </trkpt>
      <trkpt lat="48.76894" lon="-0.38789">
        <ele>247</ele>
        <time>2025-05-26T16:01:39.428Z</time>
      </trkpt>
      <trkpt lat="48.76895" lon="-0.38779">
        <ele>247</ele>
        <time>2025-05-26T16:01:44.381Z</time>
      </trkpt>
      <trkpt lat="48.76896" lon="-0.38769">
        <ele>247.1</ele>
        <time>2025-05-26T16:01:49.334Z</time>
      </trkpt>
      <trkpt lat="48.76897" lon="-0.38759">
        <ele>247.2</ele>
        <time>2025-05-26T16:01:54.288Z</time>
      </trkpt>
      <trkpt lat="48.76899" lon="-0.38749">
        <ele>247.4</ele>
        <time>2025-05-26T16:01:59.242Z</time>
      </trkpt>
      <trkpt lat="48.769" lon="-0.38739">
        <ele>247.6</ele>
        <time>2025-05-26T16:02:04.196Z</time>
      </trkpt>
      <trkpt lat="48.76901" lon="-0.38729">
        <ele>247.9</ele>
        <time>2025-05-26T16:02:09.150Z</time>
      </trkpt>
      <trkpt lat="48.76902" lon="-0.38719">
        <ele>248</ele>
        <time>2025-05-26T16:02:14.104Z</time>
      </trkpt>
      <trkpt lat="48.76903" lon="-0.38709">
        <ele>248</ele>
        <time>2025-05-26T16:02:19.058Z</time>
      </trkpt>
      <trkpt lat="48.76904" lon="-0.38696">
        <ele>248</ele>
        <time>2025-05-26T16:02:24.996Z</time>
      </trkpt>
      <trkpt lat="48.76906" lon="-0.38684">
        <ele>248</ele>
        <time>2025-05-26T16:02:30.934Z</time>
      </trkpt>
      <trkpt lat="48.76907" lon="-0.38671">
        <ele>248</ele>
        <time>2025-05-26T16:02:36.873Z</time>
      </trkpt>
      <trkpt lat="48.76908" lon="-0.38658">
        <ele>248</ele>
        <time>2025-05-26T16:02:42.812Z</time>
        <extensions>
          <visugpx:TrkExtension xmlns:visugpx="https://www.visugpx.com/editgpx/">
            <visugpx:node>23</visugpx:node>
            </visugpx:TrkExtension>
        </extensions>
      </trkpt>
      <trkpt lat="48.76903" lon="-0.38656">
        <ele>248</ele>
        <time>2025-05-26T16:02:46.765Z</time>
      </trkpt>
      <trkpt lat="48.76897" lon="-0.38654">
        <ele>248</ele>
        <time>2025-05-26T16:02:50.719Z</time>
      </trkpt>
      <trkpt lat="48.76889" lon="-0.38651">
        <ele>248</ele>
        <time>2025-05-26T16:02:56.479Z</time>
      </trkpt>
      <trkpt lat="48.76885" lon="-0.3864">
        <ele>248</ele>
        <time>2025-05-26T16:03:02.516Z</time>
      </trkpt>
      <trkpt lat="48.76881" lon="-0.38629">
        <ele>248.3</ele>
        <time>2025-05-26T16:03:08.553Z</time>
      </trkpt>
      <trkpt lat="48.76877" lon="-0.38618">
        <ele>248.4</ele>
        <time>2025-05-26T16:03:14.590Z</time>
      </trkpt>
      <trkpt lat="48.76873" lon="-0.38607">
        <ele>248.5</ele>
        <time>2025-05-26T16:03:20.627Z</time>
      </trkpt>
      <trkpt lat="48.76869" lon="-0.38596">
        <ele>248.7</ele>
        <time>2025-05-26T16:03:26.664Z</time>
      </trkpt>
      <trkpt lat="48.76865" lon="-0.38585">
        <ele>248.9</ele>
        <time>2025-05-26T16:03:32.701Z</time>
      </trkpt>
      <trkpt lat="48.76861" lon="-0.38574">
        <ele>249</ele>
        <time>2025-05-26T16:03:38.738Z</time>
      </trkpt>
      <trkpt lat="48.76857" lon="-0.38563">
        <ele>248.9</ele>
        <time>2025-05-26T16:03:44.776Z</time>
      </trkpt>
      <trkpt lat="48.76855" lon="-0.38557">
        <ele>248.8</ele>
        <time>2025-05-26T16:03:48.094Z</time>
      </trkpt>
      <trkpt lat="48.76853" lon="-0.3855">
        <ele>248.8</ele>
        <time>2025-05-26T16:03:51.412Z</time>
      </trkpt>
      <trkpt lat="48.76851" lon="-0.38544">
        <ele>248.8</ele>
        <time>2025-05-26T16:03:54.730Z</time>
      </trkpt>
      <trkpt lat="48.76849" lon="-0.38538">
        <ele>248.8</ele>
        <time>2025-05-26T16:03:58.048Z</time>
      </trkpt>
      <trkpt lat="48.76846" lon="-0.38531">
        <ele>248.9</ele>
        <time>2025-05-26T16:04:01.366Z</time>
      </trkpt>
      <trkpt lat="48.76844" lon="-0.38525">
        <ele>249</ele>
        <time>2025-05-26T16:04:04.684Z</time>
      </trkpt>
      <trkpt lat="48.76842" lon="-0.38518">
        <ele>249</ele>
        <time>2025-05-26T16:04:08.002Z</time>
      </trkpt>
      <trkpt lat="48.7684" lon="-0.38512">
        <ele>249</ele>
        <time>2025-05-26T16:04:11.322Z</time>
      </trkpt>
      <trkpt lat="48.76837" lon="-0.38505">
        <ele>249</ele>
        <time>2025-05-26T16:04:14.899Z</time>
      </trkpt>
      <trkpt lat="48.76835" lon="-0.38499">
        <ele>249</ele>
        <time>2025-05-26T16:04:18.476Z</time>
      </trkpt>
      <trkpt lat="48.76832" lon="-0.38492">
        <ele>249</ele>
        <time>2025-05-26T16:04:22.053Z</time>
      </trkpt>
      <trkpt lat="48.76829" lon="-0.38485">
        <ele>248.8</ele>
        <time>2025-05-26T16:04:25.630Z</time>
      </trkpt>
      <trkpt lat="48.76826" lon="-0.38478">
        <ele>248.7</ele>
        <time>2025-05-26T16:04:29.207Z</time>
      </trkpt>
      <trkpt lat="48.76824" lon="-0.38472">
        <ele>248.7</ele>
        <time>2025-05-26T16:04:32.784Z</time>
      </trkpt>
      <trkpt lat="48.76821" lon="-0.38465">
        <ele>248.6</ele>
        <time>2025-05-26T16:04:36.361Z</time>
      </trkpt>
      <trkpt lat="48.76818" lon="-0.38458">
        <ele>248.4</ele>
        <time>2025-05-26T16:04:39.938Z</time>
      </trkpt>
      <trkpt lat="48.76815" lon="-0.38452">
        <ele>248.3</ele>
        <time>2025-05-26T16:04:43.515Z</time>
      </trkpt>
      <trkpt lat="48.76813" lon="-0.38445">
        <ele>248.3</ele>
        <time>2025-05-26T16:04:47.092Z</time>
      </trkpt>
      <trkpt lat="48.7681" lon="-0.38438">
        <ele>248.1</ele>
        <time>2025-05-26T16:04:50.669Z</time>
      </trkpt>
      <trkpt lat="48.76807" lon="-0.38431">
        <ele>248</ele>
        <time>2025-05-26T16:04:54.246Z</time>
      </trkpt>
      <trkpt lat="48.76804" lon="-0.38425">
        <ele>248</ele>
        <time>2025-05-26T16:04:57.823Z</time>
      </trkpt>
      <trkpt lat="48.76802" lon="-0.38418">
        <ele>248</ele>
        <time>2025-05-26T16:05:01.400Z</time>
      </trkpt>
      <trkpt lat="48.76799" lon="-0.38411">
        <ele>248</ele>
        <time>2025-05-26T16:05:04.977Z</time>
      </trkpt>
      <trkpt lat="48.76796" lon="-0.38405">
        <ele>248</ele>
        <time>2025-05-26T16:05:08.554Z</time>
      </trkpt>
      <trkpt lat="48.76793" lon="-0.38398">
        <ele>248</ele>
        <time>2025-05-26T16:05:12.131Z</time>
      </trkpt>
      <trkpt lat="48.76791" lon="-0.38391">
        <ele>248</ele>
        <time>2025-05-26T16:05:15.708Z</time>
      </trkpt>
      <trkpt lat="48.76788" lon="-0.38384">
        <ele>248</ele>
        <time>2025-05-26T16:05:19.285Z</time>
      </trkpt>
      <trkpt lat="48.76785" lon="-0.38378">
        <ele>248</ele>
        <time>2025-05-26T16:05:22.862Z</time>
      </trkpt>
      <trkpt lat="48.76782" lon="-0.38371">
        <ele>248</ele>
        <time>2025-05-26T16:05:26.439Z</time>
      </trkpt>
      <trkpt lat="48.7678" lon="-0.38364">
        <ele>248</ele>
        <time>2025-05-26T16:05:30.016Z</time>
      </trkpt>
      <trkpt lat="48.76777" lon="-0.38358">
        <ele>248</ele>
        <time>2025-05-26T16:05:33.593Z</time>
      </trkpt>
      <trkpt lat="48.76774" lon="-0.38351">
        <ele>248</ele>
        <time>2025-05-26T16:05:37.170Z</time>
      </trkpt>
      <trkpt lat="48.76771" lon="-0.38344">
        <ele>248</ele>
        <time>2025-05-26T16:05:40.747Z</time>
      </trkpt>
      <trkpt lat="48.76769" lon="-0.38337">
        <ele>248</ele>
        <time>2025-05-26T16:05:44.325Z</time>
      </trkpt>
      <trkpt lat="48.76766" lon="-0.38331">
        <ele>248</ele>
        <time>2025-05-26T16:05:47.903Z</time>
      </trkpt>
      <trkpt lat="48.76763" lon="-0.38324">
        <ele>248</ele>
        <time>2025-05-26T16:05:51.481Z</time>
      </trkpt>
      <trkpt lat="48.7676" lon="-0.38317">
        <ele>248</ele>
        <time>2025-05-26T16:05:55.059Z</time>
      </trkpt>
      <trkpt lat="48.76758" lon="-0.3831">
        <ele>248</ele>
        <time>2025-05-26T16:05:58.637Z</time>
      </trkpt>
      <trkpt lat="48.76755" lon="-0.38304">
        <ele>248</ele>
        <time>2025-05-26T16:06:02.215Z</time>
      </trkpt>
      <trkpt lat="48.76752" lon="-0.38297">
        <ele>248</ele>
        <time>2025-05-26T16:06:05.794Z</time>
      </trkpt>
      <trkpt lat="48.76751" lon="-0.3829">
        <ele>248</ele>
        <time>2025-05-26T16:06:09.413Z</time>
      </trkpt>
      <trkpt lat="48.7675" lon="-0.38283">
        <ele>248</ele>
        <time>2025-05-26T16:06:13.032Z</time>
      </trkpt>
      <trkpt lat="48.76748" lon="-0.38275">
        <ele>248.1</ele>
        <time>2025-05-26T16:06:16.651Z</time>
      </trkpt>
      <trkpt lat="48.76747" lon="-0.38268">
        <ele>248.3</ele>
        <time>2025-05-26T16:06:20.271Z</time>
      </trkpt>
      <trkpt lat="48.76744" lon="-0.38258">
        <ele>248.6</ele>
        <time>2025-05-26T16:06:25.789Z</time>
      </trkpt>
      <trkpt lat="48.76741" lon="-0.38248">
        <ele>248.7</ele>
        <time>2025-05-26T16:06:31.309Z</time>
      </trkpt>
      <trkpt lat="48.76739" lon="-0.38242">
        <ele>248.7</ele>
        <time>2025-05-26T16:06:34.677Z</time>
      </trkpt>
      <trkpt lat="48.76737" lon="-0.38236">
        <ele>248.8</ele>
        <time>2025-05-26T16:06:38.045Z</time>
      </trkpt>
      <trkpt lat="48.76735" lon="-0.38229">
        <ele>248.9</ele>
        <time>2025-05-26T16:06:41.413Z</time>
      </trkpt>
      <trkpt lat="48.76733" lon="-0.38223">
        <ele>249</ele>
        <time>2025-05-26T16:06:44.782Z</time>
      </trkpt>
      <trkpt lat="48.76729" lon="-0.38216">
        <ele>249</ele>
        <time>2025-05-26T16:06:48.743Z</time>
      </trkpt>
      <trkpt lat="48.76726" lon="-0.3821">
        <ele>249</ele>
        <time>2025-05-26T16:06:52.704Z</time>
      </trkpt>
      <trkpt lat="48.76722" lon="-0.38203">
        <ele>249</ele>
        <time>2025-05-26T16:06:56.665Z</time>
      </trkpt>
      <trkpt lat="48.76718" lon="-0.38196">
        <ele>248.8</ele>
        <time>2025-05-26T16:07:00.628Z</time>
      </trkpt>
      <trkpt lat="48.76712" lon="-0.38187">
        <ele>248.7</ele>
        <time>2025-05-26T16:07:06.832Z</time>
      </trkpt>
      <trkpt lat="48.76709" lon="-0.38183">
        <ele>248.7</ele>
      </trkpt>
      <trkpt lat="48.76705" lon="-0.38178">
        <ele>248.7</ele>
        <time>2025-05-26T16:07:13.037Z</time>
      </trkpt>
      <trkpt lat="48.76699" lon="-0.38169">
        <ele>248.9</ele>
        <time>2025-05-26T16:07:19.242Z</time>
      </trkpt>
      <trkpt lat="48.76696" lon="-0.38165">
        <ele>249</ele>
      </trkpt>
      <trkpt lat="48.76692" lon="-0.3816">
        <ele>248.9</ele>
        <time>2025-05-26T16:07:25.448Z</time>
      </trkpt>
      <trkpt lat="48.76688" lon="-0.38155">
        <ele>248.8</ele>
        <time>2025-05-26T16:07:29.012Z</time>
      </trkpt>
      <trkpt lat="48.76684" lon="-0.38149">
        <ele>248.6</ele>
        <time>2025-05-26T16:07:32.576Z</time>
      </trkpt>
      <trkpt lat="48.7668" lon="-0.38144">
        <ele>248.5</ele>
        <time>2025-05-26T16:07:36.140Z</time>
      </trkpt>
      <trkpt lat="48.76676" lon="-0.38139">
        <ele>248.3</ele>
        <time>2025-05-26T16:07:39.704Z</time>
      </trkpt>
      <trkpt lat="48.76672" lon="-0.38133">
        <ele>248.4</ele>
        <time>2025-05-26T16:07:43.269Z</time>
      </trkpt>
      <trkpt lat="48.76668" lon="-0.38128">
        <ele>248.4</ele>
        <time>2025-05-26T16:07:46.834Z</time>
      </trkpt>
      <trkpt lat="48.76664" lon="-0.38123">
        <ele>248.5</ele>
        <time>2025-05-26T16:07:50.399Z</time>
      </trkpt>
      <trkpt lat="48.76661" lon="-0.38118">
        <ele>248.6</ele>
        <time>2025-05-26T16:07:53.964Z</time>
      </trkpt>
      <trkpt lat="48.76657" lon="-0.38112">
        <ele>248.6</ele>
        <time>2025-05-26T16:07:57.529Z</time>
      </trkpt>
      <trkpt lat="48.76653" lon="-0.38107">
        <ele>248.5</ele>
        <time>2025-05-26T16:08:01.094Z</time>
      </trkpt>
      <trkpt lat="48.76649" lon="-0.38102">
        <ele>248.4</ele>
        <time>2025-05-26T16:08:04.659Z</time>
      </trkpt>
      <trkpt lat="48.76645" lon="-0.38096">
        <ele>248.2</ele>
        <time>2025-05-26T16:08:08.224Z</time>
      </trkpt>
      <trkpt lat="48.76641" lon="-0.38091">
        <ele>248.1</ele>
        <time>2025-05-26T16:08:11.789Z</time>
      </trkpt>
      <trkpt lat="48.76637" lon="-0.38086">
        <ele>248</ele>
        <time>2025-05-26T16:08:15.354Z</time>
      </trkpt>
      <trkpt lat="48.76633" lon="-0.3808">
        <ele>248</ele>
        <time>2025-05-26T16:08:18.919Z</time>
      </trkpt>
      <trkpt lat="48.76629" lon="-0.38075">
        <ele>248</ele>
        <time>2025-05-26T16:08:22.485Z</time>
      </trkpt>
      <trkpt lat="48.76625" lon="-0.3807">
        <ele>248</ele>
        <time>2025-05-26T16:08:25.844Z</time>
      </trkpt>
      <trkpt lat="48.76622" lon="-0.38065">
        <ele>248</ele>
        <time>2025-05-26T16:08:29.203Z</time>
      </trkpt>
      <trkpt lat="48.76618" lon="-0.3806">
        <ele>248</ele>
        <time>2025-05-26T16:08:32.562Z</time>
      </trkpt>
      <trkpt lat="48.76615" lon="-0.38056">
        <ele>248</ele>
        <time>2025-05-26T16:08:35.921Z</time>
      </trkpt>
      <trkpt lat="48.76611" lon="-0.38051">
        <ele>248</ele>
        <time>2025-05-26T16:08:39.280Z</time>
      </trkpt>
      <trkpt lat="48.76607" lon="-0.38046">
        <ele>247.9</ele>
        <time>2025-05-26T16:08:42.639Z</time>
      </trkpt>
      <trkpt lat="48.76604" lon="-0.38041">
        <ele>247.9</ele>
        <time>2025-05-26T16:08:45.998Z</time>
      </trkpt>
      <trkpt lat="48.766" lon="-0.38036">
        <ele>247.9</ele>
        <time>2025-05-26T16:08:49.359Z</time>
      </trkpt>
      <trkpt lat="48.76596" lon="-0.38031">
        <ele>247.9</ele>
        <time>2025-05-26T16:08:53.186Z</time>
      </trkpt>
      <trkpt lat="48.76592" lon="-0.38025">
        <ele>248</ele>
        <time>2025-05-26T16:08:57.013Z</time>
      </trkpt>
      <trkpt lat="48.76588" lon="-0.3802">
        <ele>248</ele>
        <time>2025-05-26T16:09:00.841Z</time>
      </trkpt>
      <trkpt lat="48.76584" lon="-0.38014">
        <ele>248</ele>
        <time>2025-05-26T16:09:04.670Z</time>
      </trkpt>
      <trkpt lat="48.76587" lon="-0.38009">
        <ele>248</ele>
        <time>2025-05-26T16:09:07.841Z</time>
      </trkpt>
      <trkpt lat="48.7659" lon="-0.38003">
        <ele>248</ele>
        <time>2025-05-26T16:09:11.012Z</time>
      </trkpt>
      <trkpt lat="48.76594" lon="-0.37998">
        <ele>248</ele>
        <time>2025-05-26T16:09:14.183Z</time>
      </trkpt>
      <trkpt lat="48.76597" lon="-0.37992">
        <ele>248</ele>
        <time>2025-05-26T16:09:17.354Z</time>
      </trkpt>
      <trkpt lat="48.766" lon="-0.37987">
        <ele>248</ele>
        <time>2025-05-26T16:09:20.525Z</time>
      </trkpt>
      <trkpt lat="48.76603" lon="-0.37981">
        <ele>248</ele>
        <time>2025-05-26T16:09:23.696Z</time>
      </trkpt>
      <trkpt lat="48.76606" lon="-0.37976">
        <ele>248</ele>
        <time>2025-05-26T16:09:26.867Z</time>
      </trkpt>
      <trkpt lat="48.7661" lon="-0.37971">
        <ele>248</ele>
        <time>2025-05-26T16:09:30.038Z</time>
      </trkpt>
      <trkpt lat="48.76613" lon="-0.37965">
        <ele>247.8</ele>
        <time>2025-05-26T16:09:33.209Z</time>
      </trkpt>
      <trkpt lat="48.76616" lon="-0.3796">
        <ele>247.6</ele>
        <time>2025-05-26T16:09:36.380Z</time>
      </trkpt>
      <trkpt lat="48.76619" lon="-0.37954">
        <ele>247.5</ele>
        <time>2025-05-26T16:09:39.551Z</time>
      </trkpt>
      <trkpt lat="48.76622" lon="-0.37949">
        <ele>247.5</ele>
        <time>2025-05-26T16:09:42.722Z</time>
      </trkpt>
      <trkpt lat="48.76625" lon="-0.37943">
        <ele>247.5</ele>
        <time>2025-05-26T16:09:45.893Z</time>
      </trkpt>
      <trkpt lat="48.76629" lon="-0.37938">
        <ele>247.5</ele>
        <time>2025-05-26T16:09:49.064Z</time>
      </trkpt>
      <trkpt lat="48.76632" lon="-0.37932">
        <ele>247.4</ele>
        <time>2025-05-26T16:09:52.235Z</time>
      </trkpt>
      <trkpt lat="48.76635" lon="-0.37927">
        <ele>247.3</ele>
        <time>2025-05-26T16:09:55.406Z</time>
      </trkpt>
      <trkpt lat="48.76638" lon="-0.37922">
        <ele>247.2</ele>
        <time>2025-05-26T16:09:58.577Z</time>
      </trkpt>
      <trkpt lat="48.76641" lon="-0.37916">
        <ele>247</ele>
        <time>2025-05-26T16:10:01.749Z</time>
      </trkpt>
      <trkpt lat="48.76645" lon="-0.37911">
        <ele>247</ele>
        <time>2025-05-26T16:10:04.921Z</time>
      </trkpt>
      <trkpt lat="48.76648" lon="-0.37905">
        <ele>247</ele>
        <time>2025-05-26T16:10:08.093Z</time>
      </trkpt>
      <trkpt lat="48.76651" lon="-0.379">
        <ele>247</ele>
        <time>2025-05-26T16:10:11.265Z</time>
      </trkpt>
      <trkpt lat="48.76654" lon="-0.37894">
        <ele>247</ele>
        <time>2025-05-26T16:10:14.437Z</time>
      </trkpt>
      <trkpt lat="48.76657" lon="-0.37889">
        <ele>247</ele>
        <time>2025-05-26T16:10:17.609Z</time>
      </trkpt>
      <trkpt lat="48.76661" lon="-0.37884">
        <ele>246.8</ele>
        <time>2025-05-26T16:10:20.781Z</time>
      </trkpt>
      <trkpt lat="48.76664" lon="-0.37878">
        <ele>246.6</ele>
        <time>2025-05-26T16:10:23.953Z</time>
      </trkpt>
      <trkpt lat="48.76667" lon="-0.37873">
        <ele>246.4</ele>
        <time>2025-05-26T16:10:27.125Z</time>
      </trkpt>
      <trkpt lat="48.7667" lon="-0.37867">
        <ele>246.2</ele>
        <time>2025-05-26T16:10:30.297Z</time>
      </trkpt>
      <trkpt lat="48.76673" lon="-0.37862">
        <ele>246</ele>
        <time>2025-05-26T16:10:33.469Z</time>
      </trkpt>
      <trkpt lat="48.76676" lon="-0.37856">
        <ele>245.8</ele>
        <time>2025-05-26T16:10:36.641Z</time>
      </trkpt>
      <trkpt lat="48.7668" lon="-0.37851">
        <ele>245.6</ele>
        <time>2025-05-26T16:10:39.813Z</time>
      </trkpt>
      <trkpt lat="48.76683" lon="-0.37845">
        <ele>245.4</ele>
        <time>2025-05-26T16:10:42.985Z</time>
      </trkpt>
      <trkpt lat="48.76686" lon="-0.3784">
        <ele>245.2</ele>
        <time>2025-05-26T16:10:46.157Z</time>
      </trkpt>
      <trkpt lat="48.76693" lon="-0.3784">
        <ele>245.2</ele>
        <time>2025-05-26T16:10:50.876Z</time>
      </trkpt>
      <trkpt lat="48.767" lon="-0.3784">
        <ele>245.2</ele>
        <time>2025-05-26T16:10:55.595Z</time>
      </trkpt>
      <trkpt lat="48.76706" lon="-0.37839">
        <ele>245.2</ele>
        <time>2025-05-26T16:11:00.315Z</time>
      </trkpt>
      <trkpt lat="48.76713" lon="-0.37839">
        <ele>245.2</ele>
        <time>2025-05-26T16:11:05.035Z</time>
      </trkpt>
      <trkpt lat="48.76719" lon="-0.37839">
        <ele>245.2</ele>
        <time>2025-05-26T16:11:08.833Z</time>
      </trkpt>
      <trkpt lat="48.76724" lon="-0.37838">
        <ele>245.2</ele>
        <time>2025-05-26T16:11:12.631Z</time>
      </trkpt>
      <trkpt lat="48.7673" lon="-0.37838">
        <ele>245.1</ele>
        <time>2025-05-26T16:11:16.429Z</time>
      </trkpt>
      <trkpt lat="48.76735" lon="-0.37837">
        <ele>245.1</ele>
        <time>2025-05-26T16:11:20.227Z</time>
      </trkpt>
      <trkpt lat="48.7674" lon="-0.37837">
        <ele>245</ele>
        <time>2025-05-26T16:11:23.474Z</time>
      </trkpt>
      <trkpt lat="48.76745" lon="-0.37836">
        <ele>245</ele>
        <time>2025-05-26T16:11:26.721Z</time>
      </trkpt>
      <trkpt lat="48.7675" lon="-0.37836">
        <ele>245</ele>
        <time>2025-05-26T16:11:29.969Z</time>
      </trkpt>
      <trkpt lat="48.76755" lon="-0.37835">
        <ele>244.7</ele>
        <time>2025-05-26T16:11:33.217Z</time>
      </trkpt>
      <trkpt lat="48.76761" lon="-0.37834">
        <ele>244.2</ele>
        <time>2025-05-26T16:11:36.647Z</time>
      </trkpt>
      <trkpt lat="48.76766" lon="-0.37834">
        <ele>243.9</ele>
        <time>2025-05-26T16:11:40.077Z</time>
      </trkpt>
      <trkpt lat="48.76772" lon="-0.37833">
        <ele>243.4</ele>
        <time>2025-05-26T16:11:43.507Z</time>
      </trkpt>
      <trkpt lat="48.76777" lon="-0.37833">
        <ele>243.1</ele>
        <time>2025-05-26T16:11:46.937Z</time>
      </trkpt>
      <trkpt lat="48.76783" lon="-0.37832">
        <ele>242.6</ele>
        <time>2025-05-26T16:11:50.367Z</time>
      </trkpt>
      <trkpt lat="48.76789" lon="-0.37831">
        <ele>242.2</ele>
        <time>2025-05-26T16:11:53.797Z</time>
      </trkpt>
      <trkpt lat="48.76794" lon="-0.37831">
        <ele>241.8</ele>
        <time>2025-05-26T16:11:57.227Z</time>
      </trkpt>
      <trkpt lat="48.768" lon="-0.3783">
        <ele>241.4</ele>
        <time>2025-05-26T16:12:00.657Z</time>
      </trkpt>
      <trkpt lat="48.76805" lon="-0.37829">
        <ele>241</ele>
        <time>2025-05-26T16:12:04.087Z</time>
      </trkpt>
      <trkpt lat="48.76811" lon="-0.37829">
        <ele>240.2</ele>
        <time>2025-05-26T16:12:07.517Z</time>
      </trkpt>
      <trkpt lat="48.76817" lon="-0.37828">
        <ele>239.4</ele>
        <time>2025-05-26T16:12:10.947Z</time>
      </trkpt>
      <trkpt lat="48.76822" lon="-0.37828">
        <ele>238.6</ele>
        <time>2025-05-26T16:12:14.377Z</time>
      </trkpt>
      <trkpt lat="48.76828" lon="-0.37827">
        <ele>237.8</ele>
        <time>2025-05-26T16:12:17.807Z</time>
      </trkpt>
      <trkpt lat="48.76833" lon="-0.37826">
        <ele>237</ele>
        <time>2025-05-26T16:12:21.237Z</time>
      </trkpt>
      <trkpt lat="48.76839" lon="-0.37826">
        <ele>236.4</ele>
        <time>2025-05-26T16:12:24.667Z</time>
      </trkpt>
      <trkpt lat="48.76845" lon="-0.37825">
        <ele>235.7</ele>
        <time>2025-05-26T16:12:28.097Z</time>
      </trkpt>
      <trkpt lat="48.7685" lon="-0.37824">
        <ele>235.2</ele>
        <time>2025-05-26T16:12:31.527Z</time>
      </trkpt>
      <trkpt lat="48.76856" lon="-0.37824">
        <ele>234.6</ele>
        <time>2025-05-26T16:12:34.957Z</time>
      </trkpt>
      <trkpt lat="48.76861" lon="-0.37823">
        <ele>234</ele>
        <time>2025-05-26T16:12:38.388Z</time>
      </trkpt>
      <trkpt lat="48.76867" lon="-0.37823">
        <ele>233.5</ele>
        <time>2025-05-26T16:12:41.819Z</time>
      </trkpt>
      <trkpt lat="48.76873" lon="-0.37822">
        <ele>233</ele>
        <time>2025-05-26T16:12:45.250Z</time>
      </trkpt>
      <trkpt lat="48.76878" lon="-0.37821">
        <ele>232.5</ele>
        <time>2025-05-26T16:12:48.681Z</time>
      </trkpt>
      <trkpt lat="48.76884" lon="-0.37821">
        <ele>232</ele>
        <time>2025-05-26T16:12:52.112Z</time>
      </trkpt>
      <trkpt lat="48.76889" lon="-0.3782">
        <ele>231.5</ele>
        <time>2025-05-26T16:12:55.543Z</time>
      </trkpt>
      <trkpt lat="48.76895" lon="-0.37819">
        <ele>231.2</ele>
        <time>2025-05-26T16:12:58.974Z</time>
      </trkpt>
      <trkpt lat="48.769" lon="-0.37819">
        <ele>230.9</ele>
        <time>2025-05-26T16:13:02.405Z</time>
      </trkpt>
      <trkpt lat="48.76906" lon="-0.37818">
        <ele>230.6</ele>
        <time>2025-05-26T16:13:05.836Z</time>
      </trkpt>
      <trkpt lat="48.76912" lon="-0.37818">
        <ele>230.2</ele>
        <time>2025-05-26T16:13:09.267Z</time>
      </trkpt>
      <trkpt lat="48.76917" lon="-0.37817">
        <ele>230</ele>
        <time>2025-05-26T16:13:12.698Z</time>
      </trkpt>
      <trkpt lat="48.76923" lon="-0.37816">
        <ele>229.5</ele>
        <time>2025-05-26T16:13:16.129Z</time>
      </trkpt>
      <trkpt lat="48.76928" lon="-0.37816">
        <ele>229.2</ele>
        <time>2025-05-26T16:13:19.560Z</time>
      </trkpt>
      <trkpt lat="48.76934" lon="-0.37815">
        <ele>228.8</ele>
        <time>2025-05-26T16:13:22.991Z</time>
      </trkpt>
      <trkpt lat="48.76942" lon="-0.37814">
        <ele>228.2</ele>
        <time>2025-05-26T16:13:28.129Z</time>
      </trkpt>
      <trkpt lat="48.76947" lon="-0.37814">
        <ele>227.9</ele>
      </trkpt>
      <trkpt lat="48.76951" lon="-0.37813">
        <ele>227.8</ele>
        <time>2025-05-26T16:13:33.267Z</time>
      </trkpt>
      <trkpt lat="48.76959" lon="-0.37812">
        <ele>227.5</ele>
        <time>2025-05-26T16:13:38.405Z</time>
      </trkpt>
      <trkpt lat="48.76964" lon="-0.37812">
        <ele>227.3</ele>
      </trkpt>
      <trkpt lat="48.76968" lon="-0.37811">
        <ele>227.2</ele>
        <time>2025-05-26T16:13:43.543Z</time>
      </trkpt>
      <trkpt lat="48.76976" lon="-0.3781">
        <ele>226.7</ele>
        <time>2025-05-26T16:13:48.681Z</time>
      </trkpt>
      <trkpt lat="48.76984" lon="-0.37809">
        <ele>226.2</ele>
        <time>2025-05-26T16:13:53.819Z</time>
      </trkpt>
      <trkpt lat="48.76989" lon="-0.37809">
        <ele>225.9</ele>
      </trkpt>
      <trkpt lat="48.76993" lon="-0.37808">
        <ele>225.6</ele>
        <time>2025-05-26T16:13:58.957Z</time>
      </trkpt>
      <trkpt lat="48.77001" lon="-0.37807">
        <ele>225.1</ele>
        <time>2025-05-26T16:14:04.095Z</time>
      </trkpt>
      <trkpt lat="48.77003" lon="-0.37801">
        <ele>225</ele>
        <time>2025-05-26T16:14:06.988Z</time>
      </trkpt>
      <trkpt lat="48.77005" lon="-0.37795">
        <ele>224.9</ele>
        <time>2025-05-26T16:14:09.880Z</time>
      </trkpt>
      <trkpt lat="48.7701" lon="-0.37785">
        <ele>224.7</ele>
        <time>2025-05-26T16:14:15.254Z</time>
      </trkpt>
      <trkpt lat="48.77014" lon="-0.37778">
        <ele>224.5</ele>
        <time>2025-05-26T16:14:19.203Z</time>
      </trkpt>
      <trkpt lat="48.77018" lon="-0.3777">
        <ele>224.2</ele>
        <time>2025-05-26T16:14:23.153Z</time>
      </trkpt>
      <trkpt lat="48.77023" lon="-0.37767">
        <ele>223.9</ele>
        <time>2025-05-26T16:14:26.245Z</time>
      </trkpt>
      <trkpt lat="48.77027" lon="-0.37763">
        <ele>223.5</ele>
        <time>2025-05-26T16:14:29.338Z</time>
      </trkpt>
      <trkpt lat="48.77032" lon="-0.3776">
        <ele>223.2</ele>
        <time>2025-05-26T16:14:32.431Z</time>
      </trkpt>
      <trkpt lat="48.77036" lon="-0.37756">
        <ele>222.9</ele>
        <time>2025-05-26T16:14:35.524Z</time>
      </trkpt>
      <trkpt lat="48.77041" lon="-0.37754">
        <ele>222.7</ele>
        <time>2025-05-26T16:14:38.391Z</time>
      </trkpt>
      <trkpt lat="48.77045" lon="-0.37752">
        <ele>222.5</ele>
        <time>2025-05-26T16:14:41.259Z</time>
      </trkpt>
      <trkpt lat="48.7705" lon="-0.3775">
        <ele>222.2</ele>
        <time>2025-05-26T16:14:44.127Z</time>
      </trkpt>
      <trkpt lat="48.77054" lon="-0.37748">
        <ele>222</ele>
        <time>2025-05-26T16:14:46.995Z</time>
      </trkpt>
      <trkpt lat="48.77061" lon="-0.37745">
        <ele>221.6</ele>
        <time>2025-05-26T16:14:51.213Z</time>
      </trkpt>
      <trkpt lat="48.77067" lon="-0.37741">
        <ele>221.3</ele>
        <time>2025-05-26T16:14:55.432Z</time>
      </trkpt>
      <trkpt lat="48.77074" lon="-0.37741">
        <ele>221</ele>
        <time>2025-05-26T16:14:59.479Z</time>
      </trkpt>
      <trkpt lat="48.7708" lon="-0.37741">
        <ele>220.8</ele>
        <time>2025-05-26T16:15:03.527Z</time>
      </trkpt>
      <trkpt lat="48.77086" lon="-0.3774">
        <ele>220.5</ele>
        <time>2025-05-26T16:15:07.218Z</time>
      </trkpt>
      <trkpt lat="48.7709" lon="-0.37737">
        <ele>220.3</ele>
        <time>2025-05-26T16:15:10.129Z</time>
      </trkpt>
      <trkpt lat="48.77095" lon="-0.37734">
        <ele>220</ele>
        <time>2025-05-26T16:15:13.040Z</time>
      </trkpt>
      <trkpt lat="48.77099" lon="-0.3773">
        <ele>219.7</ele>
        <time>2025-05-26T16:15:15.951Z</time>
      </trkpt>
      <trkpt lat="48.77103" lon="-0.37727">
        <ele>219.5</ele>
        <time>2025-05-26T16:15:18.862Z</time>
      </trkpt>
      <trkpt lat="48.77111" lon="-0.3773">
        <ele>219.3</ele>
        <time>2025-05-26T16:15:24.020Z</time>
      </trkpt>
      <trkpt lat="48.77118" lon="-0.37732">
        <ele>219.3</ele>
        <time>2025-05-26T16:15:29.178Z</time>
      </trkpt>
      <trkpt lat="48.77124" lon="-0.37735">
        <ele>219.2</ele>
        <time>2025-05-26T16:15:33.319Z</time>
      </trkpt>
      <trkpt lat="48.7713" lon="-0.37737">
        <ele>219.2</ele>
        <time>2025-05-26T16:15:37.460Z</time>
      </trkpt>
      <trkpt lat="48.77136" lon="-0.3774">
        <ele>219.1</ele>
        <time>2025-05-26T16:15:41.601Z</time>
      </trkpt>
      <trkpt lat="48.77142" lon="-0.37742">
        <ele>218.9</ele>
        <time>2025-05-26T16:15:45.743Z</time>
      </trkpt>
      <trkpt lat="48.77147" lon="-0.37744">
        <ele>218.7</ele>
      </trkpt>
      <trkpt lat="48.77151" lon="-0.37746">
        <ele>218.6</ele>
        <time>2025-05-26T16:15:51.298Z</time>
      </trkpt>
      <trkpt lat="48.77159" lon="-0.37749">
        <ele>218.3</ele>
        <time>2025-05-26T16:15:56.854Z</time>
      </trkpt>
      <trkpt lat="48.77167" lon="-0.37752">
        <ele>218</ele>
        <time>2025-05-26T16:16:01.680Z</time>
      </trkpt>
      <trkpt lat="48.77174" lon="-0.37755">
        <ele>217.7</ele>
        <time>2025-05-26T16:16:06.506Z</time>
      </trkpt>
      <trkpt lat="48.77179" lon="-0.37757">
        <ele>217.6</ele>
        <time>2025-05-26T16:16:09.967Z</time>
      </trkpt>
      <trkpt lat="48.77185" lon="-0.3776">
        <ele>217.3</ele>
        <time>2025-05-26T16:16:13.428Z</time>
      </trkpt>
      <trkpt lat="48.7719" lon="-0.37762">
        <ele>217.2</ele>
        <time>2025-05-26T16:16:16.890Z</time>
      </trkpt>
      <trkpt lat="48.77195" lon="-0.37764">
        <ele>217</ele>
        <time>2025-05-26T16:16:20.352Z</time>
      </trkpt>
      <trkpt lat="48.77199" lon="-0.37766">
        <ele>216.8</ele>
        <time>2025-05-26T16:16:23.490Z</time>
      </trkpt>
      <trkpt lat="48.77204" lon="-0.37768">
        <ele>216.7</ele>
        <time>2025-05-26T16:16:26.628Z</time>
      </trkpt>
      <trkpt lat="48.77208" lon="-0.37769">
        <ele>216.5</ele>
        <time>2025-05-26T16:16:29.766Z</time>
      </trkpt>
      <trkpt lat="48.77213" lon="-0.37771">
        <ele>216.3</ele>
        <time>2025-05-26T16:16:32.904Z</time>
      </trkpt>
      <trkpt lat="48.77217" lon="-0.37773">
        <ele>216.2</ele>
        <time>2025-05-26T16:16:36.042Z</time>
      </trkpt>
      <trkpt lat="48.77222" lon="-0.37775">
        <ele>216</ele>
        <time>2025-05-26T16:16:39.180Z</time>
      </trkpt>
      <trkpt lat="48.77226" lon="-0.37776">
        <ele>216</ele>
        <time>2025-05-26T16:16:42.318Z</time>
      </trkpt>
      <trkpt lat="48.77231" lon="-0.37778">
        <ele>216</ele>
        <time>2025-05-26T16:16:45.456Z</time>
      </trkpt>
      <trkpt lat="48.77235" lon="-0.3778">
        <ele>216.1</ele>
        <time>2025-05-26T16:16:48.595Z</time>
      </trkpt>
      <trkpt lat="48.77239" lon="-0.37782">
        <ele>216.2</ele>
        <time>2025-05-26T16:16:51.734Z</time>
      </trkpt>
      <trkpt lat="48.77244" lon="-0.37783">
        <ele>216.2</ele>
        <time>2025-05-26T16:16:54.873Z</time>
      </trkpt>
      <trkpt lat="48.77248" lon="-0.37785">
        <ele>216.3</ele>
        <time>2025-05-26T16:16:58.012Z</time>
      </trkpt>
      <trkpt lat="48.77253" lon="-0.37787">
        <ele>216.3</ele>
        <time>2025-05-26T16:17:01.151Z</time>
      </trkpt>
      <trkpt lat="48.77257" lon="-0.37789">
        <ele>216.4</ele>
        <time>2025-05-26T16:17:04.290Z</time>
      </trkpt>
      <trkpt lat="48.77262" lon="-0.3779">
        <ele>216.4</ele>
        <time>2025-05-26T16:17:07.429Z</time>
      </trkpt>
      <trkpt lat="48.77266" lon="-0.37792">
        <ele>216.5</ele>
        <time>2025-05-26T16:17:10.568Z</time>
      </trkpt>
      <trkpt lat="48.77274" lon="-0.37792">
        <ele>216.5</ele>
        <time>2025-05-26T16:17:16.164Z</time>
      </trkpt>
      <trkpt lat="48.77282" lon="-0.37791">
        <ele>216.5</ele>
        <time>2025-05-26T16:17:21.761Z</time>
      </trkpt>
      <trkpt lat="48.77288" lon="-0.37786">
        <ele>216.3</ele>
        <time>2025-05-26T16:17:26.141Z</time>
        <extensions>
          <visugpx:TrkExtension xmlns:visugpx="https://www.visugpx.com/editgpx/">
            <visugpx:node>24</visugpx:node>
            </visugpx:TrkExtension>
        </extensions>
      </trkpt>
      <trkpt lat="48.77293" lon="-0.37787">
        <ele>216.3</ele>
        <time>2025-05-26T16:17:29.374Z</time>
      </trkpt>
      <trkpt lat="48.77297" lon="-0.37788">
        <ele>216.4</ele>
        <time>2025-05-26T16:17:32.607Z</time>
      </trkpt>
      <trkpt lat="48.77302" lon="-0.37789">
        <ele>216.4</ele>
        <time>2025-05-26T16:17:35.841Z</time>
      </trkpt>
      <trkpt lat="48.77306" lon="-0.3779">
        <ele>216.4</ele>
        <time>2025-05-26T16:17:39.075Z</time>
      </trkpt>
      <trkpt lat="48.77312" lon="-0.37788">
        <ele>216.4</ele>
        <time>2025-05-26T16:17:43.083Z</time>
      </trkpt>
      <trkpt lat="48.77318" lon="-0.37785">
        <ele>216.3</ele>
        <time>2025-05-26T16:17:47.091Z</time>
      </trkpt>
      <trkpt lat="48.77323" lon="-0.37783">
        <ele>216.2</ele>
        <time>2025-05-26T16:17:51.099Z</time>
      </trkpt>
      <trkpt lat="48.77329" lon="-0.37781">
        <ele>216.1</ele>
        <time>2025-05-26T16:17:55.107Z</time>
      </trkpt>
      <trkpt lat="48.77335" lon="-0.37778">
        <ele>216</ele>
        <time>2025-05-26T16:17:59.115Z</time>
      </trkpt>
      <trkpt lat="48.77341" lon="-0.37776">
        <ele>215.9</ele>
        <time>2025-05-26T16:18:03.123Z</time>
      </trkpt>
      <trkpt lat="48.77346" lon="-0.37773">
        <ele>215.8</ele>
        <time>2025-05-26T16:18:07.132Z</time>
      </trkpt>
      <trkpt lat="48.77352" lon="-0.37771">
        <ele>215.8</ele>
        <time>2025-05-26T16:18:11.141Z</time>
      </trkpt>
      <trkpt lat="48.77357" lon="-0.37769">
        <ele>215.7</ele>
        <time>2025-05-26T16:18:14.683Z</time>
      </trkpt>
      <trkpt lat="48.77362" lon="-0.37767">
        <ele>215.6</ele>
        <time>2025-05-26T16:18:18.225Z</time>
      </trkpt>
      <trkpt lat="48.77367" lon="-0.37765">
        <ele>215.5</ele>
        <time>2025-05-26T16:18:21.767Z</time>
      </trkpt>
      <trkpt lat="48.77373" lon="-0.37763">
        <ele>215.5</ele>
        <time>2025-05-26T16:18:25.309Z</time>
      </trkpt>
      <trkpt lat="48.77378" lon="-0.37761">
        <ele>215.4</ele>
        <time>2025-05-26T16:18:28.851Z</time>
      </trkpt>
      <trkpt lat="48.77383" lon="-0.37759">
        <ele>215.3</ele>
        <time>2025-05-26T16:18:32.394Z</time>
      </trkpt>
      <trkpt lat="48.77388" lon="-0.37757">
        <ele>215.3</ele>
        <time>2025-05-26T16:18:35.937Z</time>
      </trkpt>
      <trkpt lat="48.77393" lon="-0.37755">
        <ele>215.2</ele>
        <time>2025-05-26T16:18:39.480Z</time>
      </trkpt>
      <trkpt lat="48.77401" lon="-0.37753">
        <ele>215.1</ele>
        <time>2025-05-26T16:18:44.614Z</time>
      </trkpt>
      <trkpt lat="48.77408" lon="-0.37751">
        <ele>215</ele>
        <time>2025-05-26T16:18:49.748Z</time>
      </trkpt>
      <trkpt lat="48.77416" lon="-0.37748">
        <ele>214.9</ele>
        <time>2025-05-26T16:18:54.883Z</time>
      </trkpt>
      <trkpt lat="48.77423" lon="-0.37746">
        <ele>214.8</ele>
        <time>2025-05-26T16:19:00.018Z</time>
      </trkpt>
      <trkpt lat="48.7743" lon="-0.37743">
        <ele>214.6</ele>
        <time>2025-05-26T16:19:04.622Z</time>
      </trkpt>
      <trkpt lat="48.77437" lon="-0.37739">
        <ele>214.3</ele>
        <time>2025-05-26T16:19:09.227Z</time>
      </trkpt>
      <trkpt lat="48.77444" lon="-0.37736">
        <ele>214</ele>
        <time>2025-05-26T16:19:13.832Z</time>
      </trkpt>
      <trkpt lat="48.77451" lon="-0.37732">
        <ele>213.7</ele>
        <time>2025-05-26T16:19:18.437Z</time>
        <extensions>
          <visugpx:TrkExtension xmlns:visugpx="https://www.visugpx.com/editgpx/">
            <visugpx:node>25</visugpx:node>
            </visugpx:TrkExtension>
        </extensions>
      </trkpt>
      <trkpt lat="48.7745" lon="-0.37736">
        <ele>214</ele>
        <time>2025-05-26T16:19:21.234Z</time>
      </trkpt>
      <trkpt lat="48.77458" lon="-0.37733">
        <ele>213.8</ele>
        <time>2025-05-26T16:19:26.585Z</time>
      </trkpt>
      <trkpt lat="48.77466" lon="-0.3773">
        <ele>213.6</ele>
        <time>2025-05-26T16:19:31.937Z</time>
      </trkpt>
      <trkpt lat="48.77473" lon="-0.3773">
        <ele>213.6</ele>
        <time>2025-05-26T16:19:36.328Z</time>
      </trkpt>
      <trkpt lat="48.77479" lon="-0.37729">
        <ele>213.4</ele>
        <time>2025-05-26T16:19:40.720Z</time>
      </trkpt>
      <trkpt lat="48.77486" lon="-0.37729">
        <ele>213.4</ele>
        <time>2025-05-26T16:19:45.112Z</time>
      </trkpt>
      <trkpt lat="48.77492" lon="-0.37728">
        <ele>213.3</ele>
        <time>2025-05-26T16:19:49.504Z</time>
      </trkpt>
      <trkpt lat="48.775" lon="-0.37729">
        <ele>213.2</ele>
        <time>2025-05-26T16:19:54.890Z</time>
      </trkpt>
      <trkpt lat="48.77505" lon="-0.3773">
        <ele>213.1</ele>
      </trkpt>
      <trkpt lat="48.77509" lon="-0.37731">
        <ele>213</ele>
        <time>2025-05-26T16:20:00.276Z</time>
      </trkpt>
      <trkpt lat="48.77517" lon="-0.37732">
        <ele>212.7</ele>
        <time>2025-05-26T16:20:05.662Z</time>
      </trkpt>
      <trkpt lat="48.77525" lon="-0.37733">
        <ele>212.5</ele>
        <time>2025-05-26T16:20:11.049Z</time>
      </trkpt>
      <trkpt lat="48.77532" lon="-0.37733">
        <ele>212.4</ele>
        <time>2025-05-26T16:20:15.667Z</time>
      </trkpt>
      <trkpt lat="48.77539" lon="-0.37732">
        <ele>212.4</ele>
        <time>2025-05-26T16:20:20.285Z</time>
      </trkpt>
      <trkpt lat="48.77545" lon="-0.37732">
        <ele>212.4</ele>
        <time>2025-05-26T16:20:24.903Z</time>
      </trkpt>
      <trkpt lat="48.77552" lon="-0.37731">
        <ele>212.3</ele>
        <time>2025-05-26T16:20:29.521Z</time>
      </trkpt>
      <trkpt lat="48.77557" lon="-0.3773">
        <ele>212.3</ele>
        <time>2025-05-26T16:20:32.850Z</time>
      </trkpt>
      <trkpt lat="48.77562" lon="-0.37729">
        <ele>212.2</ele>
        <time>2025-05-26T16:20:36.179Z</time>
      </trkpt>
      <trkpt lat="48.77567" lon="-0.37727">
        <ele>212.2</ele>
        <time>2025-05-26T16:20:39.508Z</time>
      </trkpt>
      <trkpt lat="48.77572" lon="-0.37726">
        <ele>212.1</ele>
        <time>2025-05-26T16:20:42.837Z</time>
      </trkpt>
      <trkpt lat="48.77577" lon="-0.37725">
        <ele>212.1</ele>
        <time>2025-05-26T16:20:46.166Z</time>
      </trkpt>
      <trkpt lat="48.77582" lon="-0.37724">
        <ele>212.1</ele>
        <time>2025-05-26T16:20:49.496Z</time>
      </trkpt>
      <trkpt lat="48.77587" lon="-0.37722">
        <ele>212</ele>
        <time>2025-05-26T16:20:52.826Z</time>
      </trkpt>
      <trkpt lat="48.77593" lon="-0.37721">
        <ele>211.9</ele>
        <time>2025-05-26T16:20:56.156Z</time>
      </trkpt>
      <trkpt lat="48.77598" lon="-0.3772">
        <ele>211.8</ele>
        <time>2025-05-26T16:20:59.486Z</time>
      </trkpt>
      <trkpt lat="48.77603" lon="-0.37719">
        <ele>211.7</ele>
        <time>2025-05-26T16:21:02.816Z</time>
      </trkpt>
      <trkpt lat="48.77608" lon="-0.37717">
        <ele>211.5</ele>
        <time>2025-05-26T16:21:06.146Z</time>
      </trkpt>
      <trkpt lat="48.77613" lon="-0.37716">
        <ele>211.3</ele>
        <time>2025-05-26T16:21:09.476Z</time>
      </trkpt>
      <trkpt lat="48.77618" lon="-0.37715">
        <ele>211</ele>
        <time>2025-05-26T16:21:12.806Z</time>
      </trkpt>
      <trkpt lat="48.77623" lon="-0.37714">
        <ele>210.8</ele>
        <time>2025-05-26T16:21:16.136Z</time>
      </trkpt>
      <trkpt lat="48.77628" lon="-0.37712">
        <ele>210.5</ele>
        <time>2025-05-26T16:21:19.466Z</time>
      </trkpt>
      <trkpt lat="48.77633" lon="-0.37711">
        <ele>210.3</ele>
        <time>2025-05-26T16:21:22.796Z</time>
      </trkpt>
      <trkpt lat="48.77638" lon="-0.37711">
        <ele>210.2</ele>
        <time>2025-05-26T16:21:26.075Z</time>
      </trkpt>
      <trkpt lat="48.77644" lon="-0.3771">
        <ele>209.9</ele>
        <time>2025-05-26T16:21:29.355Z</time>
      </trkpt>
      <trkpt lat="48.77649" lon="-0.3771">
        <ele>209.8</ele>
        <time>2025-05-26T16:21:32.635Z</time>
      </trkpt>
      <trkpt lat="48.77654" lon="-0.37709">
        <ele>209.5</ele>
        <time>2025-05-26T16:21:35.915Z</time>
      </trkpt>
      <trkpt lat="48.77662" lon="-0.37715">
        <ele>209.6</ele>
        <time>2025-05-26T16:21:42.373Z</time>
      </trkpt>
      <trkpt lat="48.77668" lon="-0.37709">
        <ele>209</ele>
        <time>2025-05-26T16:21:46.951Z</time>
      </trkpt>
      <trkpt lat="48.77675" lon="-0.37703">
        <ele>208.4</ele>
        <time>2025-05-26T16:21:51.529Z</time>
      </trkpt>
      <trkpt lat="48.77681" lon="-0.37696">
        <ele>207.6</ele>
        <time>2025-05-26T16:21:56.107Z</time>
      </trkpt>
      <trkpt lat="48.77687" lon="-0.3769">
        <ele>207.2</ele>
        <time>2025-05-26T16:22:00.685Z</time>
      </trkpt>
      <trkpt lat="48.77692" lon="-0.37686">
        <ele>207.1</ele>
        <time>2025-05-26T16:22:04.483Z</time>
      </trkpt>
      <trkpt lat="48.77697" lon="-0.37682">
        <ele>207</ele>
        <time>2025-05-26T16:22:08.281Z</time>
      </trkpt>
      <trkpt lat="48.77702" lon="-0.37677">
        <ele>206.9</ele>
        <time>2025-05-26T16:22:12.080Z</time>
      </trkpt>
      <trkpt lat="48.77707" lon="-0.37673">
        <ele>206.8</ele>
        <time>2025-05-26T16:22:15.879Z</time>
      </trkpt>
      <trkpt lat="48.77714" lon="-0.3767">
        <ele>206.5</ele>
        <time>2025-05-26T16:22:20.386Z</time>
      </trkpt>
      <trkpt lat="48.77721" lon="-0.37666">
        <ele>206.1</ele>
        <time>2025-05-26T16:22:24.894Z</time>
      </trkpt>
      <trkpt lat="48.77727" lon="-0.37664">
        <ele>205.9</ele>
        <time>2025-05-26T16:22:29.063Z</time>
      </trkpt>
      <trkpt lat="48.77734" lon="-0.37663">
        <ele>205.7</ele>
        <time>2025-05-26T16:22:33.232Z</time>
      </trkpt>
      <trkpt lat="48.7774" lon="-0.37661">
        <ele>205.6</ele>
        <time>2025-05-26T16:22:37.401Z</time>
      </trkpt>
      <trkpt lat="48.77746" lon="-0.3766">
        <ele>205.4</ele>
        <time>2025-05-26T16:22:41.570Z</time>
      </trkpt>
      <trkpt lat="48.77752" lon="-0.37658">
        <ele>205.3</ele>
        <time>2025-05-26T16:22:45.739Z</time>
      </trkpt>
      <trkpt lat="48.77759" lon="-0.37657">
        <ele>205.4</ele>
        <time>2025-05-26T16:22:49.908Z</time>
      </trkpt>
      <trkpt lat="48.77765" lon="-0.37655">
        <ele>205.5</ele>
        <time>2025-05-26T16:22:54.078Z</time>
      </trkpt>
      <trkpt lat="48.77771" lon="-0.37654">
        <ele>205.5</ele>
        <time>2025-05-26T16:22:58.248Z</time>
      </trkpt>
      <trkpt lat="48.77777" lon="-0.37652">
        <ele>205.5</ele>
        <time>2025-05-26T16:23:02.418Z</time>
      </trkpt>
      <trkpt lat="48.77784" lon="-0.3765">
        <ele>205.2</ele>
        <time>2025-05-26T16:23:06.588Z</time>
      </trkpt>
      <trkpt lat="48.7779" lon="-0.37649">
        <ele>204.9</ele>
        <time>2025-05-26T16:23:10.758Z</time>
      </trkpt>
      <trkpt lat="48.77796" lon="-0.37647">
        <ele>204.6</ele>
        <time>2025-05-26T16:23:14.928Z</time>
      </trkpt>
      <trkpt lat="48.77802" lon="-0.37646">
        <ele>204.4</ele>
        <time>2025-05-26T16:23:19.098Z</time>
      </trkpt>
      <trkpt lat="48.77809" lon="-0.37644">
        <ele>204.2</ele>
        <time>2025-05-26T16:23:23.268Z</time>
      </trkpt>
      <trkpt lat="48.77815" lon="-0.37643">
        <ele>204.1</ele>
        <time>2025-05-26T16:23:27.438Z</time>
      </trkpt>
      <trkpt lat="48.77821" lon="-0.37641">
        <ele>204.1</ele>
        <time>2025-05-26T16:23:31.608Z</time>
      </trkpt>
      <trkpt lat="48.77827" lon="-0.37639">
        <ele>204</ele>
        <time>2025-05-26T16:23:35.813Z</time>
      </trkpt>
      <trkpt lat="48.77833" lon="-0.37637">
        <ele>204.1</ele>
        <time>2025-05-26T16:23:40.018Z</time>
      </trkpt>
      <trkpt lat="48.77838" lon="-0.37634">
        <ele>204.1</ele>
        <time>2025-05-26T16:23:44.223Z</time>
      </trkpt>
      <trkpt lat="48.77844" lon="-0.37632">
        <ele>204.2</ele>
        <time>2025-05-26T16:23:48.428Z</time>
      </trkpt>
      <trkpt lat="48.77851" lon="-0.37629">
        <ele>204.1</ele>
        <time>2025-05-26T16:23:53.143Z</time>
      </trkpt>
      <trkpt lat="48.77857" lon="-0.37625">
        <ele>204.1</ele>
        <time>2025-05-26T16:23:57.858Z</time>
      </trkpt>
      <trkpt lat="48.7786" lon="-0.37621">
        <ele>204</ele>
        <time>2025-05-26T16:24:00.445Z</time>
      </trkpt>
      <trkpt lat="48.77865" lon="-0.37628">
        <ele>204</ele>
        <time>2025-05-26T16:24:05.200Z</time>
        <extensions>
          <visugpx:TrkExtension xmlns:visugpx="https://www.visugpx.com/editgpx/">
            <visugpx:node>26</visugpx:node>
            </visugpx:TrkExtension>
        </extensions>
      </trkpt>
      <trkpt lat="48.77871" lon="-0.37638">
        <ele>204</ele>
        <time>2025-05-26T16:24:11.429Z</time>
      </trkpt>
      <trkpt lat="48.77875" lon="-0.37643">
        <ele>203.9</ele>
        <time>2025-05-26T16:24:14.845Z</time>
        <extensions>
          <visugpx:TrkExtension xmlns:visugpx="https://www.visugpx.com/editgpx/">
            <visugpx:node>27</visugpx:node>
            </visugpx:TrkExtension>
        </extensions>
      </trkpt>
    </trkseg>
  </trk>
</gpx>